[[{"header":{"parameterUnit":"m.s-1","parameterCategory":1,"la1":30.6,"la2":29.2853,"lo1":-89.7004,"lo2":-87.6739,"dy":0.0162,"dx":0.0183,"nx":112,"ny":82,"refTime":"2023-09-17T00:00:00:Z","depth":0,"parameterNumber":2,"parameterNumberName":"U-component_of_WINDS"},"data":[0.0,0.0,0.0,0.0,0.0,0.0,0.0,0.0,0.0,0.0,0.0,0.0,0.0,0.0,0.0,0.0,0.0,0.0,0.0,0.0,0.0,0.0,0.0,0.0,0.0,0.0,0.0,0.0,0.0,0.0,0.0,0.0,0.0,0.0,0.0,0.0,0.0,0.0,0.0,0.0,0.0,0.0,0.0,0.0,0.0,0.0,0.0,0.0,0.0,0.0,0.0,0.0,0.0,0.0,0.0,0.0,0.0,0.0,0.0,0.0,0.0,0.0,0.0,0.0,0.0,0.0,0.0,0.0,0.0,0.0,0.0,0.0,0.0,0.0,0.0,0.0,0.0,0.0,0.0,0.0,0.0,0.0,0.0,0.0,0.0,0.0,0.0,0.0,0.0,0.0,-2.5716,-2.7402,-3.0106,-3.1929,-3.2219,-3.0695,-2.8325,-2.5124,0.0,0.0,0.0,0.0,0.0,0.0,0.0,0.0,0.0,0.0,0.0,0.0,0.0,0.0,0.0,0.0,0.0,0.0,0.0,0.0,0.0,0.0,0.0,0.0,0.0,0.0,0.0,0.0,0.0,0.0,0.0,0.0,0.0,0.0,0.0,0.0,0.0,0.0,0.0,0.0,0.0,0.0,0.0,0.0,0.0,0.0,0.0,0.0,0.0,0.0,0.0,0.0,0.0,0.0,0.0,0.0,0.0,0.0,0.0,0.0,0.0,0.0,0.0,0.0,0.0,0.0,0.0,0.0,0.0,0.0,0.0,0.0,0.0,0.0,0.0,0.0,0.0,0.0,0.0,0.0,0.0,0.0,0.0,0.0,0.0,0.0,0.0,0.0,0.0,0.0,0.0,0.0,0.0,0.0,0.0,0.0,0.0,0.0,0.0,0.0,0.0,0.0,0.0,0.0,-2.6825,-3.0277,-3.1324,-3.1723,-3.156,-3.0105,-2.7989,-2.5159,0.0,0.0,0.0,0.0,0.0,0.0,0.0,0.0,0.0,0.0,0.0,0.0,0.0,0.0,0.0,0.0,0.0,0.0,0.0,0.0,0.0,0.0,0.0,0.0,0.0,0.0,0.0,0.0,0.0,0.0,0.0,0.0,0.0,0.0,0.0,0.0,0.0,0.0,0.0,0.0,0.0,0.0,0.0,0.0,0.0,0.0,0.0,0.0,0.0,0.0,0.0,0.0,0.0,0.0,0.0,0.0,0.0,0.0,0.0,0.0,0.0,0.0,0.0,0.0,0.0,0.0,0.0,0.0,0.0,0.0,0.0,0.0,0.0,0.0,0.0,0.0,0.0,0.0,0.0,0.0,0.0,0.0,0.0,0.0,0.0,0.0,0.0,0.0,0.0,0.0,0.0,0.0,0.0,0.0,0.0,0.0,0.0,0.0,0.0,0.0,0.0,0.0,0.0,-2.5712,-2.7482,-3.1223,-3.1396,-3.1461,-3.1943,-2.9914,-2.7674,-2.547,-2.4458,0.0,0.0,0.0,0.0,0.0,0.0,0.0,0.0,0.0,0.0,0.0,0.0,0.0,0.0,0.0,0.0,0.0,0.0,0.0,0.0,0.0,0.0,0.0,0.0,0.0,0.0,0.0,0.0,0.0,0.0,0.0,0.0,0.0,0.0,0.0,0.0,0.0,0.0,0.0,0.0,0.0,0.0,0.0,0.0,0.0,0.0,0.0,0.0,0.0,0.0,0.0,0.0,0.0,0.0,0.0,0.0,0.0,0.0,0.0,0.0,0.0,0.0,0.0,0.0,0.0,0.0,0.0,0.0,0.0,0.0,0.0,0.0,0.0,0.0,0.0,0.0,0.0,0.0,0.0,0.0,0.0,0.0,0.0,0.0,0.0,0.0,0.0,0.0,0.0,0.0,0.0,0.0,0.0,0.0,0.0,0.0,0.0,0.0,0.0,0.0,0.0,0.0,-2.6746,-2.8028,-3.1053,-3.1066,-3.0999,-3.1287,-2.9206,-2.7038,-2.5121,-2.3898,0.0,0.0,0.0,0.0,0.0,0.0,0.0,0.0,0.0,0.0,0.0,0.0,0.0,0.0,0.0,0.0,0.0,0.0,0.0,0.0,0.0,0.0,0.0,0.0,0.0,0.0,0.0,0.0,0.0,0.0,0.0,0.0,0.0,0.0,0.0,0.0,0.0,0.0,0.0,0.0,0.0,0.0,0.0,0.0,0.0,0.0,0.0,0.0,0.0,0.0,0.0,0.0,0.0,0.0,0.0,0.0,0.0,0.0,0.0,0.0,0.0,0.0,0.0,0.0,0.0,0.0,0.0,0.0,0.0,0.0,0.0,0.0,0.0,0.0,0.0,0.0,0.0,0.0,0.0,0.0,0.0,0.0,0.0,0.0,0.0,0.0,0.0,0.0,0.0,0.0,0.0,0.0,0.0,0.0,0.0,0.0,0.0,0.0,0.0,0.0,0.0,0.0,-2.7251,-2.8721,-2.9663,-3.056,-3.0196,-2.8036,-2.727,-2.5867,-2.3421,-2.2761,0.0,0.0,0.0,0.0,0.0,0.0,0.0,0.0,0.0,0.0,0.0,0.0,0.0,0.0,0.0,0.0,0.0,0.0,0.0,0.0,0.0,0.0,0.0,0.0,0.0,0.0,0.0,0.0,0.0,0.0,0.0,0.0,0.0,0.0,0.0,0.0,0.0,0.0,0.0,0.0,0.0,0.0,0.0,0.0,0.0,0.0,0.0,0.0,0.0,0.0,0.0,0.0,0.0,0.0,0.0,0.0,0.0,0.0,0.0,0.0,0.0,0.0,0.0,0.0,0.0,0.0,0.0,0.0,0.0,0.0,0.0,0.0,0.0,0.0,0.0,0.0,0.0,0.0,0.0,0.0,0.0,0.0,0.0,0.0,0.0,0.0,0.0,0.0,0.0,0.0,0.0,0.0,0.0,0.0,0.0,0.0,0.0,0.0,0.0,0.0,0.0,0.0,-2.6406,-2.7865,-2.9765,-2.9904,-2.9496,-2.8624,-2.7168,-2.5579,-2.3898,0.0,0.0,0.0,0.0,0.0,0.0,0.0,0.0,0.0,0.0,0.0,0.0,0.0,0.0,0.0,0.0,0.0,0.0,0.0,0.0,0.0,0.0,0.0,0.0,0.0,0.0,0.0,0.0,0.0,0.0,0.0,0.0,0.0,0.0,0.0,0.0,0.0,0.0,0.0,0.0,0.0,0.0,0.0,0.0,0.0,0.0,0.0,0.0,0.0,0.0,0.0,0.0,0.0,0.0,0.0,0.0,0.0,0.0,0.0,0.0,0.0,0.0,0.0,0.0,0.0,0.0,0.0,0.0,0.0,0.0,0.0,0.0,0.0,0.0,0.0,0.0,0.0,0.0,0.0,0.0,0.0,0.0,0.0,0.0,0.0,0.0,0.0,0.0,0.0,0.0,0.0,0.0,0.0,0.0,0.0,0.0,0.0,0.0,0.0,0.0,0.0,0.0,-2.4875,-2.5996,-2.7425,-2.9414,-2.9187,-2.8638,-2.8009,-2.6293,-2.4705,-2.3412,0.0,0.0,0.0,0.0,0.0,0.0,0.0,0.0,0.0,0.0,0.0,0.0,0.0,0.0,0.0,0.0,0.0,0.0,0.0,0.0,0.0,0.0,0.0,0.0,0.0,0.0,0.0,0.0,0.0,0.0,0.0,0.0,0.0,0.0,0.0,0.0,0.0,0.0,0.0,0.0,0.0,0.0,0.0,0.0,0.0,0.0,0.0,0.0,0.0,0.0,0.0,0.0,0.0,0.0,0.0,0.0,0.0,0.0,0.0,0.0,0.0,0.0,0.0,0.0,0.0,0.0,0.0,0.0,0.0,0.0,0.0,0.0,0.0,0.0,0.0,0.0,0.0,0.0,0.0,0.0,0.0,0.0,0.0,0.0,0.0,0.0,0.0,0.0,0.0,0.0,0.0,0.0,0.0,0.0,0.0,0.0,0.0,0.0,0.0,0.0,0.0,0.0,-2.4443,-2.622,-2.7626,-2.8319,-2.8381,-2.755,-2.545,-2.4255,-2.3004,0.0,0.0,0.0,0.0,0.0,0.0,0.0,0.0,0.0,0.0,0.0,0.0,0.0,0.0,0.0,0.0,0.0,0.0,0.0,0.0,0.0,0.0,0.0,0.0,0.0,0.0,0.0,0.0,0.0,0.0,0.0,0.0,0.0,0.0,0.0,0.0,0.0,0.0,0.0,0.0,0.0,0.0,0.0,0.0,0.0,0.0,0.0,0.0,0.0,0.0,0.0,0.0,0.0,0.0,0.0,0.0,0.0,0.0,0.0,0.0,0.0,0.0,0.0,0.0,0.0,0.0,0.0,0.0,0.0,0.0,0.0,0.0,0.0,0.0,0.0,0.0,0.0,0.0,0.0,0.0,0.0,0.0,0.0,0.0,0.0,0.0,0.0,0.0,0.0,0.0,0.0,0.0,0.0,0.0,0.0,0.0,0.0,0.0,0.0,0.0,0.0,0.0,0.0,-2.4158,-2.4862,-2.5857,-2.7519,-2.7272,-2.6334,-2.4733,-2.3835,-2.2852,-2.1581,0.0,0.0,0.0,0.0,0.0,0.0,0.0,0.0,0.0,0.0,0.0,0.0,0.0,0.0,0.0,0.0,0.0,0.0,0.0,0.0,0.0,0.0,0.0,0.0,0.0,0.0,0.0,0.0,0.0,0.0,0.0,0.0,0.0,0.0,0.0,0.0,0.0,0.0,0.0,0.0,0.0,0.0,0.0,0.0,0.0,0.0,0.0,0.0,0.0,0.0,0.0,0.0,0.0,0.0,0.0,0.0,0.0,0.0,0.0,0.0,0.0,0.0,0.0,0.0,0.0,0.0,0.0,0.0,0.0,0.0,0.0,0.0,0.0,0.0,0.0,0.0,0.0,0.0,0.0,0.0,0.0,0.0,0.0,0.0,0.0,0.0,0.0,0.0,0.0,0.0,0.0,0.0,0.0,0.0,0.0,0.0,0.0,0.0,0.0,0.0,0.0,0.0,-2.3686,-2.4133,-2.4995,-2.6795,-2.638,-2.541,-2.4025,-2.3286,-2.2374,-2.1089,0.0,0.0,0.0,0.0,0.0,0.0,0.0,0.0,0.0,0.0,0.0,0.0,0.0,0.0,0.0,0.0,0.0,0.0,0.0,0.0,0.0,0.0,0.0,0.0,0.0,0.0,0.0,0.0,0.0,0.0,0.0,0.0,0.0,0.0,0.0,0.0,0.0,0.0,0.0,0.0,0.0,0.0,0.0,0.0,0.0,0.0,0.0,0.0,0.0,0.0,0.0,0.0,0.0,0.0,0.0,0.0,0.0,0.0,0.0,0.0,0.0,0.0,0.0,0.0,0.0,0.0,0.0,0.0,0.0,0.0,0.0,0.0,0.0,0.0,0.0,0.0,0.0,0.0,0.0,0.0,0.0,0.0,0.0,0.0,0.0,0.0,0.0,0.0,0.0,0.0,0.0,0.0,0.0,0.0,0.0,0.0,0.0,0.0,0.0,0.0,0.0,0.0,-2.3117,-2.3825,-2.4748,-2.6134,-2.5595,-2.461,-2.3317,-2.2578,-2.1658,-2.0381,0.0,0.0,0.0,0.0,0.0,0.0,0.0,0.0,0.0,0.0,0.0,0.0,0.0,0.0,0.0,0.0,0.0,0.0,0.0,0.0,0.0,0.0,0.0,0.0,0.0,0.0,0.0,0.0,0.0,0.0,0.0,0.0,0.0,0.0,0.0,0.0,0.0,0.0,0.0,0.0,0.0,0.0,0.0,0.0,0.0,0.0,0.0,0.0,0.0,0.0,0.0,0.0,0.0,0.0,0.0,0.0,0.0,0.0,0.0,0.0,-2.4305,-2.4302,0.0,0.0,0.0,0.0,0.0,0.0,0.0,0.0,0.0,0.0,0.0,0.0,0.0,0.0,0.0,0.0,0.0,0.0,0.0,0.0,0.0,0.0,0.0,0.0,0.0,0.0,0.0,0.0,0.0,0.0,0.0,0.0,0.0,0.0,0.0,0.0,0.0,0.0,0.0,0.0,-2.3117,-2.3425,-2.4025,-2.5373,-2.4456,-2.3394,-2.2578,-2.1904,-2.1165,-2.035,-2.0304,0.0,0.0,0.0,0.0,0.0,0.0,0.0,0.0,0.0,0.0,0.0,0.0,0.0,0.0,0.0,0.0,0.0,0.0,0.0,0.0,0.0,0.0,0.0,0.0,0.0,0.0,0.0,0.0,0.0,0.0,0.0,0.0,0.0,0.0,0.0,0.0,0.0,0.0,0.0,0.0,0.0,0.0,0.0,0.0,0.0,0.0,0.0,0.0,0.0,0.0,0.0,0.0,0.0,0.0,0.0,0.0,0.0,0.0,0.0,-2.655,-2.5688,0.0,0.0,0.0,0.0,0.0,0.0,0.0,0.0,0.0,0.0,0.0,0.0,0.0,0.0,0.0,0.0,0.0,0.0,0.0,0.0,0.0,0.0,0.0,0.0,0.0,0.0,0.0,0.0,0.0,0.0,0.0,0.0,0.0,0.0,0.0,0.0,0.0,0.0,0.0,0.0,-2.3163,-2.3302,-2.3563,-2.4271,-2.3717,-2.2902,-2.1904,-2.1504,-2.0993,-2.0248,-2.0028,0.0,0.0,0.0,0.0,0.0,0.0,0.0,0.0,0.0,0.0,0.0,0.0,0.0,0.0,0.0,0.0,0.0,0.0,0.0,0.0,0.0,0.0,0.0,0.0,0.0,0.0,0.0,0.0,0.0,0.0,0.0,0.0,0.0,0.0,0.0,0.0,0.0,0.0,0.0,0.0,0.0,0.0,0.0,0.0,0.0,0.0,0.0,0.0,0.0,0.0,0.0,0.0,0.0,-3.1341,-3.157,-3.1373,-3.2187,-3.2172,-3.1447,-2.9905,-2.8253,-2.666,-2.6351,0.0,0.0,0.0,0.0,0.0,0.0,0.0,0.0,0.0,0.0,0.0,0.0,0.0,0.0,0.0,0.0,0.0,0.0,0.0,0.0,0.0,0.0,-2.3722,-2.4906,-2.4741,-2.4091,-2.3141,0.0,0.0,0.0,0.0,0.0,0.0,0.0,0.0,0.0,0.0,0.0,-2.3185,-2.3349,-2.3411,-2.3411,-2.3196,-2.2632,-2.151,-2.1203,-2.0765,-2.0008,-1.9675,-1.9483,0.0,0.0,0.0,0.0,0.0,0.0,0.0,0.0,0.0,0.0,0.0,0.0,0.0,0.0,0.0,0.0,0.0,0.0,0.0,0.0,0.0,0.0,0.0,0.0,0.0,0.0,0.0,0.0,0.0,0.0,0.0,0.0,-2.4367,-2.4478,0.0,0.0,0.0,0.0,0.0,0.0,0.0,0.0,0.0,0.0,0.0,0.0,0.0,-3.1152,-3.297,-3.3608,-3.3683,-3.3216,-3.4356,-3.4264,-3.3201,-3.4444,-3.467,-3.404,-3.437,0.0,-2.9247,-2.7516,0.0,0.0,0.0,0.0,0.0,0.0,0.0,0.0,0.0,0.0,0.0,0.0,0.0,0.0,0.0,0.0,0.0,0.0,0.0,0.0,0.0,0.0,-2.493,-2.5697,-2.5796,-2.5713,-2.5553,-2.4663,-2.3878,-2.3802,-2.3924,-2.4021,0.0,0.0,0.0,0.0,0.0,0.0,-2.3041,-2.3559,-2.3909,-2.3909,-2.2874,-2.2093,-2.193,-2.0831,-1.9974,-1.953,-1.9442,-1.9455,-1.9566,-1.9329,0.0,0.0,0.0,0.0,0.0,0.0,0.0,0.0,0.0,0.0,0.0,0.0,0.0,0.0,0.0,0.0,0.0,0.0,0.0,0.0,0.0,0.0,0.0,0.0,0.0,0.0,0.0,0.0,0.0,-2.5189,-2.6146,-2.5667,-2.6335,-2.6542,0.0,0.0,0.0,0.0,0.0,0.0,0.0,0.0,0.0,-3.0461,-3.1171,-3.2266,-3.3758,-3.5293,-3.5893,-3.5614,-3.7035,-3.7389,-3.6851,-3.7434,-3.7539,-3.7255,-3.7165,-3.5794,-3.3397,-3.0699,-2.8776,-2.7467,0.0,0.0,0.0,0.0,-2.6442,-2.6677,-2.6665,-2.6829,-2.701,-2.6596,0.0,0.0,0.0,0.0,0.0,0.0,0.0,-2.4776,-2.5311,-2.5447,-2.5614,-2.6208,-2.6064,-2.5875,-2.626,-2.5582,-2.4844,-2.462,-2.4262,-2.4024,-2.4082,-2.3796,0.0,0.0,0.0,-2.3563,-2.3563,-2.3821,-2.3867,-2.3487,-2.2925,-2.2404,-2.2024,-2.0877,-2.0083,-1.9862,-1.907,-1.8613,-1.8587,-1.8693,-1.9022,0.0,0.0,0.0,0.0,0.0,0.0,0.0,0.0,0.0,0.0,0.0,0.0,0.0,0.0,0.0,0.0,0.0,0.0,0.0,0.0,0.0,0.0,0.0,0.0,0.0,0.0,0.0,0.0,-2.6301,-2.7252,-2.6155,-2.7272,-2.7612,0.0,0.0,0.0,0.0,0.0,0.0,-2.875,-2.9362,-3.0457,-3.2151,-3.2708,-3.3531,-3.4734,-3.6282,-3.7181,-3.7395,-3.8539,-3.9192,-3.9388,-3.9388,-3.9388,-3.9394,-3.8871,-3.7913,-3.6477,-3.3427,-3.1097,-2.938,-2.8656,-2.8374,-2.8399,-2.8359,-2.848,-2.8651,-2.8869,-2.8937,-2.8786,-2.8001,-2.753,-2.6922,-2.5032,0.0,0.0,0.0,0.0,-2.5629,-2.6335,-2.6513,-2.6654,-2.7225,-2.6976,-2.6707,-2.7036,-2.6572,-2.5916,-2.5281,-2.4608,-2.4154,-2.4197,-2.4024,0.0,-2.394,-2.3903,-2.3958,-2.4124,-2.4003,-2.3761,-2.3443,-2.3111,-2.2662,-2.2029,-2.104,-2.0342,-2.0048,-1.9029,-1.8391,-1.8309,-1.8591,-1.9042,-1.9648,0.0,0.0,0.0,0.0,0.0,0.0,0.0,0.0,0.0,0.0,0.0,0.0,0.0,0.0,0.0,0.0,0.0,0.0,0.0,0.0,0.0,0.0,0.0,0.0,0.0,0.0,0.0,0.0,0.0,-2.4426,-2.7736,0.0,0.0,0.0,0.0,-2.9494,-2.997,-3.075,-3.1833,-3.247,-3.36,-3.5396,-3.5571,-3.6263,-3.7573,-3.7158,-3.7329,-3.8159,-3.8225,-3.8664,-3.9388,-3.9388,-3.9388,-3.9388,-3.9343,-3.8601,-3.7165,-3.4487,-3.2676,-3.1424,-3.0117,-2.9701,-2.9781,-2.9659,-2.9997,-3.0448,-2.9783,-2.9562,-2.9636,-3.0148,-2.949,-2.8154,-2.6281,-2.5711,0.0,0.0,-2.6705,-2.6982,-2.8165,-2.8442,-2.8622,-2.9307,-2.9427,-2.922,-2.8622,-2.7974,-2.7121,-2.5833,-2.5031,-2.4605,-2.4732,0.0,-2.3674,-2.3797,-2.3696,-2.3856,-2.4492,-2.3999,-2.3856,-2.4462,-2.3437,-2.2506,-2.1945,-2.1265,-2.0528,-1.968,-1.9556,-1.9561,-1.969,-1.9732,-2.0007,-2.0607,-2.0671,0.0,0.0,0.0,0.0,0.0,0.0,0.0,0.0,0.0,0.0,0.0,0.0,0.0,0.0,0.0,0.0,0.0,0.0,0.0,0.0,0.0,0.0,0.0,0.0,0.0,0.0,0.0,0.0,-2.7815,-3.0654,0.0,-2.9443,-3.0174,-3.0641,-3.0296,-3.1303,-3.2268,-3.3026,-3.362,-3.4526,-3.5899,-3.5647,-3.588,-3.6699,-3.7098,-3.722,-3.7115,-3.8216,-3.8731,-3.8627,-3.8627,-3.8685,-3.8715,-3.8199,-3.7547,-3.6746,-3.5804,-3.4668,-3.3426,-3.2496,-3.2166,-3.221,-3.2166,-3.2287,-3.2406,-3.1689,-3.1465,-3.13,-3.0253,-2.9037,-2.7824,-2.717,-2.696,-2.7095,-2.777,-2.7965,-2.815,-2.9022,-2.922,-2.928,-2.9547,-2.9606,-2.9547,-2.928,-2.9067,-2.8633,-2.7709,-2.6303,-2.5255,-2.5317,-2.5084,-2.4896,-2.4942,-2.4919,-2.4971,-2.5202,-2.4649,-2.4335,-2.4575,-2.3555,-2.2747,-2.2556,-2.1377,-2.0514,-2.0211,-1.952,-1.9163,-1.9211,-1.959,-1.9904,-2.0137,-2.0491,-2.0699,0.0,0.0,0.0,0.0,0.0,0.0,0.0,0.0,0.0,0.0,0.0,0.0,0.0,0.0,0.0,0.0,0.0,0.0,0.0,0.0,0.0,0.0,0.0,0.0,0.0,0.0,-3.0616,-3.0431,-3.2803,-3.3622,-3.1466,-3.198,-3.2275,-3.1893,-3.2738,-3.3613,-3.4397,-3.4607,-3.5129,-3.607,-3.5574,-3.5469,-3.5822,-3.6255,-3.6397,-3.6252,-3.7394,-3.79,-3.7744,-3.758,-3.7548,-3.76,-3.7128,-3.6585,-3.613,-3.641,-3.5833,-3.4756,-3.4083,-3.3963,-3.4143,-3.3903,-3.3829,-3.3724,-3.308,-3.2706,-3.2258,-3.0731,-2.9475,-2.8543,-2.8349,-2.8274,-2.8408,-2.9056,-2.9235,-2.94,-3.0073,-3.0238,-3.0238,-3.0238,-3.0238,-3.0178,-2.9939,-2.9729,-2.9412,-2.8727,-2.7335,-2.6198,-2.5974,-2.5749,-2.5615,-2.5615,-2.5435,-2.5375,-2.5597,-2.4717,-2.4145,-2.4379,-2.3328,-2.2558,-2.2411,-2.143,-2.0728,-2.0563,-1.9909,-1.9522,-1.9522,-1.9878,-2.0087,-2.0087,-2.0241,-2.0321,-2.0321,0.0,0.0,0.0,0.0,0.0,0.0,0.0,0.0,0.0,0.0,0.0,0.0,0.0,0.0,0.0,0.0,0.0,0.0,0.0,0.0,0.0,0.0,0.0,-2.8412,-3.049,-3.1928,-3.198,-3.4018,-3.4515,-3.2215,-3.3535,-3.4489,-3.445,-3.4489,-3.4986,-3.607,-3.5639,-3.5587,-3.6083,-3.5574,-3.5286,-3.5273,-3.4685,-3.484,-3.5669,-3.5709,-3.6122,-3.6827,-3.6276,-3.6047,-3.6066,-3.618,-3.5851,-3.531,-3.61,-3.604,-3.5365,-3.4771,-3.4921,-3.5429,-3.4788,-3.4533,-3.4414,-3.3724,-3.3066,-3.2378,-3.172,-3.1062,-3.0447,-2.9864,-2.9696,-2.9804,-3.0402,-3.0552,-3.0687,-3.1331,-3.1467,-3.1467,-3.1467,-3.1438,-3.1259,-3.0615,-3.0003,-2.9391,-2.8704,-2.8032,-2.7385,-2.6712,-2.6069,-2.5627,-2.5604,-2.5106,0.0,-2.5626,-2.4141,-2.3298,-2.3969,-2.2891,-2.1912,-2.1474,-2.1426,-2.1207,-2.0724,-2.0699,-2.0699,-2.0699,-2.0699,-2.0687,-2.0674,-1.9965,-1.9631,-1.9618,0.0,0.0,0.0,0.0,0.0,0.0,0.0,0.0,0.0,0.0,0.0,0.0,0.0,0.0,0.0,0.0,0.0,0.0,0.0,0.0,0.0,0.0,-3.0675,-3.0831,-3.2881,-3.4816,-3.6083,-3.7142,-3.7364,-3.6332,-3.6658,-3.6567,-3.5704,-3.6449,-3.6881,-3.6763,-3.6619,-3.6397,-3.6109,-3.5574,-3.509,-3.4646,-3.4476,-3.4522,-3.4758,-3.5386,-3.5816,-3.6029,-3.5439,-3.5239,-3.5321,-3.4321,-3.3876,-3.3851,-3.4588,-3.4486,-3.3919,-3.486,-3.534,-3.5489,-3.5295,-3.4906,-3.4414,-3.3724,-3.3066,-3.2378,-3.172,-3.169,-3.1928,-3.1764,-3.1704,-3.1749,-3.1913,-3.1585,-3.1271,-3.1451,-3.1161,-3.0777,-3.0777,-3.0389,-2.9999,-2.9813,-2.9579,-2.9048,-2.7954,-2.7499,-2.7172,-2.6753,-2.6535,-2.625,-2.5807,-2.5597,-2.5547,-2.5744,-2.4554,-2.3957,-2.4589,-2.3211,-2.2196,-2.2061,-2.1697,-2.1246,-2.0725,-2.0699,-2.0699,-2.0699,-2.0612,-2.0486,-2.0334,-2.0144,-2.0025,0.0,0.0,0.0,0.0,0.0,0.0,0.0,0.0,0.0,0.0,0.0,0.0,0.0,0.0,0.0,0.0,0.0,0.0,0.0,0.0,0.0,0.0,-3.2163,-3.3586,-3.4538,-3.5678,-3.7037,-3.8749,-3.9037,-3.8867,-3.8292,-3.824,-3.7861,-3.6933,-3.7273,-3.7377,-3.7024,-3.6554,-3.6136,-3.5783,-3.5221,-3.475,-3.4397,-3.4397,-3.4397,-3.4397,-3.4909,-3.5155,-3.5128,-3.4567,-3.435,-3.4451,-3.3685,-3.326,-3.3157,-3.3909,-3.3788,-3.3339,0.0,0.0,0.0,0.0,-3.4656,-3.3955,-3.3306,-3.2624,-3.1988,-3.1619,-3.156,-3.1648,-3.1648,-3.1454,-3.1228,-3.1228,-3.0965,-3.0644,-3.0644,-3.0343,-2.9995,-2.9995,-2.9687,-2.9324,-2.9027,-2.8714,-2.821,-2.7191,-2.6686,0.0,-2.5854,-2.5987,-2.6041,-2.5673,-2.5425,-2.5259,-2.5259,-2.4218,-2.3635,-2.3974,-2.2898,-2.2048,-2.1836,-2.1511,0.0,0.0,0.0,-2.0498,-2.0498,-2.0423,0.0,0.0,0.0,-1.9637,-1.9549,-1.9443,0.0,0.0,-1.9586,-1.9603,0.0,0.0,0.0,0.0,0.0,0.0,0.0,0.0,0.0,0.0,0.0,0.0,0.0,0.0,0.0,0.0,-3.458,-3.6462,-3.8697,-3.8593,-3.8841,-4.0331,-3.9978,-3.9416,-3.8945,-3.8789,-3.8514,-3.8031,-3.7442,-3.7103,-3.7103,0.0,0.0,0.0,0.0,-3.4528,-3.4397,-3.4397,-3.4397,-3.4397,-3.4397,-3.4397,-3.4384,-3.3835,-3.3587,-3.3602,-3.3632,-3.3376,-3.2935,-3.3683,-3.3668,-3.3262,-3.4046,-3.4277,-3.4172,-3.4307,-3.3906,-3.3248,-3.2648,0.0,0.0,-3.1445,-3.1069,-3.0576,-3.0576,-3.0133,-2.9624,-2.9568,-2.9498,-2.9456,-2.9526,-2.9355,-2.9153,-2.9222,-2.9186,-2.8943,-2.8216,-2.7723,-2.7216,-2.6481,-2.5832,-2.5222,-2.4635,-2.4961,-2.5287,-2.5203,-2.4738,-2.4408,-2.4408,-2.3462,-2.2808,-2.2872,-2.2357,0.0,-2.1347,-2.1296,-2.1026,-2.0438,-2.0399,-2.0374,-2.0374,-2.0284,-2.0225,-2.0144,-1.9439,-1.8999,-1.8871,-1.8606,-1.8499,-1.8508,-1.939,-1.9448,0.0,0.0,0.0,0.0,0.0,0.0,0.0,0.0,0.0,0.0,0.0,0.0,0.0,0.0,0.0,-3.5626,-3.722,-3.8697,-4.0553,-4.0723,-4.0775,-4.1102,-4.0239,-3.973,-4.0056,-3.9246,-3.8671,-3.8553,-3.8044,-3.773,-3.773,-3.7521,-3.6946,-3.5979,-3.5835,-3.5325,-3.441,-3.4397,-3.4397,-3.4397,-3.4397,0.0,-3.4384,-3.3835,-3.3587,-3.3548,-3.3106,-3.2593,-3.2092,-3.2898,-3.3128,-3.2996,-3.3316,-3.3427,-3.3408,-3.3433,-3.3273,-3.2918,-3.243,-3.1791,-3.1171,-3.1303,-3.1185,-3.0989,-3.0993,-3.0783,0.0,-3.0021,-2.9503,-2.9208,-2.9628,-2.8988,-2.8368,-2.8785,-2.8469,-2.7931,-2.7351,-2.7406,-2.724,-2.6194,-2.5769,-2.539,-2.4843,-2.4704,-2.4509,-2.4015,-2.3852,-2.3763,-2.3763,-2.3216,-2.2962,-2.3381,-2.2962,-2.2578,-2.2475,-2.2462,-2.2219,-2.1601,-2.1562,-2.1535,-2.1401,-2.0893,-2.0552,-2.0418,-1.9732,-1.9336,-1.9213,-1.9154,-1.9084,-1.8963,-1.9165,-1.9177,0.0,0.0,0.0,0.0,0.0,0.0,0.0,0.0,0.0,0.0,0.0,-3.0179,0.0,0.0,-3.5286,-3.7887,-3.9011,-3.9978,-4.1154,-4.1311,-4.1311,-4.1311,-4.054,-4.0017,-4.0017,-3.922,-3.8593,-3.8331,-3.8057,-3.79,-3.79,-3.7325,-3.6724,-3.6123,-3.5547,-3.4972,-3.441,-3.4123,-3.4123,-3.4397,-3.4123,-3.4136,-3.4384,-3.4123,-3.3992,-3.3966,-3.3297,-3.2644,-3.2071,-3.1818,-3.167,-3.1659,-3.1759,-3.2254,-3.2904,-3.2904,-3.2585,-3.2109,-3.158,-3.1149,-3.0745,-3.0515,-3.0385,-3.0351,-3.0337,-2.9861,-2.9225,-2.8965,-2.8439,-2.8113,-2.8651,-2.8071,-2.7494,-2.8057,-2.7704,-2.707,-2.6456,-2.6536,-2.6451,-2.5517,-2.5275,-2.5121,-2.4838,-2.4721,-2.445,-2.389,-2.3538,-2.3348,-2.3348,-2.3107,-2.3044,-2.3322,-2.3107,-2.2845,-2.2566,-2.2287,-2.202,-2.1713,-2.1688,-2.166,-2.1592,-2.0974,-2.055,-2.0387,-1.9727,-1.9328,-1.9211,-1.9211,-1.9165,-1.9108,-1.9108,-1.9108,0.0,0.0,0.0,0.0,0.0,0.0,0.0,0.0,-2.873,-3.0163,-3.1548,-3.2998,-3.4763,-3.6305,-3.7861,-3.9494,-4.0226,-4.0762,-4.1246,-4.1219,-4.1102,-4.0997,-4.0644,-4.02,-3.9664,-3.9063,-3.8527,-3.8096,-3.7965,-3.79,-3.79,-3.6867,-3.6227,-3.6109,-3.5103,-3.4515,-3.4397,-3.3862,-3.3809,-3.4241,-3.3638,-3.3612,-3.4029,-3.3988,-3.3934,-3.3921,-3.3301,-3.2767,-3.2236,-3.1035,-3.0458,-3.033,-3.033,-3.102,-3.2083,-3.2141,-3.1769,-3.1154,-3.0738,-3.0415,-3.0184,-2.9878,-2.9645,-2.9517,-2.9517,-2.8827,-2.7972,-2.7905,-2.7538,-2.7334,-2.7857,-2.7408,-2.6962,-2.7579,-2.724,-2.6624,-2.5921,-2.5996,-2.5954,-2.528,-2.5146,-2.5146,-2.5146,-2.5046,-2.4757,-2.4104,-2.3602,-2.3233,-2.312,-2.3108,-2.3108,-2.3108,-2.3108,-2.2932,-2.2481,-2.2071,-2.1807,-2.1807,-2.1807,-2.175,-2.1624,-2.0962,-2.0504,-2.0268,-1.958,-1.9211,-1.9108,-1.9108,-1.9108,-1.9108,-1.9108,-1.9108,-2.7015,-2.7678,-2.8749,-3.0301,-2.9489,-2.9463,0.0,0.0,-3.1941,-3.4175,-3.4776,-3.5443,-3.7194,-3.807,-3.8919,-4.0122,-4.0827,-4.1232,-4.1311,-4.0853,-4.0331,-3.986,-4.0161,-4.02,-3.9664,-3.9063,-3.8684,-3.8619,-3.8174,-3.79,-3.79,-3.726,-3.6658,-3.6123,-3.5508,-3.4933,-3.441,-3.3862,-3.3626,-3.3679,-3.289,-3.2563,-3.2615,-3.2441,-3.2347,-3.2347,-3.2269,-3.219,-3.2074,-3.1381,-3.0701,-3.0113,-3.0113,-3.0113,-3.0152,-3.0495,-3.047,-3.0292,-3.0392,-2.9957,-2.945,-3.0098,-2.9817,-2.9247,-2.9247,-2.9036,-2.8674,-2.8184,-2.8031,-2.8083,-2.8636,-2.8008,-2.7366,-2.792,-2.763,-2.7077,-2.6512,-2.6776,-2.6964,-2.6411,-2.6311,-2.6311,-2.6311,-2.5883,-2.5172,-2.4155,-2.3941,-2.3715,-2.317,-2.3108,-2.3108,-2.3108,-2.3108,-2.3083,-2.302,-2.2957,-2.292,-2.292,-2.292,-2.2655,-2.2055,-2.1389,-2.0765,-2.0117,-1.9476,-1.9112,-1.9108,-1.9108,-1.9108,-1.9108,-1.9108,-1.9108,-2.9876,-3.0613,0.0,0.0,-3.245,-3.2858,-3.4259,-3.3942,-3.3756,-3.5089,-3.6541,-3.7787,-3.8514,-3.9371,-4.0125,0.0,-4.0791,-4.0808,-4.0808,-4.0057,-3.9152,-3.8286,-3.8233,-3.8348,-3.8606,-3.807,-3.7861,-3.8214,-3.8031,-3.7756,-3.7403,-3.6681,-3.6095,-3.5652,-3.4808,-3.4309,-3.4243,-3.325,-3.2883,-3.3181,-3.2196,-3.1898,-3.2207,-3.2114,-3.1815,-3.1401,-3.1414,-3.1169,-3.0733,-3.0493,-3.0213,-2.9934,-2.9934,-2.9869,-2.983,-2.9972,-3.0011,-2.9934,-3.0011,-2.9808,-2.9618,-2.9935,-2.9808,-2.9542,-2.9542,-2.9265,-2.8838,-2.8612,-2.8348,-2.816,-2.8398,-2.7871,-2.7379,-2.757,-2.7205,-2.6776,-2.6549,-2.6675,-2.6776,-2.6537,-2.6499,-2.6499,-2.6499,-2.6298,-2.5871,-2.5046,-2.4669,-2.4362,-2.4111,-2.381,-2.3471,-2.3145,-2.3108,-2.3108,-2.3108,-2.275,-2.2525,-2.2525,-2.2156,-2.1815,-2.1522,-2.0858,-2.052,-2.0522,-1.983,-1.9637,-1.9862,-1.9862,-1.9792,-1.9688,-1.9688,-1.9618,-3.1469,0.0,0.0,-3.4594,-3.5509,-3.6197,-3.5663,-3.5624,-3.5788,-3.623,-3.7685,-3.8871,-3.8859,-3.953,-4.0124,-4.0292,-4.0309,-4.0273,-4.0273,-3.9158,-3.7976,-3.686,-3.6129,-3.5997,-3.6714,-3.6694,-3.6908,-3.7508,-3.7371,-3.7105,-3.6831,-3.5939,-3.5357,-3.5128,-3.4191,-3.381,-3.3992,-3.2718,-3.2278,-3.2649,-3.1482,-3.111,-3.1546,-3.162,-3.136,-3.0846,-3.0985,-3.0666,-3.0018,-3.0018,-2.993,-2.9792,-2.9792,-2.9792,-2.9792,-2.9792,-2.9792,-2.9792,-2.9792,-2.9792,-2.9792,-2.9792,-2.9792,-2.9792,-2.9792,-2.9503,-2.9126,-2.9126,-2.8888,-2.8536,-2.8373,-2.8034,-2.7657,-2.7356,-2.7014,-2.6688,-2.6524,-2.6465,-2.643,-2.643,-2.643,-2.643,-2.643,-2.6465,-2.6314,-2.5832,-2.5423,-2.5043,-2.4625,-2.4104,-2.3572,-2.3145,-2.2944,-2.2811,-2.2811,-2.2206,-2.1791,-2.1748,-2.1333,-2.0965,-2.0709,-2.039,-2.0268,-2.0354,-1.9986,-1.9934,-2.0252,-2.0252,-2.0145,-2.0001,-2.0001,-1.9939,0.0,0.0,-3.6217,-3.7908,-3.847,-3.8937,-4.0219,-3.9462,-3.8623,-3.8672,-3.8326,-3.8053,-3.8027,-3.804,-3.8245,-3.8797,-3.9362,-3.9734,-3.9734,-3.8309,-3.6821,-3.5711,-3.4105,-3.3335,0.0,-3.5076,-3.6074,-3.6599,-3.5968,-3.5801,-3.6282,-3.5269,-3.4622,-3.464,-3.402,-3.3713,-3.3713,-3.2636,-3.2098,-3.2098,-3.0763,-3.0151,-3.019,-3.05,-3.0633,-3.0645,-3.1148,-3.1072,-3.0595,-3.0595,-3.0281,-2.9792,-2.9792,-2.9792,-2.9792,-2.9792,-2.9792,-2.9792,-2.9792,-2.9792,-2.9792,-2.9792,-2.9792,-2.9792,-2.9792,-2.9779,-2.9767,-2.9767,-2.9754,-2.9616,-2.9013,-2.885,-2.8612,-2.7544,-2.7304,-2.714,-2.6612,-2.6339,-2.6213,-2.6213,-2.6213,-2.6213,-2.6213,-2.6361,-2.643,-2.6211,-2.6164,-2.5647,-2.4199,-2.3496,-2.312,-2.3108,-2.2525,-2.2144,-2.2144,-2.1534,-2.1049,-2.0855,-2.1017,-2.0666,-1.9694,-2.0188,-2.0115,-1.9248,-1.959,-1.9821,-1.9831,-1.9831,-1.9831,-1.9831,-1.9831,-1.9795,-3.4748,0.0,-3.9353,-3.9411,-3.9846,-4.0094,-3.9625,-3.8853,-3.8046,-3.7349,-3.6908,-3.6437,-3.5659,-3.5825,-3.6386,-3.7295,-3.8092,-3.8728,-3.9108,-3.8361,-3.6931,-3.4705,-3.4406,0.0,0.0,0.0,0.0,-3.5787,-3.5262,-3.4974,-3.5148,-3.4683,-3.43,-3.402,-3.3543,-3.3356,-3.3513,-3.2608,-3.1969,-3.1643,-3.0842,-3.0261,-2.992,-3.0396,-3.0419,-3.008,-3.0256,-3.0231,-3.0068,-3.0068,-2.9955,-2.9792,-2.9792,-2.9792,-2.9792,-2.9792,-2.9792,-2.9792,-2.9792,-2.9792,-2.9792,-2.9792,-2.9792,-2.9792,-2.9792,-2.9792,-2.9792,-2.9792,-2.9792,-2.9666,-2.9076,-2.8888,-2.8612,-2.7544,-2.7557,-2.7546,-2.6527,-2.6544,-2.6576,-2.6089,-2.598,-2.598,-2.598,-2.605,-2.6084,-2.6015,-2.598,-2.5558,-2.4352,-2.3595,-2.2895,-2.2197,-2.151,-2.1195,-2.1483,-2.0908,-2.0585,-2.0798,-2.0464,-2.0094,-1.9756,-1.9944,-2.0027,-2.0052,-2.0203,-2.0423,-2.0715,-2.0715,-2.0649,-2.0536,-2.0536,-2.045,-3.7717,-4.0002,-4.1675,-4.1259,-4.154,-4.1488,-3.9831,-3.8867,-3.7826,-3.6119,-3.5196,-3.4287,-3.3161,-3.2921,-3.3389,-3.4907,-3.5571,-3.6408,-3.7825,-3.7149,-3.6031,-3.465,-3.442,-3.392,0.0,0.0,0.0,-3.4932,-3.4793,-3.4659,-3.4641,-3.4508,-3.4255,-3.3801,-3.353,-3.3356,-3.3283,-3.2588,-3.1938,-3.1386,-3.0871,-3.0432,-3.0105,-3.0645,-3.0495,-2.9817,-3.0193,-3.0143,-2.9792,-2.9792,-2.9792,-2.9792,-2.9792,-2.9792,-2.9792,-2.9792,-2.9792,-2.9792,-2.9792,-2.9792,-2.9792,-2.9792,-2.9792,-2.9792,-2.9792,-2.974,-2.9702,-2.9792,-2.974,-2.9525,-2.9038,-2.8988,-2.8825,-2.7737,-2.7814,-2.784,-2.6652,-2.6754,-2.6807,-2.5963,-2.5952,-2.6026,-2.583,-2.5793,-2.5688,-2.5418,-2.5312,-2.4999,-2.4234,-2.3319,-2.2452,-2.1774,-2.1084,-2.0774,-2.1047,-2.0429,-2.0159,-2.0374,-2.0001,-1.9759,-1.965,-1.9846,-2.0055,-2.0297,-2.0456,-2.0675,-2.1012,-2.1012,-2.0935,-2.078,-2.078,-2.0731,-3.9799,-4.1688,-4.32,-4.3384,-4.3444,-4.2915,-4.0775,-3.9442,-3.7889,-3.5152,-3.3206,-3.1675,-3.0608,-2.9527,-2.9565,-3.1813,-3.2265,-3.3307,-3.6103,-3.509,-3.4474,0.0,0.0,0.0,0.0,0.0,0.0,-3.4154,0.0,-3.4618,-3.468,-3.468,-3.4462,-3.3922,-3.3897,-3.3633,-3.3124,-3.2503,-3.1951,-3.1424,-3.0934,-3.0683,-3.067,-3.1198,-3.0846,-2.9892,-3.0909,-3.0758,-2.9792,-2.9792,-2.9792,-2.9792,-2.9792,-2.9792,-2.9792,-2.9792,-2.9792,-2.9792,-2.9753,-2.9753,-2.9792,-2.9753,-2.9753,-2.9753,-2.9753,-2.9611,-2.9431,-2.9702,-2.9573,-2.9307,-2.8987,-2.9161,-2.9119,-2.8089,-2.81,-2.8023,-2.6919,-2.6968,-2.6919,-2.5789,-2.5948,-2.613,-2.562,-2.5488,-2.5194,-2.4445,-2.412,-2.3936,-2.3828,-2.2661,-2.1839,-2.1817,-2.1167,-2.073,-2.0751,-2.0175,-1.9773,-1.9677,-1.9766,-1.971,-1.9392,-1.9905,-2.0121,-1.9951,-2.0352,-2.0605,-2.0605,-2.0605,-2.0605,-2.0605,-2.0605,-2.0605,-4.2615,-4.416,-4.5086,-4.3932,-4.2789,-4.1353,-3.9137,-3.7139,-3.5228,-3.3257,-3.0884,-2.8812,-2.7756,-2.7959,-2.9038,-3.1235,-3.2993,0.0,-3.7262,-3.7224,0.0,-3.5608,0.0,-3.5135,-3.401,-3.4387,0.0,0.0,-3.3928,-3.3859,-3.4675,-3.468,-3.4462,-3.3922,-3.3897,-3.3633,-3.3124,-3.2503,-3.2139,-3.2001,-3.1876,-3.1587,-3.121,-3.175,-3.1424,-3.0419,-3.0696,-3.0419,-2.9792,-2.9792,-2.9792,-2.9792,-2.9792,-2.9792,-2.9792,-2.956,-2.9509,-2.947,-2.9326,-2.9365,-2.947,-2.9326,-2.93,-2.93,-2.93,-2.9209,-2.9209,-2.9248,-2.9209,-2.9172,-2.9075,-2.9098,-2.8997,-2.8321,-2.8528,-2.8439,-2.6834,-2.7175,-2.7319,-2.5707,-2.5004,-2.4644,-2.4504,-2.4022,-2.3585,-2.339,-2.2798,-2.2439,-2.2615,-2.1865,-2.1159,-2.074,-2.0088,-1.9806,-2.0088,-1.9969,-2.0005,-2.0339,-2.0397,-2.0359,-2.0282,-2.0428,-2.0477,-2.0439,-2.0546,-2.0605,-2.0605,-2.0605,-2.0605,-2.0605,-2.0605,-2.0605,-4.5459,-4.6557,-4.6881,-4.4688,-4.2738,-4.0486,-3.7276,-3.524,-3.3257,-3.0595,-2.8423,-2.6741,-2.59,-2.6251,-2.7381,0.0,0.0,0.0,-3.6182,-3.6571,-3.6496,0.0,-3.632,0.0,-3.5077,-3.5316,-3.547,0.0,-3.4876,-3.4688,-3.5019,-3.5044,-3.4826,-3.4274,-3.4022,-3.3633,-3.3124,-3.2357,-3.1927,-3.1914,-3.1272,-3.0767,-3.0489,-3.0996,-3.0758,-2.997,-3.0408,-3.0096,-2.9209,-2.9106,-2.8831,-2.8502,-2.8791,-2.8673,-2.8422,-2.9028,-2.9028,-2.8648,-2.8462,-2.8712,-2.9145,-2.9131,-2.9091,-2.9091,-2.9091,-2.9052,-2.9013,-2.9091,-2.9052,-2.9,-2.9091,-2.904,-2.8888,-2.8594,-2.8675,-2.8512,-2.7256,-2.7337,-2.7116,-2.5249,-2.4209,-2.361,-2.361,-2.3279,-2.2883,-2.2547,-2.2096,-2.1748,-2.1526,-2.1159,-2.0767,-2.0441,-2.0106,-1.9941,-2.0185,-2.0195,-2.0303,-2.0586,-2.0605,-2.0605,-2.0605,-2.0605,-2.0605,-2.0605,-2.0605,-2.0605,-2.0605,-2.0605,-2.0605,-2.0605,-2.0605,-2.0605,-4.7912,-4.817,-4.7823,-4.5237,-4.2594,-3.9592,-3.5511,-3.3533,-3.1486,-2.7821,0.0,-2.5222,-2.4662,-2.4687,-2.554,-2.7846,0.0,-3.1085,-3.4462,-3.4876,-3.5416,-3.6998,-3.6744,-3.6405,-3.6405,-3.5931,-3.5855,-3.6367,-3.6405,-3.6157,-3.5633,-3.5533,-3.5161,-3.4432,-3.3883,-3.3327,-3.2711,-3.1845,-3.1392,-3.1392,-3.0066,-2.9437,-2.9425,-2.9793,-2.9612,-2.9041,-2.9866,-2.9483,-2.8211,-2.7976,-2.7452,-2.6812,-2.7395,-2.718,-2.6689,-2.8171,-2.8211,-2.7557,-2.7342,-2.7758,-2.8462,-2.8764,-2.8855,-2.8855,-2.8855,-2.8633,-2.8422,-2.8593,-2.8554,-2.8422,-2.8633,-2.8554,-2.8383,-2.8383,-2.8275,-2.7985,-2.7462,-2.7046,-2.6323,-2.477,-2.37,-2.2982,-2.2917,-2.2821,-2.251,-2.1728,-2.1652,-2.1385,-2.0683,-2.0605,-2.0605,-2.0605,-2.0605,-2.0605,-2.0605,-2.0605,-2.0605,-2.0605,-2.0605,-2.0605,-2.0605,-2.0605,-2.0605,-2.0605,-2.0566,-2.0566,-2.0566,-2.0527,-2.045,-2.0323,-2.0323,-2.0313,-4.8342,-4.7065,-4.5209,-4.419,-4.091,-3.7213,-3.4632,-3.1763,0.0,0.0,-2.5021,-2.4104,-2.3496,-2.4161,-2.5665,-2.8311,0.0,0.0,0.0,0.0,-3.5796,0.0,0.0,0.0,0.0,0.0,0.0,0.0,-3.6405,-3.6367,-3.6267,-3.5793,-3.4686,-3.2868,-3.2301,-3.1576,-3.0711,-3.0531,-3.0441,-3.0441,-3.0168,-3.0032,-3.0032,-2.9917,-2.9322,-2.8439,-2.8408,-2.7809,-2.6853,-2.6801,-2.6678,-2.6565,-2.6689,-2.6648,-2.6513,-2.6584,-2.6532,-2.6367,-2.6141,-2.6193,-2.6442,-2.7255,-2.7551,-2.7551,-2.7551,-2.6958,-2.6318,-2.6359,-2.6359,-2.6318,-2.6359,-2.6359,-2.6318,-2.6318,-2.6276,-2.6102,-2.5584,-2.5069,-2.4756,-2.4864,-2.3902,-2.295,-2.2564,-2.1964,-2.1332,-2.0887,-2.0828,-2.075,-2.0605,-2.0605,-2.0605,-2.0605,-2.0605,-2.0605,-2.0605,-2.0605,-2.0605,-2.0605,-2.0605,-2.0605,-2.0605,-2.0605,-2.0605,-2.0605,-2.0459,-2.0342,-2.0342,-2.0137,-1.9648,-1.8957,-1.8957,-1.8726,-4.9056,-4.7771,-4.576,-4.428,-4.0516,-3.6307,-3.2955,0.0,0.0,0.0,-2.3904,-2.3434,-2.3158,-2.4249,0.0,0.0,0.0,0.0,0.0,0.0,0.0,0.0,0.0,0.0,0.0,0.0,-3.6108,-3.5415,-3.5367,-3.5415,-3.5571,-3.4148,-3.2685,-3.1278,-3.0873,-3.0463,-3.0011,-2.9464,-2.9143,-2.8993,-2.8505,-2.8283,-2.8283,-2.8337,-2.8006,-2.7393,-2.7443,-2.6836,-2.5755,-2.5672,-2.5358,-2.4946,-2.5316,-2.5147,-2.4808,-2.563,-2.5793,-2.5552,-2.5243,-2.5572,-2.6115,-2.5875,-2.608,-2.6464,-2.6464,-2.6163,-2.5777,-2.5777,-2.5777,-2.5777,-2.5777,-2.5777,-2.5777,-2.5777,-2.5777,-2.5597,-2.487,-2.4332,-2.3945,-2.3732,-2.2828,-2.203,-2.181,-2.1263,-2.081,-2.0635,-2.0489,-2.045,-2.045,-2.0333,-2.0333,-2.0566,-2.0605,-2.0605,-2.0605,-2.0605,-2.0566,-2.045,-2.045,-2.045,-2.045,-2.0294,-2.0294,-2.0459,-2.0225,-2.0098,-2.0098,-1.9499,-1.9006,-1.8598,-1.8149,-1.7799,-4.8758,-4.778,-4.613,-4.3971,-4.0031,-3.5592,-3.1537,-2.8699,0.0,0.0,-2.3108,-2.3108,-2.3108,0.0,-2.5372,0.0,0.0,0.0,0.0,0.0,0.0,0.0,0.0,0.0,0.0,0.0,0.0,-3.4068,-3.3667,-3.3611,-3.3944,-3.2231,-3.0769,-2.9726,-2.9487,-2.9304,-2.9085,-2.8319,-2.7814,-2.7605,-2.6849,-2.6496,-2.6486,-2.6764,-2.6601,-2.6127,-2.6399,-2.5819,-2.467,-2.45,-2.4016,-2.346,-2.3993,-2.3734,-2.3266,-2.4691,-2.5069,-2.4768,-2.4464,-2.5044,-2.5763,-2.4671,-2.486,-2.5537,-2.5537,-2.5358,-2.5242,-2.5242,-2.5242,-2.5242,-2.5242,-2.5242,-2.5242,-2.5242,-2.5242,-2.5031,-2.437,-2.388,-2.3372,-2.2689,-2.1984,-2.1378,-2.1235,-2.0955,-2.0663,-2.0479,-2.0303,-2.0225,-2.0225,-2.002,-2.0059,-2.0411,-2.045,-2.045,-2.045,-2.045,-2.0372,-2.0225,-2.0225,-2.0225,-2.0225,-2.002,-1.9981,-2.0225,-1.9775,-1.9569,-1.9569,-1.8638,-1.8118,-1.7908,-1.722,-1.6812,-4.5897,-4.5107,-4.3708,-4.1994,-3.8202,-3.4186,-3.1273,0.0,0.0,-2.3471,-2.3108,-2.3108,-2.3108,-2.3233,-2.4042,0.0,0.0,-2.7844,0.0,0.0,0.0,0.0,0.0,0.0,0.0,0.0,-3.3723,-3.2593,-3.1227,-3.0701,-3.1236,-3.1027,-3.0094,-2.8179,-2.81,-2.7662,-2.6812,-2.6726,-2.663,-2.663,-2.6544,-2.6496,-2.6496,-2.6302,-2.5717,-2.493,-2.4733,-2.4147,-2.3256,-2.3256,-2.3222,-2.3144,-2.3222,-2.3178,-2.3135,-2.3309,-2.3585,-2.3914,-2.3875,-2.3929,-2.4048,-2.3919,-2.4186,-2.4627,-2.4627,-2.4026,-2.3343,-2.3343,-2.3343,-2.3343,-2.3343,-2.3343,-2.3343,-2.3343,-2.3343,-2.3353,-2.3266,-2.3062,-2.2867,-2.279,-2.2503,-2.2068,-2.1341,-2.118,-2.0895,-2.0095,-1.9942,-1.9942,-1.9942,-1.9902,-1.9902,-1.9942,-1.9981,-1.9981,-1.9981,-1.9981,-1.9942,-1.9942,-1.9942,-1.9942,-1.9942,-1.9902,-1.9902,-1.9942,-1.8957,-1.8461,-1.8421,-1.7383,-1.6453,-1.5677,-1.5594,-1.5303,-4.3022,-4.3198,-4.2409,-4.0764,-3.7513,-3.3909,-3.0821,0.0,-2.5121,-2.3446,-2.3108,-2.3108,-2.3108,-2.3396,-2.3941,0.0,0.0,0.0,0.0,0.0,0.0,0.0,0.0,0.0,0.0,0.0,-3.2065,-3.0813,-2.9445,-2.8543,-2.8204,-2.8359,-2.7883,-2.6686,-2.6525,-2.6131,-2.5468,-2.5468,-2.555,-2.5666,-2.5666,-2.5757,-2.6014,-2.5641,-2.5132,-2.4542,-2.4196,-2.3691,-2.3091,-2.3091,-2.3091,-2.3091,-2.3091,-2.3091,-2.3091,-2.3091,-2.353,-2.4131,-2.3877,-2.3955,-2.4121,-2.3867,-2.3664,-2.3484,-2.3604,-2.3396,-2.3091,-2.3091,-2.3091,-2.3057,-2.2969,-2.2925,-2.2882,-2.2706,-2.2794,-2.2882,-2.2696,-2.2618,-2.2574,-2.2574,-2.2286,-2.1925,-2.1627,-2.1362,-2.1097,-2.0715,-2.0536,-2.0435,-2.0435,-2.0322,-2.024,-2.024,-2.0045,-1.9902,-1.9902,-1.9902,-1.9863,-1.9715,-1.9715,-1.946,-1.8957,-1.8807,-1.8559,-1.8141,-1.7626,-1.7334,-1.7334,-1.637,-1.576,-1.5394,-1.4866,-1.448,-3.966,-4.0683,-4.083,-3.912,-3.6194,-3.2955,0.0,0.0,-2.468,-2.3323,-2.3017,-2.3,-2.3,-2.3324,-2.3679,0.0,0.0,-2.4493,0.0,0.0,0.0,0.0,0.0,-3.0893,0.0,-3.1423,-3.024,-2.9219,-2.8089,-2.7158,-2.6426,-2.6448,-2.6219,-2.5617,-2.5456,-2.5154,-2.471,-2.47,-2.4766,-2.4873,-2.4873,-2.5107,-2.5527,-2.5215,-2.4834,-2.4394,-2.4102,-2.3652,-2.3091,-2.3091,-2.3091,-2.3091,-2.3091,-2.3091,-2.3091,-2.3091,-2.3637,-2.4375,-2.4082,-2.4124,-2.4273,-2.3981,-2.3335,-2.2706,-2.2838,-2.2872,-2.2872,-2.2872,-2.2872,-2.2882,-2.2706,-2.2662,-2.2618,-2.2441,-2.253,-2.2618,-2.2441,-2.2353,-2.2309,-2.2309,-2.203,-2.1708,-2.163,-2.1367,-2.1142,-2.102,-2.0815,-2.0713,-2.0713,-2.0596,-2.0385,-2.0132,-1.9834,-1.9734,-1.9902,-1.9645,-1.939,-1.9161,-1.8972,-1.8561,-1.7868,-1.7876,-1.7606,-1.7039,-1.6737,-1.6536,-1.6436,-1.5575,-1.5077,-1.4985,-1.4377,-1.4046,-3.5507,-3.7211,-3.8554,-3.6857,-3.3884,-3.0846,0.0,-2.584,-2.3548,-2.3033,-2.28,-2.272,-2.272,-2.272,-2.2893,-2.3403,0.0,0.0,0.0,0.0,0.0,0.0,0.0,-2.8793,-2.9014,-2.864,-2.8168,-2.7748,-2.7266,0.0,-2.6406,-2.5977,-2.5537,-2.5125,-2.5116,-2.4853,-2.4424,-2.4414,-2.4414,-2.4424,-2.4424,-2.4648,-2.5125,-2.5116,-2.4834,-2.4414,-2.4414,-2.3881,-2.3091,-2.3091,-2.3091,-2.3091,-2.3091,-2.3091,-2.3091,-2.3091,-2.3637,-2.4414,-2.4414,-2.4275,-2.411,-2.41,-2.3341,-2.2397,-2.2397,-2.2397,-2.2397,-2.2397,-2.2397,-2.2397,-2.2397,-2.2397,-2.2397,-2.2397,-2.2397,-2.2397,-2.2397,-2.222,-2.2097,-2.2097,-2.1874,-2.1549,-2.1181,-2.1099,-2.097,-2.0576,-2.0521,-2.0521,-2.0521,-2.0521,-2.0132,-1.9196,-1.911,-1.9329,-1.983,-1.9126,-1.8458,-1.8023,-1.7474,-1.7006,-1.6747,-1.7273,-1.7435,-1.7122,-1.6562,-1.614,-1.5819,-1.4936,-1.4369,-1.413,-1.4088,-1.3955,-3.1279,-3.2582,-3.3414,-3.2471,-3.0764,-2.8883,-2.7072,-2.5342,-2.3836,-2.2954,-2.2739,-2.272,-2.272,-2.272,-2.2893,-2.3403,-2.3146,0.0,0.0,0.0,0.0,0.0,-2.8412,-2.9138,0.0,0.0,-2.7685,-2.7256,-2.6826,-2.6396,-2.5967,-2.5762,-2.5343,-2.4648,-2.4619,-2.4277,-2.351,-2.35,-2.3647,-2.3984,-2.3984,-2.4209,-2.4609,-2.4326,-2.4121,-2.3975,-2.3627,-2.3344,-2.3091,-2.3091,-2.3091,-2.312,-2.3467,-2.332,-2.292,-2.32,-2.3573,-2.3867,-2.3589,-2.3629,-2.3774,-2.3498,-2.2851,-2.2185,-2.2185,-2.2309,-2.2397,-2.2397,-2.2309,-2.2185,-2.2185,-2.2185,-2.2141,-2.1954,-2.2043,-2.2132,-2.1954,-2.1874,-2.183,-2.183,-2.1785,-2.165,-2.1513,-2.0989,-2.0526,-2.0368,-1.9764,-1.9362,-1.9362,-1.9362,-1.9228,-1.8921,-1.8868,-1.8758,-1.8359,-1.8096,-1.7867,-1.7712,-1.7552,-1.7137,-1.6434,-1.6585,-1.6389,-1.5687,-1.5482,-1.5157,-1.4726,-1.4429,-1.4067,-1.361,-1.361,-1.3568,0.0,-2.9414,-3.0107,-2.9532,-2.8449,0.0,0.0,-2.4427,-2.333,-2.2399,-2.2371,-2.2432,-2.2161,-2.2099,-2.2207,-2.2531,-2.2151,0.0,0.0,0.0,0.0,-2.552,0.0,0.0,0.0,-2.7532,-2.7422,-2.6826,-2.6533,-2.6201,-2.5713,-2.5576,-2.5156,-2.4443,-2.4414,-2.3958,-2.3101,-2.3091,-2.3227,-2.3545,-2.3545,-2.3769,-2.417,-2.3906,-2.3789,-2.3769,-2.3496,-2.3203,0.0,-2.2969,-2.3013,-2.3088,-2.3358,-2.3255,-2.293,-2.3143,-2.346,-2.3662,-2.3254,-2.3295,-2.3467,-2.3062,-2.2278,-2.1499,-2.182,-2.2052,-2.2132,-2.2132,-2.2043,-2.1963,-2.1963,-2.1963,-2.1919,-2.1741,-2.183,-2.1919,-2.1741,-2.1696,-2.1696,-2.1696,-2.141,-2.1177,-2.1177,-2.0348,-1.9749,-1.9749,-1.9201,-1.8788,-1.8788,-1.8788,-1.8603,-1.8141,-1.8095,-1.7697,-1.674,-1.7078,-1.7259,-1.7136,-1.6898,-1.6432,-1.5702,-1.5875,-1.5634,-1.4858,-1.4963,-1.4773,-1.4191,-1.4022,-1.3741,-1.3398,-1.3313,-1.3313,0.0,0.0,0.0,0.0,0.0,0.0,-2.4378,-2.3245,0.0,-2.1526,-2.1757,-2.1906,-2.1213,-2.1085,-2.1108,-2.1177,-2.0408,-1.9992,0.0,-2.1002,0.0,0.0,-2.5654,0.0,-2.6396,-2.7109,-2.7246,-2.6445,-2.6328,-2.6123,-2.5664,-2.5264,-2.4824,-2.4385,-2.4329,-2.3929,-2.3101,-2.3091,-2.3091,-2.3091,-2.3091,-2.3305,-2.3695,-2.3695,-2.3695,-2.3695,-2.3695,-2.3338,-2.275,-2.275,-2.2847,-2.2964,-2.2993,-2.2983,-2.2919,-2.293,-2.3203,-2.3578,-2.3145,-2.3074,-2.3084,-2.2594,-2.1462,-2.0382,-2.1266,-2.1571,-2.1597,-2.1696,-2.1696,-2.1696,-2.1696,-2.1696,-2.1696,-2.1597,-2.1597,-2.1597,-2.1508,-2.1508,-2.1508,-2.1508,-2.0808,-2.0204,-2.0204,-1.9338,-1.8696,-1.865,-1.8603,-1.8557,-1.8557,-1.8557,-1.8095,-1.6889,-1.6749,-1.6332,-1.5178,-1.6116,-1.6597,-1.6218,-1.5675,-1.5166,-1.4663,-1.5165,-1.5233,-1.4648,-1.4883,-1.479,-1.4205,-1.3672,-1.3412,-1.3412,-1.3199,-1.3114,-2.2805,0.0,-2.3839,-2.3704,-2.3401,-2.3018,0.0,-2.2459,-2.2049,0.0,0.0,0.0,-2.0864,-2.0798,-2.104,-2.1823,-2.1479,-2.1333,-2.1834,0.0,0.0,-2.5245,-2.6279,-2.6738,-2.6416,-2.6572,-2.6602,-2.6406,-2.5762,-2.538,-2.5234,-2.4805,-2.4375,-2.3945,-2.3754,-2.3448,-2.3101,-2.3091,-2.3013,-2.2882,-2.2882,-2.2807,-2.2717,-2.2717,-2.2717,-2.2717,-2.2717,-2.2659,-2.2485,-2.2485,-2.2489,-2.2567,-2.2934,-2.2777,-2.2311,-2.2084,-2.2465,-2.298,-2.2061,-2.1795,-2.1709,-2.0464,-1.9766,-1.9513,-1.9701,-2.0205,-2.0763,-2.1508,-2.1696,-2.1696,-2.1696,-2.1696,-2.1508,-2.0808,-2.0619,-2.0439,-1.9666,-1.9476,-1.9476,-1.9476,-1.9293,-1.9155,-1.9155,-1.8334,-1.7598,-1.7397,-1.6749,-1.6197,-1.6015,-1.5967,-1.5872,-1.5547,-1.5499,-1.541,-1.5131,-1.5345,-1.5463,-1.5397,-1.5227,-1.5091,-1.498,-1.5102,-1.5146,-1.4988,-1.4647,-1.4409,-1.4278,-1.3755,-1.346,-1.346,-1.3416,-1.3416,-2.125,-2.1854,-2.2389,-2.2389,-2.1901,-2.1474,0.0,0.0,0.0,0.0,0.0,0.0,0.0,0.0,-2.0283,-2.1477,-2.1178,0.0,0.0,0.0,-2.4261,-2.5538,-2.6093,-2.6416,0.0,-2.6287,-2.6062,-2.5664,-2.5054,-2.4659,-2.4457,-2.4042,-2.3705,-2.3483,-2.3147,-2.2936,-2.2969,-2.2828,-2.2706,-2.2618,-2.2618,-2.253,-2.2397,-2.2397,-2.2397,-2.2397,-2.2397,-2.2353,-2.222,-2.1748,-2.1635,-2.1699,-2.1476,-2.1202,-2.0833,-2.0686,-2.0933,-2.1199,-2.0409,-2.021,-2.013,-1.927,-1.8699,-1.8417,-1.8879,-1.8985,-1.9109,-2.0076,-2.0357,-2.0357,-2.0357,-2.0357,-2.0257,-1.9749,-1.9613,-1.9476,-1.8934,-1.8688,-1.8642,-1.8642,-1.8126,-1.7755,-1.7755,-1.6936,-1.6251,-1.6103,-1.5635,-1.5267,-1.5131,-1.5083,-1.5035,-1.4933,-1.4939,-1.4885,-1.4742,-1.4736,-1.4838,-1.5083,-1.5083,-1.5035,-1.4933,-1.4939,-1.4838,-1.4742,-1.4327,-1.4098,-1.4145,-1.3686,-1.3513,-1.3513,-1.3513,-1.3513,-2.0458,-2.1326,-2.2044,-2.2065,-2.1488,-2.0908,0.0,0.0,0.0,0.0,0.0,0.0,0.0,0.0,0.0,0.0,0.0,0.0,-2.3067,-2.3304,-2.3848,-2.5372,-2.5548,0.0,-2.5966,-2.5846,-2.5399,-2.4593,-2.4307,-2.3975,-2.3652,-2.3244,-2.2972,-2.2972,-2.2586,-2.2441,-2.2715,-2.2485,-2.2397,-2.2353,-2.2353,-2.2255,-2.2069,-2.2211,-2.2211,-2.2069,-2.2069,-2.1989,-2.1776,-2.0746,-2.0437,-2.0467,-1.9648,-1.9311,-1.928,-1.9186,-1.9257,-1.9351,-1.8831,-1.8721,-1.8706,-1.8474,-1.7852,-1.7305,-1.8179,-1.7776,-1.7178,-1.8056,-1.8557,-1.8788,-1.8742,-1.8742,-1.8696,-1.8511,-1.8465,-1.8419,-1.828,-1.8041,-1.7894,-1.7894,-1.7008,-1.6264,-1.6264,-1.5635,-1.5083,-1.5035,-1.5035,-1.5035,-1.4987,-1.4987,-1.4885,-1.464,-1.464,-1.4544,-1.4298,-1.4298,-1.449,-1.4939,-1.4987,-1.4885,-1.464,-1.464,-1.4544,-1.4298,-1.4081,-1.3966,-1.3966,-1.3743,-1.3634,-1.3634,-1.3634,-1.3588,-2.0311,-2.053,-2.048,-2.0595,-2.1635,-2.2205,-2.0594,0.0,0.0,0.0,0.0,0.0,0.0,-1.9656,-2.0425,0.0,0.0,-2.2847,0.0,0.0,-2.4279,-2.4785,0.0,-2.4773,-2.4174,-2.4402,-2.4355,-2.3908,-2.3501,-2.3282,-2.3216,-2.2763,-2.2492,-2.2492,-2.2258,-2.2185,-2.223,-2.2353,-2.2309,-2.2141,-2.2141,-2.1633,-2.0664,-2.1454,-2.1356,-2.0619,-2.0619,-2.0619,-2.0484,-1.9476,-1.9096,-1.9106,-1.896,-1.8867,-1.8814,-1.8271,-1.8607,-1.9288,-1.8348,-1.8234,-1.8282,-1.705,-1.6587,-1.649,-1.6635,-1.6259,-1.5825,-1.5961,-1.735,-1.8742,-1.8542,-1.8442,-1.8211,-1.7095,-1.6868,-1.664,-1.5825,-1.5642,-1.5594,-1.5594,-1.5452,-1.5309,-1.5309,-1.522,-1.5035,-1.479,-1.4736,-1.4694,-1.4442,-1.4442,-1.4394,-1.4394,-1.4346,-1.4346,-1.4298,-1.4298,-1.4346,-1.4442,-1.4442,-1.4394,-1.4346,-1.4346,-1.4346,-1.4298,-1.4256,-1.4238,-1.4238,-1.4195,-1.4177,-1.4177,-1.4177,-1.404,-1.9027,-1.9478,-1.9657,-1.939,-2.0095,-2.0665,-2.0046,0.0,0.0,0.0,0.0,0.0,0.0,0.0,-2.0555,-2.1137,0.0,-2.3479,-2.406,-2.4051,-2.4041,0.0,0.0,-2.4108,-2.3766,-2.3758,-2.3608,-2.3195,-2.2851,-2.2554,-2.234,-2.2145,-2.1998,-2.1998,-2.1919,-2.1874,-2.1874,-2.149,-2.149,-2.1874,-2.1365,-2.0853,-2.0294,-2.0167,-1.9894,-1.9476,-1.9476,-1.9476,-1.943,-1.8427,-1.7971,-1.7924,-1.7404,-1.7171,-1.7167,-1.7021,-1.7213,-1.741,-1.7118,-1.6967,-1.6732,-1.6072,-1.5855,-1.5856,-1.5706,-1.557,-1.5461,-1.5306,-1.6015,-1.6749,-1.6655,-1.6608,-1.6466,-1.5859,-1.5724,-1.5635,-1.5172,-1.4987,-1.4885,-1.4885,-1.479,-1.4688,-1.4688,-1.4688,-1.464,-1.4496,-1.449,-1.4448,-1.4298,-1.4298,-1.4298,-1.4298,-1.4298,-1.4298,-1.4298,-1.4298,-1.4298,-1.4298,-1.4298,-1.4298,-1.4298,-1.4298,-1.425,-1.407,-1.407,-1.4022,-1.3871,-1.3871,-1.3576,-1.3076,-1.3619,-1.3528,-1.7873,-1.8497,-1.8849,-1.8558,0.0,-1.9458,-1.9581,0.0,0.0,0.0,0.0,0.0,0.0,-2.0158,0.0,-2.2053,-2.2994,-2.3692,-2.3881,-2.373,-2.3664,-2.3739,-2.3598,-2.3504,-2.3401,-2.3205,-2.2889,-2.249,-2.2281,-2.2016,-2.1705,-2.1696,-2.1696,-2.1696,-2.1696,-2.1597,-2.1365,-2.0673,-2.0673,-2.1365,-2.0393,-1.984,-1.9567,-1.9018,-1.865,-1.8473,-1.8473,-1.8473,-1.838,-1.7365,-1.6951,-1.6857,-1.6062,-1.573,-1.577,-1.6069,-1.5989,-1.5777,-1.6027,-1.5789,-1.5404,-1.5404,-1.5409,-1.5356,-1.5147,-1.5225,-1.5341,-1.5063,-1.5034,-1.5103,-1.5019,-1.5032,-1.5063,-1.4952,-1.4885,-1.4885,-1.4885,-1.4742,-1.4592,-1.4592,-1.4442,-1.4298,-1.4298,-1.4298,-1.4298,-1.4298,-1.4298,-1.4298,-1.4298,-1.4298,-1.4298,-1.4202,-1.4208,-1.4154,-1.4106,-1.4106,-1.4106,-1.4106,-1.416,-1.4154,-1.4106,-1.4106,-1.4016,-1.3786,-1.3588,-1.334,-1.3141,-1.2894,-1.2398,-1.1653,-1.2398,-1.2349,-1.7719,-1.777,-1.769,-1.8276,-1.9596,0.0,-1.9563,-1.9597,0.0,-2.0091,0.0,0.0,0.0,-2.084,-2.1868,-2.3312,-2.342,-2.3597,-2.4342,0.0,-2.3597,-2.3838,-2.3323,-2.2795,-2.2456,-2.2364,-2.2208,-2.1805,-2.1733,-2.1723,-2.1696,-2.1696,-2.1696,-2.1696,-2.1696,-2.1275,-2.0393,-2.0348,-2.0348,-2.0393,-1.9384,-1.8427,-1.7559,-1.8427,-1.8288,-1.7419,-1.7419,-1.7419,-1.7326,-1.6298,-1.5927,-1.5879,-1.5635,-1.554,-1.5532,-1.5839,-1.5754,-1.5538,-1.5541,-1.536,-1.5131,-1.5131,-1.5143,-1.5108,-1.5089,-1.5128,-1.5084,-1.4816,-1.4912,-1.5032,-1.4776,-1.4922,-1.4949,-1.4503,-1.4346,-1.4346,-1.4346,-1.4346,-1.4346,-1.4346,-1.4298,-1.4298,-1.4298,-1.4298,-1.4298,-1.4298,-1.4298,-1.4298,-1.4298,-1.4298,-1.4208,-1.3979,-1.3931,-1.3835,-1.3588,-1.3539,-1.3539,-1.3539,-1.3786,-1.3835,-1.3588,-1.3539,-1.3539,-1.3539,-1.2597,-1.215,-1.2101,-1.1112,-1.0614,-1.0516,-1.0614,-1.0427,-1.6709,-1.7052,-1.7243,-1.763,0.0,0.0,0.0,0.0,0.0,0.0,-2.1267,0.0,0.0,0.0,-2.1875,-2.2704,-2.3176,-2.3524,-2.3818,-2.3639,-2.3354,-2.2935,-2.2704,-2.2355,-2.1952,-2.1916,-2.1851,-2.1705,-2.1696,-2.1577,-2.1355,-2.1346,-2.1083,-2.0457,-2.0457,-2.0004,-1.9048,-1.8499,-1.8182,-1.8182,-1.7957,-1.7645,-1.7279,-1.7037,-1.6716,-1.6393,-1.6393,-1.6393,-1.6346,-1.5825,-1.5588,-1.5588,-1.5356,-1.5267,-1.53,-1.5541,-1.5464,-1.5265,-1.5443,-1.5215,-1.4838,-1.4838,-1.486,-1.4826,-1.4647,-1.4851,-1.5045,-1.4783,-1.4994,-1.5228,-1.4795,-1.4783,-1.4783,-1.4582,-1.4425,-1.4298,-1.4298,-1.4298,-1.4298,-1.4298,-1.4298,-1.4298,-1.4298,-1.4298,-1.425,-1.407,-1.407,-1.3973,-1.3823,-1.3775,-1.3781,-1.3642,-1.3636,-1.3588,-1.3491,-1.2942,-1.25,-1.2355,-1.3147,-1.3588,-1.3491,-1.2894,-1.25,-1.2306,-1.1272,-1.0681,-1.0489,-1.0092,-0.9546,-0.8901,-0.9596,-0.9501,-1.5845,-1.6332,-1.6798,0.0,0.0,0.0,0.0,0.0,0.0,0.0,-2.2111,0.0,0.0,0.0,0.0,0.0,-2.2997,-2.3352,-2.348,-2.327,-2.2904,-2.2346,-2.2172,-2.1989,-2.1723,-2.1696,-2.1632,-2.1504,-2.1495,-2.1312,-2.0943,-2.0657,-2.0217,-1.9565,-1.9259,-1.8679,-1.7697,-1.7064,-1.6628,-1.6425,-1.6508,-1.6624,-1.6716,-1.6015,-1.5642,-1.5594,-1.5594,-1.5594,-1.5547,-1.5452,-1.5309,-1.5261,-1.5124,-1.5035,-1.5032,-1.5392,-1.5297,-1.499,-1.5306,-1.504,-1.4604,-1.4648,-1.4649,-1.4564,-1.4461,-1.4745,-1.5052,-1.4793,-1.5095,-1.5421,-1.5059,-1.4962,-1.492,-1.4757,-1.457,-1.4431,-1.4431,-1.4382,-1.4279,-1.4279,-1.4231,-1.4153,-1.4076,-1.4058,-1.3871,-1.3383,-1.3292,-1.3093,-1.2597,-1.2495,-1.25,-1.2408,-1.2311,-1.2257,-1.2257,-1.1614,-1.117,-1.0974,-1.1765,-1.2257,-1.2257,-1.1619,-1.117,-1.0979,-0.9895,-0.9258,-0.911,-0.8764,-0.8219,-0.7528,-0.8269,-0.8219,-1.5186,-1.5699,0.0,0.0,0.0,0.0,0.0,0.0,0.0,0.0,0.0,-2.2702,-2.2693,0.0,0.0,-2.3205,-2.3092,-2.3032,-2.3425,-2.2785,-2.2282,-2.2272,-2.1925,-2.1696,-2.1687,-2.1687,-2.1513,-2.1135,-2.1099,-2.0934,-2.0488,-1.9648,-1.917,-1.917,-1.8354,-1.7391,-1.6375,-1.6375,-1.6059,-1.5391,-1.5107,-1.5158,-1.5493,-1.5493,-1.5356,-1.5083,-1.5083,-1.5083,-1.5083,-1.5083,-1.4933,-1.4736,-1.4987,-1.4933,-1.4756,-1.5289,-1.5146,-1.472,-1.5014,-1.4745,-1.434,-1.4624,-1.4527,-1.4346,-1.4581,-1.4846,-1.5002,-1.4743,-1.505,-1.5447,-1.5447,-1.5447,-1.5321,-1.4847,-1.4721,-1.4721,-1.4671,-1.4467,-1.4263,-1.4263,-1.4059,-1.3781,-1.3536,-1.3491,-1.3141,-1.215,-1.1999,-1.1604,-1.0516,-1.0369,-1.0275,-0.9998,-0.9756,-0.9608,-0.9608,-0.9608,-0.9608,-0.9608,-0.9558,-0.9558,-0.9608,-0.9608,-0.9608,-0.9608,-0.8517,-0.7971,-0.7971,-0.693,-0.6387,-0.6387,-0.6387,-0.6387,-1.5527,-1.5939,0.0,-1.725,0.0,0.0,0.0,0.0,0.0,0.0,0.0,-2.2686,-2.2106,0.0,0.0,-2.2216,-2.2327,-2.2501,-2.262,-2.2428,-2.2181,-2.1897,-2.176,-2.1577,-2.1319,-2.1291,-2.1126,-2.0723,-2.0695,-2.0217,-1.9237,-1.8918,-1.8153,-1.6861,-1.6569,-1.5965,-1.5067,-1.4943,-1.4872,-1.4812,-1.4572,-1.4831,-1.5493,-1.5315,-1.5172,-1.5083,-1.5083,-1.5083,-1.5083,-1.4885,-1.464,-1.4442,-1.4496,-1.449,-1.446,-1.4619,-1.4576,-1.4418,-1.4528,-1.4431,-1.431,-1.4395,-1.387,-1.3184,-1.3262,-1.3075,-1.2761,-1.2695,-1.3002,-1.3296,-1.3081,-1.3022,-1.3385,-1.4665,-1.4814,-1.4373,-1.3275,-1.3629,-1.3752,-1.2008,-1.2279,-1.2513,-1.1596,-1.1358,-1.1161,-1.0681,-1.0583,-1.0386,-0.9895,-0.9846,-0.9801,-0.9706,-0.9657,-0.9608,-0.9608,-0.8913,-0.8467,-0.8467,-0.7773,-0.8024,-0.9558,-0.8863,-0.8467,-0.8467,-0.7428,-0.6883,-0.6883,-0.6534,-0.6387,-0.6387,-0.6387,-0.6387,-1.5447,-1.6057,0.0,-1.7649,-1.9121,-2.0613,-2.141,0.0,0.0,0.0,0.0,-2.2757,-2.2272,-2.2236,0.0,-2.1961,-2.2126,-2.2282,-2.2282,-2.2144,-2.1961,-2.1723,-2.1549,-2.1383,-2.1135,-2.0961,-2.0534,-1.9799,-1.9731,-1.9108,-1.7663,-1.7311,-1.6521,-1.5231,-1.4944,-1.4549,-1.4084,-1.3955,-1.401,-1.4282,-1.4059,-1.4249,-1.4886,-1.4927,-1.4885,-1.479,-1.479,-1.479,-1.479,-1.4592,-1.4442,-1.4298,-1.4298,-1.4298,-1.431,-1.4425,-1.4395,-1.4262,-1.3922,-1.3742,-1.363,-1.3333,-1.271,-1.2111,-1.21,-1.1882,-1.1639,-1.1526,-1.1657,-1.1873,-1.1842,-1.1693,-1.1935,-1.322,-1.3345,-1.2986,-1.1974,-1.2256,-1.2291,-1.0808,-1.1033,-1.1189,-1.033,-1.0174,-0.9925,-0.9316,-0.8863,-0.8538,-0.8407,-0.8357,-0.8319,-0.8319,-0.8319,-0.8319,-0.8319,-0.7726,-0.7378,-0.7378,-0.6783,-0.698,-0.8269,-0.7723,-0.7378,-0.7378,-0.6734,-0.6387,-0.6387,-0.6387,-0.6387,-0.6387,-0.6387,-0.6387,-1.5287,0.0,0.0,-1.8027,-1.9797,0.0,-2.2172,-2.294,-2.3581,-2.3972,0.0,-2.294,-2.2867,-2.2538,-2.2272,-2.2227,-2.2272,-2.2208,-2.2217,-2.1861,-2.1623,-2.1586,-2.1282,-2.1034,-2.1007,-2.0677,-1.9916,-1.8604,-1.8502,-1.772,-1.5927,-1.5195,-1.4619,-1.4168,-1.3573,-1.3313,-1.3353,-1.3385,-1.3489,-1.3761,-1.3542,-1.3609,-1.3855,-1.439,-1.447,-1.4226,-1.4226,-1.4238,-1.4262,-1.4262,-1.4274,-1.4298,-1.4298,-1.4244,-1.4184,-1.4465,-1.4338,-1.3889,-1.3144,-1.2724,-1.2424,-1.1736,-1.1286,-1.0986,-1.0997,-1.0999,-1.1014,-1.0724,-1.0758,-1.0852,-1.1071,-1.0928,-1.0676,-1.0722,-1.084,-1.0962,-1.0776,-1.0595,-1.041,-1.0107,-0.9998,-0.9804,-0.9387,-0.9403,-0.9097,-0.8012,-0.7051,-0.6441,-0.6605,-0.647,-0.6398,-0.6387,-0.6395,-0.6398,-0.6387,-0.6395,-0.6398,-0.6387,-0.6387,-0.6337,-0.6337,-0.6387,-0.6387,-0.6387,-0.6387,-0.6387,-0.6387,-0.6387,-0.6387,-0.6387,-0.6387,-0.6337,-1.6011,-1.6697,0.0,0.0,-2.1019,-2.2556,-2.273,-2.3151,-2.3334,-2.2832,-2.3041,-2.3169,-2.2529,-2.2346,-2.2181,-2.187,-2.1824,-2.1705,-2.141,-2.1291,-2.1126,-2.0814,-2.0695,-2.0479,-2.0177,-2.0067,-1.942,-1.8021,-1.7683,-1.6724,-1.4776,-1.4305,-1.3743,-1.2968,-1.3027,-1.3051,-1.3074,-1.3121,-1.3317,-1.3542,-1.3291,-1.3349,-1.361,-1.3726,-1.3728,-1.3682,-1.3682,-1.3797,-1.399,-1.399,-1.4111,-1.4298,-1.4298,-1.3806,-1.3055,-1.3309,-1.2745,-1.1834,-1.1546,-1.1335,-1.1126,-1.0766,-1.0116,-0.9435,-0.9333,-0.8922,-0.8403,-0.8285,-0.844,-0.8541,-0.8358,-0.8295,-0.8262,-0.7963,-0.9465,-1.0577,-0.9223,-0.9783,-0.9877,-0.7837,-0.8166,-0.8422,-0.74,-0.7175,-0.7101,-0.6924,-0.668,-0.6589,-0.6616,-0.6597,-0.6492,-0.6395,-0.647,-0.6489,-0.6395,-0.6473,-0.6438,-0.6097,-0.6092,-0.5989,-0.5787,-0.6187,-0.6387,-0.6387,-0.6387,-0.6387,-0.6387,-0.6387,-0.6289,-0.6092,-0.6092,-0.5989,-1.5941,0.0,0.0,-2.025,0.0,-2.2657,-2.2858,-2.3068,-2.3041,-2.241,-2.262,-2.2785,-2.2355,-2.2006,-2.1676,-2.1475,-2.1229,-2.1028,-2.0851,-2.0824,-2.075,-2.0497,-2.0221,-1.998,-1.9779,-1.9123,-1.822,-1.6984,-1.6237,-1.5135,-1.3414,-1.3172,-1.2785,-1.2093,-1.2434,-1.2641,-1.2649,-1.2831,-1.2991,-1.3126,-1.2959,-1.2994,-1.3133,-1.3393,-1.3513,-1.3513,-1.3513,-1.3592,-1.3673,-1.3246,-1.313,-1.3215,-1.285,-1.2321,-1.1732,-1.1969,-1.1498,-1.0748,-1.0196,-0.9942,-0.9743,-0.9099,-0.8571,-0.8184,-0.8005,-0.7679,-0.7366,-0.7197,-0.7316,-0.7414,-0.7254,-0.7203,-0.7205,-0.704,-0.8056,-0.8792,-0.7841,-0.8217,-0.8329,-0.6936,-0.717,-0.7331,-0.6722,-0.6564,-0.6586,-0.6766,-0.6744,-0.6728,-0.6787,-0.6744,-0.666,-0.6487,-0.6481,-0.6429,-0.6205,-0.6195,-0.6108,-0.5844,-0.5789,-0.5737,-0.5586,-0.5887,-0.6037,-0.6037,-0.6037,-0.6037,-0.6037,-0.6037,-0.5937,-0.5789,-0.5789,-0.5737,-1.5689,0.0,-1.8896,-2.0964,-2.1888,0.0,-2.2629,-2.2748,-2.2684,-2.2263,-2.2227,-2.2254,-2.219,-2.1667,-2.119,-2.1117,-2.0833,-2.0576,-2.0438,-2.0369,-2.03,-2.0236,-1.9637,-1.9199,-1.9177,-1.7889,-1.666,-1.5662,-1.4669,-1.3553,-1.223,-1.2129,-1.1863,-1.1423,-1.1921,-1.2166,-1.2174,-1.2481,-1.2638,-1.2638,-1.2681,-1.2705,-1.2723,-1.3169,-1.3375,-1.3375,-1.3375,-1.3309,-1.3125,-1.2331,-1.1893,-1.1763,-1.1064,-1.0583,-1.0284,-1.0546,-1.0324,-0.971,-0.8946,-0.86,-0.8315,-0.7385,-0.7128,-0.7235,-0.6958,-0.7001,-0.7056,-0.6829,-0.6874,-0.6986,-0.6986,-0.6923,-0.6883,-0.6967,-0.6986,-0.695,-0.6828,-0.682,-0.6823,-0.6779,-0.6687,-0.6627,-0.6646,-0.6649,-0.6725,-0.695,-0.688,-0.6844,-0.6913,-0.6824,-0.6658,-0.6507,-0.6395,-0.6267,-0.5989,-0.5865,-0.577,-0.5543,-0.5536,-0.5486,-0.5486,-0.5486,-0.5486,-0.5486,-0.5536,-0.5586,-0.5586,-0.5586,-0.5586,-0.5536,-0.5536,-0.5486,0.0,0.0,-1.9811,0.0,-2.1511,-2.2199,0.0,0.0,-2.2254,0.0,-2.2044,-2.2172,-2.1833,-2.1678,-2.1485,-2.1163,-2.1062,-2.0796,-2.0067,-1.9834,-1.9575,-1.9241,-1.8319,-1.7592,-1.7352,-1.6421,-1.531,-1.4008,-1.3557,-1.2839,-1.1666,-1.1591,-1.1457,-1.1178,-1.1661,-1.183,-1.1597,-1.2079,-1.2367,-1.2367,-1.2596,-1.2705,-1.2705,-1.2777,-1.2813,-1.2813,-1.2813,-1.2499,-1.1904,-1.1631,-1.1156,-1.0588,-1.0246,-0.9618,-0.8883,-0.9121,-0.8535,-0.76,-0.7397,-0.7202,-0.6989,-0.6637,-0.6622,-0.6702,-0.6544,-0.667,-0.6832,-0.6673,-0.6809,-0.6986,-0.6986,-0.7046,-0.7141,-0.7005,-0.6986,-0.695,-0.6828,-0.6885,-0.6899,-0.6684,-0.663,-0.6654,-0.676,-0.6779,-0.6825,-0.6964,-0.688,-0.6738,-0.6583,-0.6503,-0.6323,-0.6042,-0.6083,-0.6061,-0.5845,-0.5927,-0.5747,-0.5301,-0.524,-0.5138,-0.4935,-0.4885,-0.4885,-0.4885,-0.5386,-0.5586,-0.5586,-0.5586,-0.5486,-0.524,-0.524,-0.5138,-1.6807,-1.7889,-1.9024,0.0,-2.0576,-2.1284,-2.133,0.0,-2.1897,-2.1733,-2.1833,-2.1897,-2.1723,-2.1415,-2.1045,-2.068,-2.0289,-1.9862,-1.9313,-1.9151,-1.9039,-1.8829,-1.7861,-1.7049,-1.6807,-1.541,-1.4245,-1.3476,-1.2824,-1.225,-1.1751,-1.1712,-1.1585,-1.1315,-1.1682,-1.1826,-1.1712,-1.2125,-1.2391,-1.2536,-1.265,-1.2357,-1.174,-1.174,-1.1789,-1.1929,-1.1789,-1.1283,-1.046,-0.9712,-0.9229,-0.8906,-0.8375,-0.782,-0.7365,-0.7619,-0.7288,-0.6717,-0.6814,-0.6695,-0.6539,-0.6437,-0.6468,-0.6608,-0.6554,-0.6662,-0.679,-0.6738,-0.685,-0.697,-0.6902,-0.6972,-0.7029,-0.691,-0.6934,-0.6972,-0.6915,-0.6839,-0.6749,-0.6641,-0.6673,-0.6686,-0.6585,-0.6592,-0.6596,-0.6487,-0.6508,-0.6478,-0.6416,-0.6384,-0.6275,-0.6051,-0.5975,-0.582,-0.5615,-0.5527,-0.5344,-0.5,-0.4987,-0.4937,-0.4784,-0.4784,-0.4784,-0.4784,-0.5035,-0.5135,-0.5135,-0.5135,-0.5085,-0.4987,-0.4987,-0.4937,0.0,0.0,-1.8228,-1.8861,-1.9696,-2.0448,0.0,0.0,-2.1452,0.0,-2.1452,-2.1407,-2.1407,-2.1074,-2.0616,-2.0036,-1.9537,-1.9085,-1.8754,-1.8451,-1.8282,-1.8282,-1.7001,-1.6065,-1.5795,-1.4189,-1.3041,-1.2746,-1.2101,-1.1715,-1.1715,-1.1848,-1.1769,-1.1399,-1.1706,-1.189,-1.1784,-1.2149,-1.2272,-1.2266,-1.2266,-1.1655,-1.0519,-1.0519,-1.0481,-1.0404,-1.0481,-1.0005,-0.9056,-0.8097,-0.7573,-0.7319,-0.668,-0.6356,-0.6267,-0.6546,-0.6481,-0.6336,-0.6513,-0.6462,-0.6387,-0.6387,-0.6449,-0.6573,-0.6573,-0.666,-0.6763,-0.6793,-0.6891,-0.6972,-0.6907,-0.6959,-0.7005,-0.6912,-0.6915,-0.6956,-0.7016,-0.6808,-0.6563,-0.6592,-0.6648,-0.6592,-0.6412,-0.6428,-0.6369,-0.6155,-0.6201,-0.6243,-0.6158,-0.6137,-0.6047,-0.5941,-0.5782,-0.5617,-0.5378,-0.5189,-0.5041,-0.4879,-0.4796,-0.4784,-0.4784,-0.4784,-0.4784,-0.4784,-0.4784,-0.4784,-0.4784,-0.4784,-0.4784,-0.4784,-0.4784,-0.4784,0.0,-1.7194,0.0,-1.8136,0.0,0.0,0.0,0.0,-2.0849,-2.0849,-2.0684,-2.0561,-2.0561,-2.0709,-2.0483,-1.9511,-1.9318,-1.9176,-1.8754,-1.7781,-1.7074,-1.7074,-1.5198,-1.377,-1.351,-1.2336,-1.1494,-1.1247,-1.1154,-1.1154,-1.1154,-1.1603,-1.1679,-1.1148,-1.1648,-1.176,-1.1513,-1.2059,-1.1889,-1.109,-1.109,-1.0476,-0.93,-0.93,-0.8825,-0.8049,-0.8913,-0.8782,-0.7878,-0.7617,-0.7007,-0.6171,-0.5872,-0.588,-0.6125,-0.6144,-0.6241,-0.6379,-0.6392,-0.6392,-0.6387,-0.6387,-0.6389,-0.6395,-0.6395,-0.6481,-0.6654,-0.6771,-0.6891,-0.701,-0.7163,-0.7196,-0.7199,-0.7193,-0.697,-0.6872,-0.7152,-0.6827,-0.6557,-0.6667,-0.6389,-0.6193,-0.6296,-0.6318,-0.6323,-0.6267,-0.6184,-0.6048,-0.5866,-0.574,-0.5608,-0.5477,-0.5435,-0.5341,-0.5239,-0.5155,-0.5067,-0.4971,-0.4883,-0.4784,-0.4784,-0.4784,-0.4784,-0.4784,-0.4784,-0.4784,-0.4784,-0.4784,-0.4784,-0.4784,-0.4784,-0.4784,0.0,0.0,0.0,-1.6739,-1.7249,-1.7874,-1.8619,-1.9331,-1.9853,-1.9853,-1.9965,-1.9986,-1.962,-1.9761,-1.9795,-1.9199,-1.897,-1.8715,-1.8302,-1.7249,-1.6533,-1.6533,-1.4714,-1.3345,-1.3074,-1.2119,-1.1375,-1.1135,-1.1242,-1.1339,-1.1339,-1.1884,-1.1926,-1.1363,-1.1896,-1.2125,-1.1994,-1.1552,-1.1177,-1.0874,-1.0048,-0.9087,-0.7971,-0.7971,-0.7429,-0.6479,-0.6827,-0.6871,-0.6697,-0.6435,-0.6127,-0.5822,-0.5733,-0.5831,-0.5977,-0.6056,-0.6189,-0.6339,-0.6363,-0.6387,-0.6387,-0.6387,-0.6387,-0.6387,-0.6387,-0.647,-0.663,-0.6673,-0.6774,-0.6877,-0.6918,-0.682,-0.673,-0.6644,-0.6491,-0.6202,-0.5618,-0.5798,-0.6148,-0.6312,-0.6196,-0.6094,-0.5975,-0.5991,-0.5935,-0.5772,-0.5686,-0.562,-0.5543,-0.5518,-0.5454,-0.5377,-0.5382,-0.532,-0.5169,-0.5126,-0.5045,-0.4894,-0.4802,-0.4784,-0.4784,-0.4784,-0.4481,-0.3776,-0.3776,-0.413,-0.4784,-0.4784,-0.4784,-0.4784,-0.4784,-0.4784,0.0,0.0,0.0,0.0,0.0,-1.607,-1.7144,0.0,-1.8447,-1.8756,-1.9056,-1.9132,-1.8591,-1.8672,-1.8802,-1.8689,-1.8285,-1.7845,-1.7485,-1.6253,-1.538,-1.5313,-1.3766,-1.2616,-1.2453,-1.1782,-1.1273,-1.1123,-1.1286,-1.1351,-1.1351,-1.185,-1.2024,-1.176,-1.205,-1.2017,-1.1676,-1.104,-1.0363,-0.9615,-0.8833,-0.7858,-0.677,-0.677,-0.6393,-0.5688,-0.5688,-0.5819,-0.5952,-0.5777,-0.5688,-0.5688,-0.5688,-0.5828,-0.5975,-0.6056,-0.6187,-0.6336,-0.641,-0.6387,-0.6387,-0.6387,-0.6387,-0.6392,-0.6435,-0.6476,-0.6575,-0.6657,-0.6659,-0.6595,-0.6632,-0.6241,-0.563,-0.5145,-0.4917,-0.4572,-0.3875,-0.4542,-0.5156,-0.483,-0.4731,-0.4639,-0.4468,-0.4477,-0.4421,-0.4201,-0.4201,-0.4201,-0.4201,-0.4201,-0.4201,-0.4201,-0.4201,-0.4163,-0.4013,-0.3983,-0.3876,-0.3785,-0.3704,-0.3692,-0.3692,-0.3721,-0.3404,-0.2694,-0.2678,-0.3022,-0.3726,-0.3726,-0.3726,-0.3726,-0.3726,-0.3726,0.0,0.0,0.0,0.0,0.0,0.0,-1.5561,0.0,-1.6733,-1.7519,-1.778,-1.7806,-1.7478,-1.741,-1.753,-1.7857,-1.7212,-1.6588,-1.6293,-1.4761,-1.3575,-1.3325,-1.222,-1.1477,-1.1477,-1.1236,-1.1111,-1.1111,-1.1111,-1.1111,-1.1111,-1.1579,-1.2,-1.2271,-1.207,-1.1441,-1.0414,-1.0473,-0.9418,-0.7293,-0.7403,-0.682,-0.5683,-0.5683,-0.5686,-0.5688,-0.5688,-0.5688,-0.5688,-0.5688,-0.5688,-0.5688,-0.5688,-0.5877,-0.6086,-0.6086,-0.6236,-0.6387,-0.6387,-0.6387,-0.6387,-0.6387,-0.6387,-0.6408,-0.6578,-0.6478,-0.6435,-0.6728,-0.6451,-0.613,-0.6238,-0.5268,-0.3921,-0.278,-0.2319,-0.217,-0.2083,-0.2987,-0.3525,-0.2403,-0.1958,-0.1791,-0.1791,-0.1791,-0.1791,-0.1791,-0.1791,-0.1791,-0.1791,-0.1791,-0.1791,-0.1791,-0.1791,-0.1791,-0.179,-0.1763,-0.1691,-0.169,-0.1556,-0.1488,-0.1487,-0.1566,-0.1603,-0.1551,-0.1576,-0.1513,-0.1513,-0.1563,-0.1613,-0.1613,-0.1613,-0.1563,-1.352,0.0,0.0,0.0,0.0,0.0,0.0,0.0,-1.4775,-1.5018,-1.532,-1.5521,-1.5428,-1.5413,-1.5444,-1.5537,-1.5779,-1.574,-1.5148,-1.3959,-1.3101,-1.302,-1.1955,-1.1226,-1.1226,-1.1154,-1.1111,-1.1111,-1.1111,-1.1111,-1.1111,-1.1295,-1.1692,-1.2367,-1.1262,-1.0669,-1.0556,-0.8986,-0.7885,-0.7289,-0.642,-0.5812,-0.5559,-0.5559,-0.5605,-0.5688,-0.5688,-0.5688,-0.5688,-0.5688,-0.5688,-0.5688,-0.5688,-0.5877,-0.6086,-0.6086,-0.6236,-0.6387,-0.6387,-0.6387,-0.6387,-0.6387,-0.6387,-0.6392,-0.6427,-0.6316,-0.6171,-0.6321,-0.5504,-0.4393,-0.353,-0.3066,-0.2732,-0.2105,-0.1952,-0.1677,-0.078,-0.0838,-0.1288,-0.1791,-0.1847,-0.1791,-0.1791,-0.1791,-0.1791,-0.1791,-0.1791,-0.1791,-0.1791,-0.1791,-0.1791,-0.1791,-0.1791,-0.1782,-0.1706,-0.1696,-0.1683,-0.1554,-0.1545,-0.1532,-0.1564,-0.1608,-0.1234,-0.0457,-0.0455,-0.005,0.0707,-0.0857,-0.1613,-0.1613,-0.1613,-0.1159,0.0,0.0,0.0,0.0,0.0,0.0,-1.2806,-1.313,-1.3376,0.0,-1.4072,-1.4294,-1.4154,-1.4281,-1.4172,-1.3737,-1.4011,-1.4207,-1.3925,-1.2993,-1.2273,-1.2144,-1.154,-1.1111,-1.1111,-1.1111,-1.1111,-1.1111,-1.1111,-1.117,-1.1284,-1.1255,-1.1566,-1.2223,-1.0931,-1.0103,-0.979,-0.8088,-0.6973,-0.6527,-0.5869,-0.5559,-0.5583,-0.5583,-0.5621,-0.5688,-0.5688,-0.5688,-0.5688,-0.5688,-0.5688,-0.5688,-0.5688,-0.5847,-0.6015,-0.6067,-0.6206,-0.6374,-0.6371,-0.6387,-0.6387,-0.6387,-0.6337,-0.6247,-0.6297,-0.5754,-0.5213,-0.5311,-0.4257,-0.2799,-0.1494,-0.1246,-0.115,-0.0446,-0.028,-0.0112,0.0617,0.0729,0.0561,-0.0168,-0.028,-0.028,-0.028,-0.028,-0.028,-0.028,-0.028,-0.028,-0.028,-0.028,-0.028,-0.028,-0.028,-0.0279,-0.0221,-0.0221,-0.022,-0.0109,-0.0108,-0.0161,-0.0161,-0.021,0.0052,0.0722,0.0661,0.0959,0.1617,0.0353,-0.0252,-0.0252,-0.0252,0.005,0.0,0.0,0.0,0.0,0.0,0.0,-1.2016,-1.2177,-1.2412,0.0,-1.3467,-1.3582,-1.3294,-1.3474,-1.3351,-1.2338,-1.215,-1.2273,-1.2639,-1.1967,-1.1357,-1.1141,-1.1111,-1.1111,-1.1111,-1.1111,-1.1123,-1.1154,-1.1146,-1.1272,-1.1577,-1.1404,-1.1458,-1.1806,-1.0684,-0.9593,-0.8556,-0.7461,-0.6461,-0.5529,-0.5637,-0.5688,-0.5688,-0.5688,-0.5688,-0.5688,-0.5688,-0.5688,-0.5688,-0.5688,-0.5688,-0.5688,-0.5688,-0.5812,-0.5937,-0.6045,-0.617,-0.6301,-0.6352,-0.6337,-0.6337,-0.6337,-0.6089,-0.5809,-0.5906,-0.4951,-0.3778,-0.3743,-0.2759,-0.1387,-0.0054,0.0273,0.0549,0.156,0.1793,0.1795,0.1795,0.1795,0.1795,0.1795,0.1795,0.1795,0.1795,0.1795,0.1795,0.1795,0.1795,0.1795,0.1795,0.1795,0.1795,0.1795,0.1795,0.1795,0.1795,0.1795,0.1795,0.1795,0.1825,0.1821,0.1789,0.1711,0.1677,0.1699,0.1645,0.1617,0.1617,0.1617,0.1617,0.1617,0.1617,0.1617,0.0,0.0,0.0,0.0,0.0,0.0,-1.1396,-1.1513,-1.165,0.0,-1.1633,-1.1652,-1.1595,-1.1633,-1.1577,-1.1378,-1.1335,-1.1353,-1.144,-1.1302,-1.1172,-1.1117,-1.1111,-1.1111,-1.1111,-1.1111,-1.1208,-1.1393,-1.1453,-1.1542,-1.1599,-1.141,-1.1084,-1.0636,-0.9462,-0.8396,-0.7402,-0.6467,-0.5852,-0.5653,-0.5677,-0.5688,-0.5688,-0.5688,-0.5688,-0.5688,-0.5688,-0.5688,-0.5688,-0.5688,-0.5688,-0.5688,-0.5688,-0.5863,-0.6053,-0.6078,-0.6219,-0.6357,-0.6134,-0.6092,-0.6039,-0.5837,-0.5131,-0.4379,-0.4396,-0.349,-0.2184,-0.1139,-0.0631,-0.016,0.1069,0.1406,0.1532,0.1757,0.1777,0.1795,0.1795,0.1795,0.1795,0.1795,0.1795,0.1795,0.1795,0.1795,0.1795,0.1795,0.1795,0.1795,0.1795,0.1795,0.1795,0.1795,0.1795,0.1795,0.1795,0.1795,0.1795,0.1795,0.1789,0.1778,0.1814,0.1718,0.1688,0.1723,0.1635,0.1617,0.1617,0.1617,0.1617,0.1617,0.1617,0.1617,0.0,0.0,0.0,-1.1718,0.0,0.0,0.0,-1.1285,-1.1285,-1.1285,-1.1208,-1.1154,-1.1254,-1.1208,-1.1111,-1.1111,-1.1111,-1.1111,-1.1111,-1.1111,-1.1111,-1.1111,-1.1111,-1.1111,-1.1111,-1.0999,-1.1006,-1.12,-1.1145,-1.1215,-1.146,-1.0805,-1.0319,-1.0111,-0.8584,-0.758,-0.7095,-0.6174,-0.5688,-0.5688,-0.5688,-0.5688,-0.5688,-0.5688,-0.5688,-0.5688,-0.5688,-0.5688,-0.5688,-0.5688,-0.5688,-0.5688,-0.5688,-0.5841,-0.6002,-0.6064,-0.6101,-0.616,-0.6022,-0.5889,-0.5689,-0.5031,-0.4329,-0.3725,-0.3169,-0.2039,-0.0676,0.0529,0.0863,0.0982,0.1568,0.175,0.1823,0.1808,0.1773,0.1795,0.1795,0.1795,0.1795,0.1795,0.1795,0.1795,0.1795,0.1795,0.1795,0.1795,0.1795,0.1795,0.1795,0.1795,0.1795,0.1795,0.1795,0.1795,0.1795,0.1795,0.1795,0.1795,0.178,0.1821,0.1805,0.176,0.1669,0.164,0.1624,0.1617,0.1617,0.1617,0.1617,0.1617,0.1617,0.1617,0.0,0.0,0.0,0.0,0.0,-1.1615,0.0,0.0,0.0,-1.1375,-1.123,-1.114,0.0,0.0,0.0,-1.0868,0.0,0.0,0.0,-1.0934,0.0,-1.1037,-1.1037,-1.1037,-1.0999,-1.0897,-1.0831,-1.0857,-1.0768,-1.0785,-1.0955,-1.0127,-0.9548,-0.9371,-0.7885,-0.7007,-0.6833,-0.6086,-0.5688,-0.5688,-0.5688,-0.5688,-0.5688,-0.5688,-0.5688,-0.5688,-0.5688,-0.5688,-0.5688,-0.5688,-0.5688,-0.5644,-0.5688,-0.5772,-0.5858,-0.6004,-0.5936,-0.5819,-0.561,-0.5386,-0.5033,-0.3925,-0.3272,-0.2719,-0.1611,-0.0516,0.0585,0.151,0.1755,0.177,0.1795,0.1814,0.1778,0.1803,0.1764,0.1788,0.1793,0.1791,0.1788,0.1794,0.1795,0.1795,0.1795,0.1795,0.1795,0.1795,0.1795,0.1795,0.1795,0.1795,0.1795,0.1795,0.1795,0.1795,0.1795,0.1795,0.1795,0.1795,0.1828,0.1811,0.1804,0.1746,0.1648,0.1618,0.1617,0.1617,0.1617,0.1617,0.1617,0.1617,0.1617,0.1617,0.0,0.0,0.0,0.0,-1.2246,0.0,0.0,0.0,-1.1381,-1.1208,0.0,-1.1049,0.0,0.0,0.0,0.0,0.0,0.0,-1.0001,-1.0317,-1.0625,-1.0812,-1.0812,-1.0775,-1.0588,-1.0768,-1.0806,-1.064,-1.0994,-1.0793,-0.983,-0.9847,-0.9131,-0.7492,-0.7228,-0.67,-0.5863,-0.5733,-0.5688,-0.5688,-0.5688,-0.5688,-0.5688,-0.5688,-0.5688,-0.5688,-0.5688,-0.5688,-0.5688,-0.5688,-0.5599,-0.5463,-0.5644,-0.5689,-0.5742,-0.5755,-0.5695,-0.547,-0.4277,-0.383,-0.3627,-0.2318,-0.1209,-0.0202,0.0858,0.1332,0.1564,0.1671,0.1692,0.1708,0.1732,0.1766,0.1802,0.1716,0.1733,0.1817,0.1789,0.1774,0.1818,0.179,0.1795,0.1795,0.1795,0.1795,0.1795,0.1795,0.1795,0.1795,0.1795,0.1795,0.1795,0.1795,0.1795,0.1795,0.1795,0.1795,0.1795,0.1795,0.1792,0.1778,0.1805,0.1746,0.1648,0.1618,0.1617,0.1617,0.1617,0.1617,0.1617,0.1617,0.1617,0.1617,0.0,0.0,0.0,0.0,0.0,0.0,-1.2035,0.0,-1.1724,0.0,0.0,0.0,0.0,0.0,0.0,0.0,-1.0381,-1.0444,0.0,0.0,-1.0513,-1.0625,0.0,0.0,-1.0368,-1.0432,-1.028,-0.9753,-0.9933,-0.9746,-0.8945,-0.8486,-0.7929,-0.7139,-0.6567,-0.6086,-0.5688,-0.5688,-0.5688,-0.5688,-0.5688,-0.5688,-0.5688,-0.5688,-0.5688,-0.5688,-0.5688,-0.5644,-0.5508,-0.5508,-0.5371,-0.5191,-0.528,-0.5372,-0.5377,-0.4757,-0.4502,-0.4309,-0.312,-0.2626,-0.2284,-0.1054,0.005,0.1011,0.1535,0.1664,0.1686,0.1686,0.172,0.1746,0.1699,0.1731,0.1764,0.1716,0.1727,0.1808,0.1821,0.1814,0.1814,0.1789,0.1795,0.1795,0.1795,0.1795,0.1795,0.1795,0.1795,0.1795,0.1795,0.1795,0.1795,0.1795,0.1779,0.1776,0.1793,0.1779,0.1776,0.1794,0.1778,0.1818,0.1805,0.1762,0.1673,0.1643,0.1643,0.1635,0.1617,0.1635,0.1643,0.1643,0.1625,0.1617,-1.2705,0.0,0.0,0.0,0.0,0.0,0.0,0.0,0.0,0.0,0.0,0.0,0.0,0.0,0.0,0.0,0.0,-1.028,0.0,-1.0247,0.0,0.0,0.0,0.0,-1.0143,-0.9916,-0.9563,-0.9028,-0.8875,-0.8541,-0.7934,-0.7382,-0.6967,-0.6745,-0.6041,-0.5688,-0.5688,-0.5688,-0.5688,-0.5688,-0.5688,-0.5688,-0.5688,-0.5688,-0.5688,-0.5599,-0.5599,-0.5508,-0.528,-0.528,-0.5146,-0.4877,-0.4607,-0.4574,-0.4577,-0.3868,-0.344,-0.3012,-0.1942,-0.1219,-0.0639,0.015,0.0959,0.1622,0.1705,0.1682,0.1704,0.1704,0.1742,0.177,0.1718,0.1743,0.1771,0.1727,0.1727,0.1796,0.1814,0.1804,0.1803,0.1787,0.1795,0.1795,0.1795,0.1795,0.1795,0.1795,0.1795,0.1795,0.1795,0.1795,0.1795,0.1795,0.1775,0.1826,0.1793,0.1775,0.1827,0.1793,0.1821,0.1804,0.1804,0.172,0.1691,0.1715,0.1714,0.1652,0.1629,0.1652,0.1714,0.1714,0.1647,0.1641,0.0,-1.2705,-1.2705,-1.2705,-1.2506,-1.2312,0.0,0.0,-1.1846,0.0,0.0,0.0,0.0,0.0,0.0,0.0,0.0,0.0,0.0,0.0,0.0,0.0,0.0,0.0,0.0,-0.9198,-0.8742,-0.8713,-0.816,-0.75,-0.6681,-0.688,-0.6604,-0.5774,-0.5733,-0.5688,-0.5688,-0.5688,-0.5688,-0.5688,-0.5688,-0.5688,-0.5688,-0.5688,-0.5599,-0.5416,-0.5416,-0.528,-0.501,-0.501,-0.4879,-0.4614,-0.3623,-0.3175,-0.3099,-0.3325,-0.2713,-0.1619,-0.0524,0.0579,0.1477,0.1556,0.1566,0.1622,0.1705,0.1682,0.1704,0.1704,0.1727,0.1798,0.1712,0.1727,0.1805,0.1803,0.1727,0.1722,0.178,0.1747,0.1723,0.1783,0.1795,0.1795,0.1795,0.1795,0.1795,0.1795,0.1795,0.1795,0.1795,0.1795,0.1795,0.1795,0.1794,0.1794,0.1795,0.1794,0.1794,0.1795,0.1821,0.1804,0.1804,0.172,0.1691,0.1715,0.1714,0.1714,0.1713,0.1714,0.1714,0.1715,0.1689,0.1701,-1.2705,-1.2705,-1.2705,-1.2705,-1.2638,-1.2572,-1.2572,-1.2499,0.0,0.0,0.0,0.0,0.0,0.0,0.0,0.0,0.0,0.0,0.0,0.0,-0.8342,0.0,0.0,0.0,0.0,-0.8075,-0.7659,-0.7084,-0.6931,-0.6573,-0.5853,-0.5947,-0.5909,-0.5686,-0.5688,-0.5688,-0.5688,-0.5688,-0.5688,-0.5688,-0.5688,-0.5688,-0.5688,-0.5552,-0.5463,-0.5371,-0.5191,-0.5013,-0.4792,-0.4792,-0.4659,-0.4344,-0.3358,-0.2562,-0.1857,-0.1332,-0.0928,-0.0468,0.0569,0.1197,0.155,0.16,0.1617,0.1622,0.1705,0.1682,0.1704,0.1704,0.174,0.1773,0.1797,0.1757,0.1774,0.1809,0.1796,0.1794,0.1816,0.1804,0.1746,0.1787,0.1795,0.1795,0.1795,0.1795,0.1795,0.1795,0.1795,0.1795,0.1795,0.1795,0.1795,0.1795,0.1777,0.1773,0.1793,0.1795,0.1795,0.1795,0.1785,0.178,0.178,0.1805,0.1784,0.1774,0.1735,0.1724,0.169,0.169,0.169,0.169,0.172,0.1767,-1.2705,-1.2705,-1.2705,-1.2705,-1.2705,-1.2705,-1.2705,-1.2705,-1.2619,0.0,0.0,0.0,0.0,0.0,0.0,0.0,0.0,0.0,0.0,-0.7812,0.0,-0.708,0.0,0.0,0.0,-0.7234,-0.6815,-0.624,-0.6022,-0.5761,-0.5402,-0.5442,-0.5518,-0.5683,-0.5688,-0.5688,-0.5688,-0.5688,-0.5688,-0.5688,-0.5688,-0.5644,-0.5597,-0.5463,-0.5327,-0.5151,-0.4968,-0.4746,-0.4525,-0.4212,-0.3942,-0.3673,-0.2373,-0.1478,-0.0807,-0.0228,0.0184,0.0557,0.1289,0.1542,0.1551,0.16,0.1617,0.1622,0.1705,0.1675,0.1691,0.1701,0.1733,0.1761,0.1807,0.1819,0.1776,0.1823,0.1804,0.1794,0.1816,0.1804,0.1746,0.1787,0.1795,0.1795,0.1795,0.1795,0.1795,0.1795,0.1795,0.1795,0.1795,0.1795,0.1795,0.1795,0.1778,0.1774,0.1793,0.1795,0.1795,0.1795,0.1795,0.1795,0.1795,0.1887,0.1871,0.1804,0.1873,0.1856,0.1864,0.1876,0.1923,0.2006,0.2055,0.204]},{"header":{"parameterUnit":"m.s-1","parameterCategory":1,"la1":30.6,"la2":29.2853,"lo1":-89.7004,"lo2":-87.6739,"dy":0.0162,"dx":0.0183,"nx":112,"ny":82,"refTime":"2023-09-17T00:00:00:Z","depth":0,"parameterNumber":3,"parameterNumberName":"V-component_of_WINDS"},"data":[0.0,0.0,0.0,0.0,0.0,0.0,0.0,0.0,0.0,0.0,0.0,0.0,0.0,0.0,0.0,0.0,0.0,0.0,0.0,0.0,0.0,0.0,0.0,0.0,0.0,0.0,0.0,0.0,0.0,0.0,0.0,0.0,0.0,0.0,0.0,0.0,0.0,0.0,0.0,0.0,0.0,0.0,0.0,0.0,0.0,0.0,0.0,0.0,0.0,0.0,0.0,0.0,0.0,0.0,0.0,0.0,0.0,0.0,0.0,0.0,0.0,0.0,0.0,0.0,0.0,0.0,0.0,0.0,0.0,0.0,0.0,0.0,0.0,0.0,0.0,0.0,0.0,0.0,0.0,0.0,0.0,0.0,0.0,0.0,0.0,0.0,0.0,0.0,0.0,0.0,1.4035,1.5346,1.6346,1.7246,1.8136,1.7811,1.7061,1.5852,0.0,0.0,0.0,0.0,0.0,0.0,0.0,0.0,0.0,0.0,0.0,0.0,0.0,0.0,0.0,0.0,0.0,0.0,0.0,0.0,0.0,0.0,0.0,0.0,0.0,0.0,0.0,0.0,0.0,0.0,0.0,0.0,0.0,0.0,0.0,0.0,0.0,0.0,0.0,0.0,0.0,0.0,0.0,0.0,0.0,0.0,0.0,0.0,0.0,0.0,0.0,0.0,0.0,0.0,0.0,0.0,0.0,0.0,0.0,0.0,0.0,0.0,0.0,0.0,0.0,0.0,0.0,0.0,0.0,0.0,0.0,0.0,0.0,0.0,0.0,0.0,0.0,0.0,0.0,0.0,0.0,0.0,0.0,0.0,0.0,0.0,0.0,0.0,0.0,0.0,0.0,0.0,0.0,0.0,0.0,0.0,0.0,0.0,0.0,0.0,0.0,0.0,0.0,0.0,1.5216,1.7086,1.7052,1.7135,1.7674,1.7033,1.6364,1.5759,0.0,0.0,0.0,0.0,0.0,0.0,0.0,0.0,0.0,0.0,0.0,0.0,0.0,0.0,0.0,0.0,0.0,0.0,0.0,0.0,0.0,0.0,0.0,0.0,0.0,0.0,0.0,0.0,0.0,0.0,0.0,0.0,0.0,0.0,0.0,0.0,0.0,0.0,0.0,0.0,0.0,0.0,0.0,0.0,0.0,0.0,0.0,0.0,0.0,0.0,0.0,0.0,0.0,0.0,0.0,0.0,0.0,0.0,0.0,0.0,0.0,0.0,0.0,0.0,0.0,0.0,0.0,0.0,0.0,0.0,0.0,0.0,0.0,0.0,0.0,0.0,0.0,0.0,0.0,0.0,0.0,0.0,0.0,0.0,0.0,0.0,0.0,0.0,0.0,0.0,0.0,0.0,0.0,0.0,0.0,0.0,0.0,0.0,0.0,0.0,0.0,0.0,0.0,1.4957,1.6148,1.83,1.8081,1.8164,1.9193,1.8019,1.7042,1.658,1.6304,0.0,0.0,0.0,0.0,0.0,0.0,0.0,0.0,0.0,0.0,0.0,0.0,0.0,0.0,0.0,0.0,0.0,0.0,0.0,0.0,0.0,0.0,0.0,0.0,0.0,0.0,0.0,0.0,0.0,0.0,0.0,0.0,0.0,0.0,0.0,0.0,0.0,0.0,0.0,0.0,0.0,0.0,0.0,0.0,0.0,0.0,0.0,0.0,0.0,0.0,0.0,0.0,0.0,0.0,0.0,0.0,0.0,0.0,0.0,0.0,0.0,0.0,0.0,0.0,0.0,0.0,0.0,0.0,0.0,0.0,0.0,0.0,0.0,0.0,0.0,0.0,0.0,0.0,0.0,0.0,0.0,0.0,0.0,0.0,0.0,0.0,0.0,0.0,0.0,0.0,0.0,0.0,0.0,0.0,0.0,0.0,0.0,0.0,0.0,0.0,0.0,0.0,1.635,1.7471,1.9263,1.9131,1.9276,2.0173,1.8786,1.7643,1.7104,1.6157,0.0,0.0,0.0,0.0,0.0,0.0,0.0,0.0,0.0,0.0,0.0,0.0,0.0,0.0,0.0,0.0,0.0,0.0,0.0,0.0,0.0,0.0,0.0,0.0,0.0,0.0,0.0,0.0,0.0,0.0,0.0,0.0,0.0,0.0,0.0,0.0,0.0,0.0,0.0,0.0,0.0,0.0,0.0,0.0,0.0,0.0,0.0,0.0,0.0,0.0,0.0,0.0,0.0,0.0,0.0,0.0,0.0,0.0,0.0,0.0,0.0,0.0,0.0,0.0,0.0,0.0,0.0,0.0,0.0,0.0,0.0,0.0,0.0,0.0,0.0,0.0,0.0,0.0,0.0,0.0,0.0,0.0,0.0,0.0,0.0,0.0,0.0,0.0,0.0,0.0,0.0,0.0,0.0,0.0,0.0,0.0,0.0,0.0,0.0,0.0,0.0,0.0,1.8381,1.9555,2.0149,2.0179,1.9844,1.8999,1.8178,1.7325,1.6437,1.5607,0.0,0.0,0.0,0.0,0.0,0.0,0.0,0.0,0.0,0.0,0.0,0.0,0.0,0.0,0.0,0.0,0.0,0.0,0.0,0.0,0.0,0.0,0.0,0.0,0.0,0.0,0.0,0.0,0.0,0.0,0.0,0.0,0.0,0.0,0.0,0.0,0.0,0.0,0.0,0.0,0.0,0.0,0.0,0.0,0.0,0.0,0.0,0.0,0.0,0.0,0.0,0.0,0.0,0.0,0.0,0.0,0.0,0.0,0.0,0.0,0.0,0.0,0.0,0.0,0.0,0.0,0.0,0.0,0.0,0.0,0.0,0.0,0.0,0.0,0.0,0.0,0.0,0.0,0.0,0.0,0.0,0.0,0.0,0.0,0.0,0.0,0.0,0.0,0.0,0.0,0.0,0.0,0.0,0.0,0.0,0.0,0.0,0.0,0.0,0.0,0.0,0.0,1.8233,1.9421,2.1133,2.1037,2.0701,2.0276,1.9156,1.7952,1.6811,0.0,0.0,0.0,0.0,0.0,0.0,0.0,0.0,0.0,0.0,0.0,0.0,0.0,0.0,0.0,0.0,0.0,0.0,0.0,0.0,0.0,0.0,0.0,0.0,0.0,0.0,0.0,0.0,0.0,0.0,0.0,0.0,0.0,0.0,0.0,0.0,0.0,0.0,0.0,0.0,0.0,0.0,0.0,0.0,0.0,0.0,0.0,0.0,0.0,0.0,0.0,0.0,0.0,0.0,0.0,0.0,0.0,0.0,0.0,0.0,0.0,0.0,0.0,0.0,0.0,0.0,0.0,0.0,0.0,0.0,0.0,0.0,0.0,0.0,0.0,0.0,0.0,0.0,0.0,0.0,0.0,0.0,0.0,0.0,0.0,0.0,0.0,0.0,0.0,0.0,0.0,0.0,0.0,0.0,0.0,0.0,0.0,0.0,0.0,0.0,0.0,0.0,1.7662,1.8714,1.9971,2.1815,2.1696,2.1288,2.0726,1.9367,1.8032,1.6854,0.0,0.0,0.0,0.0,0.0,0.0,0.0,0.0,0.0,0.0,0.0,0.0,0.0,0.0,0.0,0.0,0.0,0.0,0.0,0.0,0.0,0.0,0.0,0.0,0.0,0.0,0.0,0.0,0.0,0.0,0.0,0.0,0.0,0.0,0.0,0.0,0.0,0.0,0.0,0.0,0.0,0.0,0.0,0.0,0.0,0.0,0.0,0.0,0.0,0.0,0.0,0.0,0.0,0.0,0.0,0.0,0.0,0.0,0.0,0.0,0.0,0.0,0.0,0.0,0.0,0.0,0.0,0.0,0.0,0.0,0.0,0.0,0.0,0.0,0.0,0.0,0.0,0.0,0.0,0.0,0.0,0.0,0.0,0.0,0.0,0.0,0.0,0.0,0.0,0.0,0.0,0.0,0.0,0.0,0.0,0.0,0.0,0.0,0.0,0.0,0.0,0.0,1.8419,2.0211,2.1584,2.2125,2.2173,2.1524,1.9929,1.8569,1.7374,0.0,0.0,0.0,0.0,0.0,0.0,0.0,0.0,0.0,0.0,0.0,0.0,0.0,0.0,0.0,0.0,0.0,0.0,0.0,0.0,0.0,0.0,0.0,0.0,0.0,0.0,0.0,0.0,0.0,0.0,0.0,0.0,0.0,0.0,0.0,0.0,0.0,0.0,0.0,0.0,0.0,0.0,0.0,0.0,0.0,0.0,0.0,0.0,0.0,0.0,0.0,0.0,0.0,0.0,0.0,0.0,0.0,0.0,0.0,0.0,0.0,0.0,0.0,0.0,0.0,0.0,0.0,0.0,0.0,0.0,0.0,0.0,0.0,0.0,0.0,0.0,0.0,0.0,0.0,0.0,0.0,0.0,0.0,0.0,0.0,0.0,0.0,0.0,0.0,0.0,0.0,0.0,0.0,0.0,0.0,0.0,0.0,0.0,0.0,0.0,0.0,0.0,0.0,1.8663,1.9381,2.0201,2.15,2.1308,2.0574,1.9324,1.8538,1.7574,1.6374,0.0,0.0,0.0,0.0,0.0,0.0,0.0,0.0,0.0,0.0,0.0,0.0,0.0,0.0,0.0,0.0,0.0,0.0,0.0,0.0,0.0,0.0,0.0,0.0,0.0,0.0,0.0,0.0,0.0,0.0,0.0,0.0,0.0,0.0,0.0,0.0,0.0,0.0,0.0,0.0,0.0,0.0,0.0,0.0,0.0,0.0,0.0,0.0,0.0,0.0,0.0,0.0,0.0,0.0,0.0,0.0,0.0,0.0,0.0,0.0,0.0,0.0,0.0,0.0,0.0,0.0,0.0,0.0,0.0,0.0,0.0,0.0,0.0,0.0,0.0,0.0,0.0,0.0,0.0,0.0,0.0,0.0,0.0,0.0,0.0,0.0,0.0,0.0,0.0,0.0,0.0,0.0,0.0,0.0,0.0,0.0,0.0,0.0,0.0,0.0,0.0,0.0,1.8506,1.8855,1.9528,2.0935,2.061,1.9853,1.877,1.8193,1.7363,1.6182,0.0,0.0,0.0,0.0,0.0,0.0,0.0,0.0,0.0,0.0,0.0,0.0,0.0,0.0,0.0,0.0,0.0,0.0,0.0,0.0,0.0,0.0,0.0,0.0,0.0,0.0,0.0,0.0,0.0,0.0,0.0,0.0,0.0,0.0,0.0,0.0,0.0,0.0,0.0,0.0,0.0,0.0,0.0,0.0,0.0,0.0,0.0,0.0,0.0,0.0,0.0,0.0,0.0,0.0,0.0,0.0,0.0,0.0,0.0,0.0,0.0,0.0,0.0,0.0,0.0,0.0,0.0,0.0,0.0,0.0,0.0,0.0,0.0,0.0,0.0,0.0,0.0,0.0,0.0,0.0,0.0,0.0,0.0,0.0,0.0,0.0,0.0,0.0,0.0,0.0,0.0,0.0,0.0,0.0,0.0,0.0,0.0,0.0,0.0,0.0,0.0,0.0,1.8061,1.8614,1.9336,2.0418,1.9997,1.9227,1.8217,1.764,1.6883,1.5852,0.0,0.0,0.0,0.0,0.0,0.0,0.0,0.0,0.0,0.0,0.0,0.0,0.0,0.0,0.0,0.0,0.0,0.0,0.0,0.0,0.0,0.0,0.0,0.0,0.0,0.0,0.0,0.0,0.0,0.0,0.0,0.0,0.0,0.0,0.0,0.0,0.0,0.0,0.0,0.0,0.0,0.0,0.0,0.0,0.0,0.0,0.0,0.0,0.0,0.0,0.0,0.0,0.0,0.0,0.0,0.0,0.0,0.0,0.0,0.0,1.9204,1.8987,0.0,0.0,0.0,0.0,0.0,0.0,0.0,0.0,0.0,0.0,0.0,0.0,0.0,0.0,0.0,0.0,0.0,0.0,0.0,0.0,0.0,0.0,0.0,0.0,0.0,0.0,0.0,0.0,0.0,0.0,0.0,0.0,0.0,0.0,0.0,0.0,0.0,0.0,0.0,0.0,1.8061,1.8301,1.877,1.9868,1.9107,1.8277,1.764,1.7075,1.6499,1.5828,1.5792,0.0,0.0,0.0,0.0,0.0,0.0,0.0,0.0,0.0,0.0,0.0,0.0,0.0,0.0,0.0,0.0,0.0,0.0,0.0,0.0,0.0,0.0,0.0,0.0,0.0,0.0,0.0,0.0,0.0,0.0,0.0,0.0,0.0,0.0,0.0,0.0,0.0,0.0,0.0,0.0,0.0,0.0,0.0,0.0,0.0,0.0,0.0,0.0,0.0,0.0,0.0,0.0,0.0,0.0,0.0,0.0,0.0,0.0,0.0,2.1308,2.0479,0.0,0.0,0.0,0.0,0.0,0.0,0.0,0.0,0.0,0.0,0.0,0.0,0.0,0.0,0.0,0.0,0.0,0.0,0.0,0.0,0.0,0.0,0.0,0.0,0.0,0.0,0.0,0.0,0.0,0.0,0.0,0.0,0.0,0.0,0.0,0.0,0.0,0.0,0.0,0.0,1.8097,1.8205,1.841,1.8963,1.853,1.7893,1.7075,1.6763,1.6402,1.5927,1.611,0.0,0.0,0.0,0.0,0.0,0.0,0.0,0.0,0.0,0.0,0.0,0.0,0.0,0.0,0.0,0.0,0.0,0.0,0.0,0.0,0.0,0.0,0.0,0.0,0.0,0.0,0.0,0.0,0.0,0.0,0.0,0.0,0.0,0.0,0.0,0.0,0.0,0.0,0.0,0.0,0.0,0.0,0.0,0.0,0.0,0.0,0.0,0.0,0.0,0.0,0.0,0.0,0.0,2.5664,2.5908,2.5747,2.6357,2.6344,2.575,2.4488,2.3084,2.1637,2.1244,0.0,0.0,0.0,0.0,0.0,0.0,0.0,0.0,0.0,0.0,0.0,0.0,0.0,0.0,0.0,0.0,0.0,0.0,0.0,0.0,0.0,0.0,1.8996,2.0079,2.0035,1.9379,1.8284,0.0,0.0,0.0,0.0,0.0,0.0,0.0,0.0,0.0,0.0,0.0,1.8196,1.8366,1.8414,1.8414,1.8245,1.7762,1.6881,1.664,1.6407,1.6166,1.6509,1.6825,0.0,0.0,0.0,0.0,0.0,0.0,0.0,0.0,0.0,0.0,0.0,0.0,0.0,0.0,0.0,0.0,0.0,0.0,0.0,0.0,0.0,0.0,0.0,0.0,0.0,0.0,0.0,0.0,0.0,0.0,0.0,0.0,2.2525,2.2578,0.0,0.0,0.0,0.0,0.0,0.0,0.0,0.0,0.0,0.0,0.0,0.0,0.0,2.5339,2.6818,2.7643,2.7828,2.7442,2.8637,2.8687,2.7736,2.8838,2.8963,2.8437,2.8712,0.0,2.3843,2.2381,0.0,0.0,0.0,0.0,0.0,0.0,0.0,0.0,0.0,0.0,0.0,0.0,0.0,0.0,0.0,0.0,0.0,0.0,0.0,0.0,0.0,0.0,2.0143,2.0809,2.0936,2.0822,2.0646,1.9883,1.9207,1.9146,1.9244,1.9279,0.0,0.0,0.0,0.0,0.0,0.0,1.8534,1.895,1.9232,1.9232,1.8399,1.7811,1.764,1.6794,1.6393,1.668,1.6752,1.7213,1.8166,1.8503,0.0,0.0,0.0,0.0,0.0,0.0,0.0,0.0,0.0,0.0,0.0,0.0,0.0,0.0,0.0,0.0,0.0,0.0,0.0,0.0,0.0,0.0,0.0,0.0,0.0,0.0,0.0,0.0,0.0,2.3592,2.4542,2.3622,2.3817,2.3586,0.0,0.0,0.0,0.0,0.0,0.0,0.0,0.0,0.0,2.8592,2.8688,2.9372,3.0866,3.1293,3.1408,3.1164,3.1491,3.1373,3.0922,3.1411,3.1499,3.126,3.1185,2.9902,2.7714,2.5306,2.3616,2.2441,0.0,0.0,0.0,0.0,2.1317,2.1555,2.1786,2.2018,2.2167,2.1778,0.0,0.0,0.0,0.0,0.0,0.0,0.0,1.9929,2.0634,2.0838,2.0974,2.1604,2.1533,2.1425,2.1695,2.1135,2.0434,1.9937,1.9603,1.9368,1.9328,1.9184,0.0,0.0,0.0,1.9038,1.9038,1.9247,1.9284,1.8977,1.8523,1.8142,1.7835,1.7324,1.7115,1.7342,1.7552,1.7896,1.8425,1.9064,1.9698,0.0,0.0,0.0,0.0,0.0,0.0,0.0,0.0,0.0,0.0,0.0,0.0,0.0,0.0,0.0,0.0,0.0,0.0,0.0,0.0,0.0,0.0,0.0,0.0,0.0,0.0,0.0,0.0,2.5454,2.6606,2.4929,2.588,2.5918,0.0,0.0,0.0,0.0,0.0,0.0,2.8314,2.8666,2.9865,3.2151,3.2283,3.2951,3.4207,3.4205,3.407,3.3893,3.3575,3.3326,3.3124,3.3124,3.3124,3.3056,3.2616,3.1813,3.0608,2.7801,2.5806,2.4327,2.3517,2.3183,2.3152,2.317,2.3269,2.3461,2.3903,2.4066,2.3941,2.3237,2.2795,2.2242,2.0452,0.0,0.0,0.0,0.0,2.0893,2.1757,2.2002,2.2168,2.2794,2.2636,2.241,2.2686,2.2297,2.165,2.0702,2.0106,1.9735,1.9682,1.9585,0.0,1.9473,1.9486,1.9574,1.971,1.9611,1.9414,1.9154,1.8882,1.8598,1.8321,1.8129,1.8156,1.8451,1.87,1.9003,1.9379,2.0024,2.0645,2.1255,0.0,0.0,0.0,0.0,0.0,0.0,0.0,0.0,0.0,0.0,0.0,0.0,0.0,0.0,0.0,0.0,0.0,0.0,0.0,0.0,0.0,0.0,0.0,0.0,0.0,0.0,0.0,0.0,0.0,2.6891,2.9227,0.0,0.0,0.0,0.0,2.805,2.8627,3.0152,3.2821,3.2329,3.3381,3.6494,3.5416,3.5326,3.6443,3.5805,3.5116,3.4358,3.4343,3.3907,3.3124,3.3124,3.3124,3.3124,3.3086,3.239,3.1185,2.8938,2.7237,2.5962,2.4937,2.4429,2.4332,2.4449,2.4838,2.5211,2.4881,2.475,2.4813,2.5297,2.4745,2.3572,2.1761,2.1194,0.0,0.0,2.2014,2.2292,2.3528,2.3866,2.4017,2.4537,2.4637,2.4519,2.4017,2.3421,2.2706,2.1628,2.1004,2.06,2.0478,0.0,1.9734,1.9617,1.9708,1.9973,2.0552,2.0137,1.9973,2.0526,1.9622,1.918,1.9673,1.9232,1.9311,2.0202,2.0295,2.0749,2.1772,2.1866,2.2171,2.2786,2.2807,0.0,0.0,0.0,0.0,0.0,0.0,0.0,0.0,0.0,0.0,0.0,0.0,0.0,0.0,0.0,0.0,0.0,0.0,0.0,0.0,0.0,0.0,0.0,0.0,0.0,0.0,0.0,0.0,3.0355,3.2944,0.0,3.0757,3.1382,3.18,3.1373,3.2843,3.4377,3.5806,3.5974,3.6944,3.8921,3.8143,3.8058,3.8842,3.7999,3.7302,3.6632,3.5482,3.4569,3.3949,3.3949,3.3407,3.2558,3.3133,3.2424,3.0834,3.0043,2.9026,2.7862,2.7147,2.6812,2.6789,2.6812,2.6972,2.7072,2.659,2.6402,2.6264,2.5385,2.4311,2.3296,2.2647,2.2472,2.2585,2.3147,2.331,2.3516,2.4299,2.4519,2.4569,2.4738,2.4788,2.4738,2.4569,2.4336,2.3973,2.3251,2.2071,2.1192,2.1149,2.1001,2.0891,2.0836,2.0863,2.0953,2.1194,2.0729,2.0465,2.0666,2.0297,2.0124,2.0309,2.0375,2.0559,2.0884,2.0841,2.0958,2.1336,2.1757,2.2106,2.2316,2.2707,2.2888,0.0,0.0,0.0,0.0,0.0,0.0,0.0,0.0,0.0,0.0,0.0,0.0,0.0,0.0,0.0,0.0,0.0,0.0,0.0,0.0,0.0,0.0,0.0,0.0,0.0,0.0,3.3854,3.3283,3.5798,3.6531,3.3817,3.4671,3.5222,3.4805,3.6121,3.7331,3.8202,3.8434,3.9015,4.006,3.9509,3.9392,3.9784,3.8964,3.8187,3.754,3.6348,3.542,3.4814,3.4587,3.3957,3.3047,3.3138,3.2367,3.0926,3.0687,3.0068,2.9164,2.8599,2.8499,2.8649,2.8448,2.8386,2.8298,2.7758,2.7444,2.7067,2.5787,2.4732,2.3898,2.3735,2.3672,2.3785,2.4381,2.4531,2.4669,2.5234,2.5372,2.5372,2.5372,2.5372,2.5322,2.5121,2.4946,2.4625,2.4104,2.2937,2.1983,2.1794,2.1606,2.1493,2.1493,2.1675,2.1865,2.2056,2.1581,2.1315,2.1521,2.1144,2.0944,2.1129,2.1383,2.1606,2.1764,2.1679,2.1634,2.1634,2.2077,2.2309,2.2309,2.2878,2.3172,2.3172,0.0,0.0,0.0,0.0,0.0,0.0,0.0,0.0,0.0,0.0,0.0,0.0,0.0,0.0,0.0,0.0,0.0,0.0,0.0,0.0,0.0,0.0,0.0,3.1555,3.3862,3.5537,3.5595,3.7781,3.8333,3.5857,3.7244,3.8304,3.826,3.8304,3.8855,4.006,3.9581,3.9523,4.0075,3.9509,3.9189,3.9175,3.8522,3.7772,3.6936,3.6897,3.6439,3.5641,3.5031,3.4734,3.4601,3.3225,3.228,3.1654,3.0901,3.0308,2.9806,2.9176,2.9302,2.9729,2.9126,2.8913,2.8813,2.8298,2.7745,2.7228,2.6675,2.6122,2.5548,2.5059,2.4863,2.5008,2.5511,2.5636,2.5749,2.6348,2.6521,2.6521,2.6521,2.6555,2.6404,2.5803,2.5287,2.4771,2.4192,2.3626,2.303,2.2464,2.1923,2.1599,2.1627,2.2115,0.0,2.3175,2.271,2.2548,2.3146,2.2154,2.1674,2.2189,2.2236,2.2445,2.2865,2.2888,2.2888,2.2888,2.2888,2.2925,2.291,2.3428,2.3709,2.3745,0.0,0.0,0.0,0.0,0.0,0.0,0.0,0.0,0.0,0.0,0.0,0.0,0.0,0.0,0.0,0.0,0.0,0.0,0.0,0.0,0.0,0.0,3.4143,3.4317,3.6519,3.8667,4.0075,4.125,4.1497,4.035,4.0713,4.0612,3.9654,4.0481,4.096,4.0829,4.067,4.0423,4.0104,3.9509,3.8971,3.8478,3.8289,3.8089,3.7848,3.7208,3.6766,3.6503,3.5906,3.5085,3.4109,3.3875,3.3073,3.1914,3.1143,3.1052,3.1355,3.0037,2.9654,2.9779,2.9616,2.9289,2.8813,2.8298,2.7745,2.7228,2.6675,2.665,2.6791,2.6653,2.6603,2.664,2.6779,2.6562,2.6298,2.6449,2.685,2.7229,2.7229,2.7604,2.7913,2.774,2.7704,2.7385,2.6297,2.6096,2.556,2.3878,2.3476,2.3532,2.396,2.4184,2.435,2.4483,2.3608,2.3186,2.3797,2.311,2.2686,2.2845,2.3217,2.3288,2.2917,2.2888,2.2888,2.2888,2.2992,2.3105,2.3187,2.3326,2.3812,0.0,0.0,0.0,0.0,0.0,0.0,0.0,0.0,0.0,0.0,0.0,0.0,0.0,0.0,0.0,0.0,0.0,0.0,0.0,0.0,0.0,0.0,3.572,3.7383,3.8443,3.9625,4.1134,4.3036,4.3355,4.3166,4.2528,4.2469,4.2049,4.1018,4.1395,4.1512,4.112,4.0597,4.0133,3.9741,3.9117,3.8594,3.8202,3.8202,3.8202,3.8202,3.7682,3.7453,3.7424,3.6826,3.6118,3.5288,3.4806,3.3994,3.2941,3.2109,3.1924,3.1915,0.0,0.0,0.0,0.0,2.9404,2.9322,2.8698,2.8173,2.7685,2.7365,2.7314,2.7391,2.7391,2.7584,2.7811,2.7811,2.7577,2.7351,2.7351,2.7683,2.8032,2.8032,2.8357,2.8566,2.8338,2.8156,2.7721,2.6779,2.6512,0.0,2.5186,2.4823,2.4766,2.5119,2.537,2.5536,2.5536,2.4915,2.4582,2.4934,2.4394,2.3904,2.3622,2.3891,0.0,0.0,0.0,2.3068,2.3068,2.3135,0.0,0.0,0.0,2.4909,2.6061,2.6577,0.0,0.0,2.6835,2.6919,0.0,0.0,0.0,0.0,0.0,0.0,0.0,0.0,0.0,0.0,0.0,0.0,0.0,0.0,0.0,0.0,3.8405,4.0495,4.2977,4.2861,4.3137,4.4792,4.44,4.3776,4.3253,4.3079,4.2774,4.2237,4.1584,4.1207,4.1207,0.0,0.0,0.0,0.0,3.8347,3.8202,3.8202,3.8202,3.8202,3.8202,3.8202,3.8188,3.7578,3.7302,3.7237,3.5909,3.4941,3.4255,3.3464,3.2727,3.1911,2.999,2.9994,3.0904,2.9691,2.9735,3.0266,2.9591,0.0,0.0,2.8562,2.8221,2.7834,2.7834,2.8284,2.8733,2.8678,2.861,2.857,2.8638,2.8785,2.8962,2.9031,2.9122,2.9006,2.8463,2.7906,2.7335,2.6772,2.6287,2.6118,2.6592,2.6017,2.5508,2.5591,2.6068,2.6404,2.6404,2.6287,2.6238,2.6312,2.5776,0.0,2.4557,2.4499,2.4241,2.3563,2.3518,2.3541,2.3541,2.3592,2.4103,2.5155,2.5679,2.6513,2.7651,2.8788,2.9389,2.9476,2.7886,2.7392,0.0,0.0,0.0,0.0,0.0,0.0,0.0,0.0,0.0,0.0,0.0,0.0,0.0,0.0,0.0,3.9567,4.1337,4.2977,4.5039,4.5227,4.5285,4.5648,4.469,4.4124,4.4487,4.3587,4.2948,4.2818,4.2252,4.1903,4.1903,4.1671,4.1033,3.9958,3.9799,3.9233,3.8217,3.8202,3.8202,3.8202,3.8202,0.0,3.8188,3.7578,3.7302,3.7259,3.6447,3.5725,3.5099,3.429,3.3273,3.2213,3.1684,3.1652,3.1842,3.1589,3.1644,3.1789,3.1113,3.0566,3.0167,3.0031,2.9984,2.9991,2.993,3.0118,0.0,2.9695,2.9247,2.9017,2.9564,2.9757,2.9893,3.0466,3.1001,3.1225,3.0644,3.0908,3.0925,2.9737,2.9513,2.9402,2.9023,2.7376,2.6283,2.6788,2.6959,2.7037,2.7037,2.6531,2.6415,2.6956,2.6415,2.5973,2.5855,2.584,2.556,2.4958,2.4914,2.4938,2.5002,2.5402,2.5779,2.6134,2.6606,2.7423,2.8551,2.8802,2.9386,3.0274,2.9938,2.9814,0.0,0.0,0.0,0.0,0.0,0.0,0.0,0.0,0.0,0.0,0.0,3.359,0.0,0.0,3.9189,4.2078,4.3326,4.44,4.5706,4.588,4.588,4.588,4.5024,4.4443,4.4443,4.3558,4.2861,4.2571,4.2266,4.2092,4.2092,4.1453,4.0786,4.0118,3.9479,3.8841,3.8217,3.7897,3.7897,3.8202,3.7897,3.7912,3.8188,3.7897,3.7752,3.7723,3.7143,3.6574,3.5933,3.4952,3.4186,3.3581,3.3541,3.3038,3.2335,3.2335,3.2656,3.2961,3.2277,3.1906,3.1699,3.1324,3.1259,3.1293,3.1278,3.133,3.134,3.0994,3.0497,3.0213,3.0859,3.0836,3.0804,3.1505,3.166,3.1486,3.0907,3.107,3.1039,3.0142,2.9988,2.9939,2.9666,2.869,2.7942,2.791,2.762,2.7397,2.7397,2.7115,2.704,2.7367,2.7115,2.6748,2.6421,2.6094,2.5782,2.5479,2.545,2.5473,2.5506,2.6016,2.66,2.7239,2.772,2.8521,2.9653,2.9653,2.9938,3.0506,3.0506,3.0506,0.0,0.0,0.0,0.0,0.0,0.0,0.0,0.0,3.1978,3.3499,3.5038,3.6729,3.8609,4.0321,4.2049,4.3863,4.4676,4.5271,4.5808,4.5779,4.5648,4.5532,4.514,4.4647,4.4052,4.3384,4.2789,4.231,4.2165,4.2092,4.2092,4.0945,4.0234,4.0104,3.8986,3.8333,3.8202,3.7607,3.7549,3.8028,3.7441,3.7412,3.7876,3.7914,3.7936,3.7922,3.7558,3.7118,3.6597,3.5545,3.5038,3.4968,3.4968,3.4225,3.315,3.3066,3.3478,3.3998,3.3398,3.3192,3.3085,3.2677,3.2493,3.2425,3.2425,3.2441,3.2463,3.2314,3.196,3.1723,3.233,3.202,3.1708,3.2362,3.2035,3.138,3.0823,3.0708,3.059,3.0061,2.9968,2.9968,2.9968,2.9849,2.9505,2.8727,2.8128,2.775,2.7615,2.76,2.76,2.76,2.76,2.739,2.6851,2.6303,2.5989,2.5989,2.5989,2.6036,2.6116,2.665,2.7395,2.8414,2.8893,2.9583,3.0506,3.0506,3.0506,3.0506,3.0506,3.0506,2.3073,2.3379,2.423,2.6052,2.7199,2.8954,0.0,0.0,3.5552,3.7955,3.8623,3.9363,4.1308,4.2281,4.3224,4.456,4.5343,4.5793,4.588,4.5372,4.4792,4.4269,4.4603,4.4647,4.4052,4.3384,4.2963,4.289,4.2397,4.2092,4.2092,4.1381,4.0713,4.0118,3.9436,3.8797,3.8217,3.7607,3.7346,3.7404,3.6931,3.6725,3.6783,3.691,3.6966,3.6966,3.6958,3.6949,3.6816,3.6099,3.5551,3.518,3.518,3.518,3.5148,3.4773,3.482,3.5001,3.4732,3.4386,3.4103,3.4471,3.4301,3.3942,3.3942,3.4072,3.4097,3.3514,3.3259,3.3394,3.4052,3.3304,3.2542,3.32,3.2856,3.2198,3.1525,3.1839,3.2064,3.1406,3.1286,3.1286,3.1286,3.0778,2.9998,2.8786,2.8532,2.8263,2.7675,2.76,2.76,2.76,2.76,2.757,2.7495,2.742,2.7375,2.7375,2.7375,2.7544,2.7977,2.8514,2.9044,2.9614,3.0063,3.0365,3.0506,3.0506,3.0506,3.0506,3.0506,3.0506,2.5857,2.6378,0.0,0.0,3.1542,3.3074,3.6418,3.7614,3.8407,3.9836,4.1211,4.2429,4.3246,4.4209,4.5055,0.0,4.6004,4.6328,4.6328,4.5376,4.4351,4.337,4.3025,4.2871,4.2876,4.2281,4.2049,4.244,4.2237,4.1932,4.1541,4.1008,4.0353,3.9596,3.9171,3.8779,3.8366,3.7499,3.725,3.7586,3.6632,3.6373,3.6726,3.6781,3.6679,3.6443,3.6458,3.6333,3.6064,3.5781,3.5532,3.5359,3.5359,3.5439,3.5472,3.5326,3.5294,3.5359,3.5294,3.5133,3.4986,3.5204,3.5133,3.4974,3.4974,3.4722,3.4444,3.4174,3.3784,3.3559,3.3844,3.3215,3.2557,3.2856,3.2422,3.1839,3.157,3.172,3.1839,3.1555,3.1511,3.1511,3.1511,3.1271,3.0763,2.9849,2.94,2.9097,2.8798,2.8438,2.8034,2.7645,2.76,2.76,2.76,2.7845,2.8002,2.8002,2.8295,2.8559,2.8756,2.9241,2.9788,3.0425,3.0903,3.135,3.1785,3.1785,3.1828,3.1893,3.1893,3.1936,2.7537,0.0,0.0,3.3117,3.5201,3.6995,3.9005,4.0354,4.1351,4.177,4.3066,4.413,4.4115,4.4877,4.5551,4.5742,4.6065,4.6329,4.6329,4.5047,4.359,4.2309,4.1106,4.0597,4.1135,4.1022,4.1171,4.184,4.1779,4.1572,4.1266,4.0622,3.9964,3.9357,3.8987,3.8723,3.859,3.7472,3.7131,3.7559,3.6296,3.5946,3.6369,3.6616,3.6556,3.6276,3.6439,3.6224,3.5774,3.5774,3.5669,3.5504,3.5504,3.5504,3.5504,3.5504,3.5504,3.5504,3.5504,3.5504,3.5504,3.5504,3.5504,3.5504,3.5504,3.516,3.4788,3.4788,3.4427,3.4008,3.3814,3.341,3.2961,3.2602,3.2123,3.1735,3.154,3.1539,3.1568,3.1568,3.1568,3.1568,3.1568,3.1539,3.136,3.0923,3.0501,2.9978,2.9412,2.8727,2.8154,2.7645,2.771,2.7795,2.7795,2.8231,2.8528,2.8536,2.8896,2.9189,2.9371,2.9877,3.0477,3.1193,3.1753,3.2292,3.2807,3.2807,3.2873,3.2961,3.2961,3.3021,0.0,0.0,3.1691,3.3612,3.6666,3.945,4.0572,4.2783,4.4529,4.4486,4.4089,4.3679,4.3649,4.3664,4.3899,4.4533,4.5181,4.5608,4.5608,4.3973,4.2265,4.09,3.9061,3.8179,0.0,3.9821,4.0685,4.1368,4.1013,4.1003,4.1646,4.0483,3.9829,3.9761,3.9136,3.8782,3.8782,3.7544,3.6925,3.6925,3.5781,3.5225,3.5269,3.6108,3.6507,3.6522,3.712,3.703,3.6462,3.6462,3.6088,3.5504,3.5504,3.5504,3.5504,3.5504,3.5504,3.5504,3.5504,3.5504,3.5504,3.5504,3.5504,3.5504,3.5504,3.5489,3.5474,3.5474,3.5459,3.5295,3.4653,3.4459,3.4098,3.2826,3.2467,3.2273,3.1645,3.167,3.1799,3.1799,3.1799,3.1799,3.1799,3.1626,3.1568,3.1726,3.1739,3.0975,2.8903,2.8064,2.7615,2.76,2.8002,2.828,2.828,2.8772,2.9104,2.9171,2.9127,2.9377,3.0038,3.0718,3.1347,3.1955,3.2684,3.3069,3.3086,3.3086,3.3086,3.3086,3.3086,3.3108,3.1082,0.0,3.5746,3.8476,4.0283,4.1975,4.4008,4.4794,4.4843,4.3924,4.3119,4.2287,4.1385,4.1577,4.2228,4.3379,4.4599,4.5545,4.5992,4.5114,4.3433,4.0814,4.0196,0.0,0.0,0.0,0.0,4.0808,4.0386,4.0144,4.0433,4.0163,3.972,3.9136,3.9187,3.9141,3.898,3.8264,3.7679,3.7213,3.6432,3.5824,3.5422,3.6144,3.6252,3.5848,3.6058,3.6028,3.5833,3.5833,3.5699,3.5504,3.5504,3.5504,3.5504,3.5504,3.5504,3.5504,3.5504,3.5504,3.5504,3.5504,3.5504,3.5504,3.5504,3.5504,3.5504,3.5504,3.5504,3.5355,3.4651,3.4503,3.4174,3.2826,3.2841,3.2901,3.1895,3.2058,3.2311,3.2002,3.194,3.194,3.194,3.1883,3.1855,3.1912,3.194,3.1351,2.9739,2.9597,2.9304,2.8411,2.874,2.9239,2.9706,3.0209,3.0735,3.1274,3.1587,3.1847,3.2081,3.2309,3.2762,3.3455,3.3706,3.4075,3.456,3.456,3.4622,3.469,3.469,3.4718,3.3886,3.6018,3.8272,4.108,4.2642,4.391,4.5419,4.5709,4.508,4.3045,4.1575,4.0323,3.8999,3.8716,3.9266,4.1052,4.2204,4.3389,4.4979,4.4272,4.294,4.1294,4.0748,3.9891,0.0,0.0,0.0,4.0362,4.0379,4.0313,4.038,4.0494,4.0196,3.9402,3.9607,3.9576,3.9228,3.8665,3.8063,3.7404,3.6791,3.6267,3.5878,3.6522,3.6342,3.5534,3.5983,3.5923,3.5504,3.5504,3.5504,3.5504,3.5504,3.5504,3.5504,3.5504,3.5504,3.5504,3.5504,3.5504,3.5504,3.5504,3.5504,3.5504,3.5504,3.5522,3.5554,3.5504,3.5522,3.5422,3.4683,3.47,3.4581,3.3276,3.3517,3.3698,3.2475,3.2745,3.303,3.2205,3.2264,3.2355,3.2112,3.2066,3.215,3.2315,3.2398,3.1997,3.081,3.0875,3.0691,2.9832,3.0181,3.0655,3.1131,3.1609,3.2106,3.2685,3.2961,3.3129,3.3194,3.3441,3.3794,3.4286,3.4555,3.4925,3.5406,3.5406,3.5452,3.5543,3.5543,3.5549,3.5835,3.7619,3.9499,4.1531,4.3729,4.5222,4.489,4.5473,4.5155,4.1893,3.9574,3.7749,3.6477,3.5267,3.5312,3.7913,3.8452,3.9694,4.2931,4.1818,4.1085,0.0,0.0,0.0,0.0,0.0,0.0,4.0077,0.0,4.1347,4.1422,4.1422,4.107,4.0427,4.0397,4.0083,3.9388,3.8736,3.8078,3.7449,3.6866,3.6567,3.6552,3.718,3.6761,3.5624,3.6836,3.6656,3.5504,3.5504,3.5504,3.5504,3.5504,3.5504,3.5504,3.5504,3.5504,3.5504,3.5537,3.5537,3.5504,3.5537,3.5537,3.5537,3.5537,3.5604,3.5703,3.5554,3.5636,3.5552,3.4776,3.514,3.5403,3.4151,3.447,3.4683,3.3316,3.3677,3.3842,3.2494,3.2767,3.2997,3.2354,3.2259,3.2465,3.296,3.3198,3.2945,3.1982,3.177,3.1702,3.167,3.2131,3.2461,3.2494,3.2923,3.3235,3.3405,3.3307,3.3295,3.3503,3.4132,3.4503,3.4556,3.525,3.56,3.56,3.56,3.56,3.56,3.56,3.56,3.837,4.0821,4.3255,4.4124,4.4992,4.5526,4.5221,4.3871,4.1983,3.9634,3.6806,3.4337,3.3005,3.332,3.4607,3.7225,3.932,0.0,4.4407,4.4362,0.0,4.253,0.0,4.178,4.0531,4.098,0.0,0.0,4.0345,4.0352,4.1324,4.1422,4.107,4.0427,4.0397,4.0083,3.9388,3.8736,3.8302,3.8138,3.7988,3.7644,3.7195,3.7838,3.7449,3.6252,3.6582,3.6252,3.5504,3.5504,3.5504,3.5504,3.5504,3.5504,3.5504,3.5621,3.5638,3.5671,3.5814,3.5782,3.5671,3.5814,3.5861,3.5861,3.5861,3.591,3.591,3.5878,3.591,3.5864,3.5666,3.5773,3.5729,3.4895,3.523,3.5276,3.3509,3.4087,3.4422,3.2683,3.2808,3.3152,3.2964,3.3293,3.3604,3.3716,3.4119,3.3982,3.2828,3.2957,3.2975,3.2478,3.2862,3.3374,3.3933,3.4071,3.439,3.4964,3.4975,3.4997,3.5042,3.5205,3.529,3.5312,3.5498,3.56,3.56,3.56,3.56,3.56,3.56,3.56,4.0932,4.332,4.567,4.5574,4.5631,4.5361,4.3935,4.1998,3.9634,3.6462,3.3873,3.1869,3.0866,3.1285,3.2632,0.0,0.0,0.0,4.312,4.3584,4.3494,0.0,4.3284,0.0,4.1803,4.2087,4.2366,0.0,4.1564,4.1339,4.1826,4.1856,4.1504,4.0846,4.0546,4.0083,3.9388,3.934,3.9338,3.9323,3.9314,3.9115,3.8762,3.8534,3.7898,3.6927,3.6643,3.6267,3.591,3.5943,3.6164,3.6399,3.6196,3.629,3.6461,3.6006,3.6006,3.6259,3.643,3.6258,3.5911,3.5973,3.6005,3.6005,3.6005,3.6037,3.6068,3.6005,3.6037,3.6053,3.6005,3.6022,3.5993,3.5628,3.5889,3.5844,3.4497,3.5227,3.5741,3.4357,3.3784,3.3563,3.3563,3.3793,3.4086,3.4309,3.4601,3.4636,3.4199,3.4359,3.4392,3.4019,3.4218,3.4539,3.4962,3.4979,3.5165,3.5566,3.56,3.56,3.56,3.56,3.56,3.56,3.56,3.56,3.56,3.56,3.56,3.56,3.56,3.56,4.352,4.5512,4.7304,4.6539,4.5978,4.4849,4.1948,3.9963,3.7524,3.3155,0.0,3.0058,2.9457,2.9487,3.0505,3.3185,0.0,3.7045,4.107,4.1564,4.2207,4.4092,4.3693,4.329,4.329,4.2821,4.2731,4.3245,4.329,4.309,4.256,4.244,4.2089,4.14,4.074,4.016,3.9681,4.0305,4.0634,4.0634,4.0632,4.0609,4.0593,3.9447,3.8504,3.7761,3.7212,3.6818,3.66,3.6707,3.71,3.7589,3.7191,3.7324,3.7677,3.6631,3.66,3.7071,3.7205,3.692,3.643,3.6242,3.6195,3.6195,3.6195,3.6321,3.6461,3.6352,3.6383,3.6461,3.6321,3.6383,3.6492,3.6492,3.66,3.6553,3.587,3.655,3.7074,3.6465,3.5302,3.4395,3.4298,3.4315,3.4497,3.4857,3.4904,3.5068,3.5554,3.56,3.56,3.56,3.56,3.56,3.56,3.56,3.56,3.56,3.56,3.56,3.56,3.56,3.56,3.56,3.5622,3.5622,3.5622,3.5644,3.5689,3.5739,3.5739,3.5812,4.6379,4.7894,4.9014,4.8331,4.6342,4.386,4.1182,3.7853,0.0,0.0,2.9819,2.8727,2.8064,2.8858,3.0655,3.3815,0.0,0.0,0.0,0.0,4.2755,0.0,0.0,0.0,0.0,0.0,0.0,0.0,4.329,4.3245,4.3125,4.2656,4.2078,4.1413,4.0791,4.0689,4.1127,4.126,4.1327,4.1327,4.1333,4.1336,4.1336,4.1178,4.0451,3.9234,3.928,3.8629,3.756,3.7573,3.7661,3.7764,3.7677,3.7706,3.7777,3.7703,3.7716,3.7831,3.8035,3.8023,3.7851,3.7342,3.7148,3.7148,3.7148,3.7533,3.7937,3.7908,3.7908,3.7937,3.7908,3.7908,3.7937,3.7937,3.7966,3.7801,3.7138,3.6733,3.6616,3.7037,3.6806,3.6373,3.5762,3.6019,3.6125,3.5548,3.5447,3.5492,3.56,3.56,3.56,3.56,3.56,3.56,3.56,3.56,3.56,3.56,3.56,3.56,3.56,3.56,3.56,3.56,3.5706,3.5773,3.5773,3.5866,3.6092,3.6416,3.6416,3.6951,4.758,4.936,5.0599,4.8963,4.6403,4.3269,3.9275,0.0,0.0,0.0,2.8487,2.7989,2.766,2.8963,0.0,0.0,0.0,0.0,0.0,0.0,0.0,0.0,0.0,0.0,0.0,0.0,4.3512,4.4028,4.4066,4.4028,4.3927,4.3414,4.2596,4.1507,4.125,4.1262,4.1592,4.1981,4.2205,4.2284,4.2661,4.2833,4.2833,4.221,4.1326,4.0232,3.9652,3.8956,3.8274,3.833,3.8585,3.8876,3.8613,3.8723,3.8941,3.8358,3.8602,3.9159,3.887,3.8818,3.8809,3.8452,3.8124,3.7883,3.7883,3.8067,3.8306,3.8306,3.8306,3.8306,3.8306,3.8306,3.8306,3.8306,3.8306,3.8309,3.8297,3.7738,3.7406,3.8072,3.7528,3.6846,3.6477,3.6279,3.6045,3.565,3.5667,3.5689,3.5689,3.5756,3.5756,3.5622,3.56,3.56,3.56,3.56,3.5622,3.5689,3.5689,3.5689,3.5689,3.5778,3.5778,3.5706,3.5839,3.5888,3.5888,3.6195,3.6412,3.66,3.6803,3.7212,4.844,5.046,5.1685,4.9266,4.6152,4.2417,3.7584,3.4203,0.0,0.0,2.76,2.76,2.76,0.0,3.0238,0.0,0.0,0.0,0.0,0.0,0.0,0.0,0.0,0.0,0.0,0.0,0.0,4.5005,4.5086,4.4909,4.4437,4.4059,4.3236,4.1868,4.1917,4.2045,4.2221,4.2785,4.3139,4.3227,4.3814,4.4097,4.408,4.3041,4.2059,4.1111,4.0074,3.938,3.9005,3.9113,3.948,3.9926,3.954,3.9696,3.9995,3.9038,3.9446,4.0417,3.9824,3.9693,3.9767,3.9674,3.9116,3.849,3.849,3.8585,3.8684,3.8684,3.8684,3.8684,3.8684,3.8684,3.8684,3.8684,3.8684,3.8821,3.9286,3.8968,3.8706,3.92,3.8367,3.7498,3.7153,3.657,3.6062,3.574,3.5795,3.5839,3.5839,3.5932,3.591,3.5711,3.5689,3.5689,3.5689,3.5689,3.5734,3.5839,3.5839,3.5839,3.5839,3.5932,3.5954,3.5839,3.6045,3.6135,3.6135,3.658,3.6841,3.6921,3.7247,3.754,4.976,5.1209,5.1745,4.9715,4.5427,4.0741,3.727,0.0,0.0,2.8034,2.76,2.76,2.76,2.775,2.8652,0.0,0.0,3.311,0.0,0.0,0.0,0.0,0.0,0.0,0.0,0.0,4.5264,4.6012,4.6079,4.5516,4.4197,4.4106,4.3684,4.2878,4.286,4.3213,4.386,4.3935,4.3993,4.3993,4.4068,4.4097,4.4097,4.41,4.3334,4.2007,4.1987,4.1199,3.9978,3.9978,4.002,4.0087,4.002,4.0045,4.007,3.9969,4.0442,4.1109,4.1041,4.1032,4.103,4.1015,4.0153,3.9125,3.9125,3.9497,3.9927,3.9927,3.9927,3.9927,3.9927,3.9927,3.9927,3.9927,3.9927,3.9944,3.9995,4.0045,4.0111,4.0178,4.0182,3.971,3.8303,3.8013,3.7502,3.6159,3.5975,3.5975,3.5975,3.5997,3.5997,3.5975,3.5954,3.5954,3.5954,3.5954,3.5975,3.5975,3.5975,3.5975,3.5975,3.5997,3.5997,3.5975,3.6416,3.6626,3.6646,3.7171,3.7614,3.7965,3.7999,3.8601,4.7467,4.9584,5.0541,4.8581,4.4706,4.0412,3.6731,0.0,2.9939,2.8004,2.76,2.76,2.76,2.7944,2.8532,0.0,0.0,0.0,0.0,0.0,0.0,0.0,0.0,0.0,0.0,0.0,4.5477,4.6334,4.6893,4.6579,4.5135,4.4946,4.4299,4.302,4.3074,4.3063,4.2914,4.2914,4.316,4.3682,4.3682,4.3945,4.4384,4.3968,4.3202,4.2189,4.1803,4.1035,4.0096,4.0096,4.0096,4.0096,4.0096,4.0096,4.0096,4.0096,4.0857,4.1796,4.1356,4.1491,4.1779,4.1339,4.0577,3.9867,3.9773,3.9918,4.0096,4.0096,4.0096,4.0138,4.0188,4.0213,4.0238,4.0337,4.0288,4.0238,4.032,4.0387,4.0412,4.0412,4.0102,3.9655,3.9016,3.8538,3.806,3.7467,3.7432,3.7442,3.7442,3.7526,3.7571,3.7571,3.6632,3.5997,3.5997,3.5997,3.6019,3.6122,3.6122,3.6216,3.6416,3.6516,3.662,3.6786,3.7057,3.7173,3.7173,3.765,3.793,3.8101,3.8352,3.8729,4.4631,4.7215,4.8551,4.6621,4.3135,3.9275,0.0,0.0,2.9544,2.798,2.7675,2.7715,2.7715,2.8106,2.8471,0.0,0.0,3.0179,0.0,0.0,0.0,0.0,0.0,4.2037,0.0,4.5828,4.6454,4.6873,4.7331,4.7039,4.5771,4.5351,4.4512,4.3166,4.3216,4.2918,4.2159,4.2142,4.2466,4.3081,4.3081,4.3487,4.4215,4.3673,4.3014,4.2252,4.1745,4.0967,4.0096,4.0096,4.0096,4.0096,4.0096,4.0096,4.0096,4.0096,4.1044,4.2219,4.1711,4.189,4.2255,4.1747,4.1036,4.0337,4.0263,4.0221,4.0221,4.0221,4.0221,4.0238,4.0337,4.0362,4.0387,4.0485,4.0436,4.0387,4.0485,4.0534,4.0558,4.0558,4.0155,3.9774,3.9528,3.9048,3.8637,3.8414,3.8437,3.8447,3.8447,3.8532,3.8644,3.8777,3.7698,3.6823,3.6465,3.656,3.6563,3.6419,3.6738,3.6925,3.6941,3.7478,3.7757,3.7716,3.815,3.8259,3.8026,3.8428,3.8522,3.8285,3.858,3.8723,4.185,4.4347,4.5846,4.3828,4.0382,3.6761,0.0,3.1069,2.863,2.7941,2.7905,2.7995,2.7995,2.7995,2.8207,2.89,0.0,0.0,0.0,0.0,0.0,0.0,0.0,4.209,4.5107,4.7548,4.8666,4.7939,4.7225,0.0,4.5737,4.4993,4.4231,4.3409,4.3392,4.3047,4.2303,4.2286,4.2286,4.2303,4.2303,4.2692,4.3409,4.3392,4.3014,4.2286,4.2286,4.1467,4.0096,4.0096,4.0096,4.0096,4.0096,4.0096,4.0096,4.0096,4.1044,4.2286,4.2286,4.2366,4.2505,4.2488,4.1571,4.051,4.051,4.051,4.051,4.051,4.051,4.051,4.051,4.051,4.051,4.051,4.051,4.051,4.051,4.0607,4.0697,4.0697,4.0817,4.0636,3.9836,3.9681,3.9439,3.8698,3.8594,3.8594,3.8594,3.8594,3.8777,3.9249,3.929,3.8769,3.759,3.7843,3.774,3.6952,3.8012,3.8309,3.7505,3.9024,3.9507,3.8685,3.986,4.0075,3.9278,3.9685,3.9478,3.8692,3.8707,3.8735,3.7112,3.9002,4.0087,3.9043,3.7236,3.5116,3.2914,3.0948,2.9303,2.8157,2.7955,2.7995,2.7995,2.7995,2.8207,2.89,2.9826,0.0,0.0,0.0,0.0,0.0,4.3028,4.607,0.0,0.0,4.7953,4.7208,4.6464,4.572,4.4976,4.4733,4.4005,4.2692,4.2642,4.2049,4.0823,4.0807,4.106,4.1542,4.1542,4.1931,4.2625,4.2134,4.1779,4.1525,4.1027,4.0536,4.0096,4.0096,4.0096,4.0146,4.0646,4.0595,4.0306,4.0798,4.1665,4.2508,4.2014,4.2193,4.256,4.2066,4.133,4.0648,4.0648,4.0558,4.051,4.051,4.0558,4.0648,4.0648,4.0648,4.0673,4.0752,4.0704,4.0655,4.0752,4.0817,4.084,4.084,4.0864,4.0825,4.0567,4.0752,4.0834,4.063,4.0862,4.1054,4.1054,4.1054,4.1117,4.128,4.1283,4.0689,3.9259,3.9252,3.9206,3.8977,3.9306,3.9531,3.9554,4.0041,4.0311,4.0338,4.0731,4.054,3.9784,3.9913,3.9587,3.8837,3.8837,3.8851,0.0,3.5209,3.636,3.5746,3.4665,0.0,0.0,3.0232,2.9134,2.8477,2.825,2.8201,2.8365,2.8414,2.8552,2.8969,3.021,0.0,0.0,0.0,0.0,4.0155,0.0,0.0,0.0,4.7567,4.7496,4.6464,4.5957,4.5382,4.4649,4.4299,4.3572,4.2337,4.2286,4.1602,4.0113,4.0096,4.0333,4.0781,4.0781,4.117,4.1863,4.1407,4.1204,4.117,4.0696,4.0392,0.0,4.0188,4.0366,4.0705,4.118,4.1104,4.0839,4.1324,4.1997,4.2578,4.1844,4.2133,4.2663,4.1928,4.1353,4.0971,4.0823,4.0721,4.0655,4.0655,4.0704,4.0769,4.0769,4.0769,4.0793,4.0888,4.084,4.0793,4.0888,4.0912,4.0912,4.0912,4.1018,4.1117,4.1117,4.149,4.1756,4.1756,4.2011,4.2198,4.2198,4.2198,4.2279,4.248,4.25,4.2201,4.1433,4.0851,4.0414,4.0127,4.0545,4.0799,4.0772,4.1355,4.1676,4.1668,4.1963,4.1574,4.0495,3.9872,3.9349,3.891,3.8939,3.8939,0.0,0.0,0.0,0.0,0.0,0.0,3.0171,2.9027,0.0,2.8826,2.8677,2.8612,2.913,2.9222,2.9254,2.9349,3.076,3.2072,0.0,3.5389,0.0,0.0,4.4434,0.0,4.572,4.6955,4.7192,4.5805,4.5602,4.5246,4.4564,4.3758,4.2997,4.2236,4.2245,4.1551,4.0113,4.0096,4.0096,4.0096,4.0096,4.0468,4.1145,4.1145,4.1145,4.1145,4.1145,4.0832,4.0313,4.0313,4.0796,4.1535,4.1587,4.1569,4.156,4.1688,4.2184,4.2646,4.1971,4.2277,4.2849,4.2159,4.1783,4.156,4.1181,4.1,4.0942,4.0912,4.0912,4.0912,4.0912,4.0912,4.0912,4.0942,4.0942,4.0942,4.0989,4.0989,4.0989,4.0989,4.1283,4.1539,4.1539,4.1948,4.2239,4.2259,4.2279,4.23,4.23,4.23,4.25,4.3014,4.3069,4.3249,4.3771,4.2538,4.147,4.078,4.1785,4.2097,4.1406,4.2824,4.3317,4.2694,4.3377,4.2955,4.14,3.9849,3.9091,3.9091,3.9164,3.9192,2.785,0.0,2.9703,2.9535,2.9353,2.9133,0.0,2.8554,2.8477,0.0,0.0,0.0,3.0286,3.0474,3.0829,3.1902,3.3233,3.4389,3.5112,0.0,0.0,4.3836,4.5517,4.6312,4.5754,4.6024,4.6075,4.5737,4.4621,4.3849,4.3707,4.2963,4.2219,4.1474,4.1562,4.1129,4.0113,4.0096,4.0163,4.0238,4.0238,4.0415,4.0667,4.0667,4.0667,4.0667,4.0667,4.0565,4.0461,4.0461,4.0571,4.0817,4.1374,4.1304,4.1091,4.2649,4.3155,4.3105,4.3297,4.3476,4.3541,4.3147,4.2999,4.2942,4.2857,4.2124,4.1305,4.0989,4.0912,4.0912,4.0912,4.0912,4.0989,4.1283,4.1356,4.1445,4.1817,4.1885,4.1885,4.1885,4.1969,4.2032,4.2032,4.2418,4.275,4.279,4.3069,4.3321,4.341,4.3427,4.3462,4.36,4.3617,4.3669,4.3788,4.3485,4.3215,4.3031,4.3299,4.3367,4.3199,4.355,4.3679,4.3527,4.3148,4.2754,4.2366,4.1408,4.097,4.097,4.0985,4.0985,2.6596,2.7413,2.821,2.821,2.8222,2.8303,0.0,0.0,0.0,0.0,0.0,0.0,0.0,0.0,3.1308,3.3072,3.414,0.0,0.0,0.0,4.2127,4.4344,4.5309,4.5754,0.0,4.576,4.5484,4.4789,4.4058,4.3474,4.3117,4.2387,4.1792,4.1401,4.112,4.0746,4.0188,4.0246,4.0337,4.0387,4.0387,4.0436,4.051,4.051,4.051,4.051,4.051,4.0534,4.0607,4.0795,4.1121,4.1572,4.2149,4.2178,4.2013,4.3127,4.3399,4.3226,4.3151,4.3094,4.3045,4.2902,4.3005,4.3126,4.2905,4.2516,4.2053,4.1622,4.1507,4.1507,4.1507,4.1507,4.1534,4.1756,4.1821,4.1885,4.2154,4.2221,4.2241,4.2241,4.2444,4.26,4.26,4.2995,4.3322,4.3356,4.3548,4.3719,4.3788,4.3804,4.382,4.3835,4.3853,4.3851,4.3899,4.3881,4.3867,4.3804,4.3804,4.382,4.3835,4.3853,4.3867,4.3899,4.3132,4.2755,4.274,4.1965,4.159,4.159,4.159,4.159,2.6127,2.7357,2.8407,2.8242,2.8194,2.8385,0.0,0.0,0.0,0.0,0.0,0.0,0.0,0.0,0.0,0.0,0.0,0.0,4.0155,4.0671,4.162,4.4169,4.4586,0.0,4.5202,4.545,4.5007,4.3579,4.3515,4.3253,4.2561,4.1826,4.1442,4.1442,4.0852,4.0485,4.0355,4.0461,4.051,4.0534,4.0534,4.0566,4.0645,4.059,4.059,4.0645,4.0645,4.071,4.0847,4.1271,4.1903,4.2669,4.2988,4.3119,4.3176,4.3346,4.3379,4.3208,4.267,4.2548,4.264,4.2613,4.2835,4.3101,4.2697,4.2782,4.292,4.2537,4.23,4.2198,4.2218,4.2218,4.2239,4.232,4.234,4.236,4.242,4.2501,4.2542,4.2542,4.2904,4.3212,4.3212,4.3548,4.3804,4.382,4.382,4.382,4.3837,4.3837,4.3851,4.3913,4.3913,4.3945,4.4005,4.4005,4.3942,4.3853,4.3837,4.3851,4.3913,4.3913,4.3945,4.4005,4.3336,4.2983,4.2983,4.2296,4.1962,4.1962,4.1962,4.1976,2.6291,2.7935,2.9317,2.8347,2.8646,2.9268,2.9618,0.0,0.0,0.0,0.0,0.0,0.0,3.3621,3.4936,0.0,0.0,4.028,0.0,0.0,4.3464,4.3807,0.0,4.4463,4.3276,4.3797,4.3824,4.291,4.2287,4.1895,4.1775,4.1066,4.0681,4.0681,4.0676,4.0648,4.0624,4.0534,4.0558,4.0673,4.0673,4.0901,4.1333,4.0995,4.1024,4.1356,4.1356,4.1356,4.1423,4.1885,4.2145,4.2291,4.2335,4.2376,4.2507,4.357,4.3704,4.3322,4.3622,4.4157,4.4686,4.4418,4.4364,4.44,4.4346,4.3923,4.3479,4.3409,4.2809,4.2218,4.2264,4.2286,4.2386,4.2848,4.2959,4.3069,4.3479,4.3566,4.3583,4.3583,4.3634,4.3684,4.3684,4.3736,4.382,4.3883,4.3881,4.3915,4.3958,4.3958,4.3974,4.3974,4.3989,4.3989,4.4005,4.4005,4.3989,4.3958,4.3958,4.3974,4.3989,4.3989,4.3989,4.4005,4.3875,4.3819,4.3819,4.3689,4.3633,4.3633,4.3633,4.3698,2.5597,2.737,2.9006,2.8147,2.8966,3.0139,3.0648,0.0,0.0,0.0,0.0,0.0,0.0,0.0,3.6146,3.7455,0.0,4.2031,4.3072,4.3278,4.3261,0.0,0.0,4.3492,4.2765,4.3082,4.3031,4.2278,4.1976,4.1648,4.1253,4.0893,4.0728,4.0728,4.0793,4.0817,4.0817,4.0954,4.0954,4.0817,4.1041,4.126,4.1494,4.1578,4.1709,4.1885,4.1885,4.1885,4.1906,4.2378,4.2595,4.2614,4.2808,4.2902,4.303,4.4053,4.3978,4.3501,4.4162,4.4345,4.4309,4.4158,4.4465,4.4775,4.4352,4.4276,4.4273,4.383,4.341,4.3069,4.3105,4.3123,4.3178,4.3425,4.3495,4.3548,4.3753,4.3837,4.3851,4.3851,4.3883,4.3897,4.3897,4.3897,4.3913,4.3961,4.3942,4.3976,4.4005,4.4005,4.4005,4.4005,4.4005,4.4005,4.4005,4.4005,4.4005,4.4005,4.4005,4.4005,4.4005,4.4005,4.402,4.4119,4.4119,4.4135,4.4162,4.4162,4.4233,4.4322,4.4199,4.4248,2.5348,2.7102,2.8886,2.8306,0.0,3.0839,3.1798,0.0,0.0,0.0,0.0,0.0,0.0,3.572,0.0,3.9785,4.1697,4.2963,4.3305,4.3254,4.3134,4.3048,4.2903,4.2732,4.2544,4.2628,4.2377,4.1638,4.1684,4.1516,4.0929,4.0912,4.0912,4.0912,4.0912,4.0942,4.1041,4.1351,4.1351,4.1041,4.1468,4.1713,4.1842,4.2095,4.2259,4.2358,4.2358,4.2358,4.2398,4.2845,4.3032,4.3069,4.3392,4.3513,4.3624,4.445,4.423,4.3642,4.4486,4.4281,4.3651,4.3651,4.4125,4.4598,4.3989,4.4375,4.4872,4.4059,4.413,4.4334,4.3929,4.3966,4.4059,4.389,4.3851,4.3851,4.3851,4.3899,4.3929,4.3929,4.3958,4.4005,4.4005,4.4005,4.4005,4.4005,4.4005,4.4005,4.4005,4.4005,4.4005,4.4036,4.4055,4.4051,4.4067,4.4067,4.4067,4.4067,4.407,4.4051,4.4067,4.4067,4.4116,4.4229,4.427,4.4325,4.4364,4.4416,4.4517,4.4657,4.4517,4.453,2.6332,2.8163,2.9883,2.939,3.0031,0.0,3.2882,3.3021,0.0,3.5242,0.0,0.0,0.0,3.6928,3.8949,4.2057,4.28,4.346,4.4833,0.0,4.4148,4.4018,4.3519,4.2871,4.2122,4.2061,4.1767,4.1009,4.0981,4.0963,4.0912,4.0912,4.0912,4.0912,4.0912,4.1088,4.1468,4.149,4.149,4.1468,4.1927,4.2378,4.2787,4.2378,4.2438,4.2844,4.2844,4.2844,4.2882,4.3304,4.3463,4.348,4.3548,4.3582,4.3709,4.4574,4.4335,4.3727,4.4658,4.4452,4.3788,4.3788,4.3824,4.3878,4.3822,4.4408,4.4918,4.4122,4.5057,4.5923,4.4321,4.4436,4.4839,4.4143,4.3989,4.3989,4.3989,4.3989,4.3989,4.3989,4.4005,4.4005,4.4005,4.4005,4.4005,4.4005,4.4005,4.4005,4.4005,4.4005,4.4055,4.4169,4.4184,4.4214,4.427,4.4285,4.4285,4.4285,4.4229,4.4214,4.427,4.4285,4.4285,4.4285,4.4481,4.4565,4.4578,4.4775,4.4855,4.4878,4.4855,4.4939,2.6292,2.8171,2.9941,2.9054,0.0,0.0,0.0,0.0,0.0,0.0,3.8367,0.0,0.0,0.0,4.0394,4.2034,4.3133,4.401,4.4561,4.4458,4.3923,4.2907,4.2588,4.2154,4.1395,4.1326,4.1205,4.0929,4.0912,4.0687,4.0164,4.0146,4.0285,4.0585,4.0585,4.0788,4.12,4.1428,4.1568,4.1568,4.2304,4.2731,4.2901,4.2976,4.3124,4.3268,4.3268,4.3268,4.3286,4.3479,4.3565,4.3565,4.3667,4.3719,4.3812,4.4658,4.4437,4.3865,4.4692,4.4502,4.3867,4.3867,4.4251,4.4633,4.4096,4.4872,4.5795,4.4997,4.5976,4.6865,4.5199,4.4997,4.5162,4.4878,4.4395,4.4005,4.4005,4.4005,4.4005,4.4005,4.4005,4.4005,4.4005,4.4005,4.402,4.4119,4.4119,4.415,4.4177,4.4192,4.4211,4.4274,4.4255,4.427,4.43,4.4402,4.4508,4.4549,4.4383,4.427,4.43,4.4416,4.4508,4.4562,4.4795,4.4919,4.4985,4.5055,4.5154,4.5266,4.5144,4.5184,2.6435,2.8076,2.9767,0.0,0.0,0.0,0.0,0.0,0.0,0.0,4.0199,0.0,0.0,0.0,0.0,0.0,4.3251,4.4035,4.4276,4.388,4.3189,4.2137,4.1809,4.1464,4.0963,4.0912,4.0791,4.0549,4.0532,4.0187,3.9388,3.9472,3.9678,4.0003,4.0151,4.0403,4.0821,4.1069,4.1415,4.1832,4.245,4.2887,4.3124,4.341,4.3566,4.3583,4.3583,4.3583,4.36,4.3634,4.3684,4.3701,4.3769,4.382,4.3966,4.502,4.4742,4.4001,4.509,4.4788,4.3966,4.426,4.4589,4.4822,4.4506,4.5379,4.6327,4.5528,4.6457,4.746,4.6345,4.6048,4.5918,4.5417,4.4841,4.4413,4.4413,4.4429,4.4442,4.4442,4.4457,4.438,4.4138,4.4082,4.4162,4.4292,4.434,4.4378,4.4481,4.449,4.4508,4.4554,4.4581,4.4576,4.4576,4.4707,4.48,4.4849,4.4688,4.4576,4.4576,4.4726,4.48,4.4868,4.5099,4.5254,4.5284,4.5352,4.5454,4.5594,4.5445,4.5454,2.6909,2.8032,0.0,0.0,0.0,0.0,0.0,0.0,0.0,0.0,0.0,4.1812,4.1795,0.0,0.0,4.285,4.3089,4.3431,4.4173,4.2965,4.2016,4.1999,4.1343,4.0912,4.0894,4.0894,4.0567,3.975,3.9681,3.937,3.8634,3.8981,3.9196,3.9196,3.9585,3.9996,4.0401,4.0401,4.1032,4.2286,4.2368,4.2805,4.3599,4.3599,4.3667,4.3804,4.3804,4.3804,4.3804,4.3804,4.3835,4.3881,4.3837,4.3835,4.4101,4.5694,4.5268,4.4154,4.5867,4.5379,4.4135,4.5008,4.4711,4.4153,4.5042,4.586,4.6343,4.5544,4.6492,4.7718,4.7718,4.7718,4.7328,4.5695,4.5305,4.5305,4.5321,4.5366,4.541,4.541,4.5453,4.5253,4.4449,4.43,4.4364,4.4565,4.4585,4.467,4.4878,4.4912,4.4954,4.5096,4.5169,4.5201,4.5201,4.5201,4.5201,4.5201,4.5211,4.5211,4.5201,4.5201,4.5201,4.5201,4.5399,4.5498,4.5498,4.5688,4.5807,4.5807,4.5807,4.5807,2.7726,2.8904,0.0,3.1771,0.0,0.0,0.0,0.0,0.0,0.0,0.0,4.2442,4.1357,0.0,0.0,4.1564,4.1992,4.243,4.2654,4.2292,4.1826,4.1291,4.1032,4.0687,4.0095,4.0043,3.9733,3.8974,3.8922,3.8733,3.8269,3.8362,3.8709,3.9246,3.9392,3.964,4.0032,4.0099,4.0584,4.154,4.1583,4.232,4.3599,4.3703,4.3753,4.3804,4.3804,4.3804,4.3804,4.3851,4.3913,4.3958,4.3961,4.3942,4.4013,4.4496,4.4366,4.4048,4.4546,4.4413,4.4042,4.4302,4.4326,4.4331,4.4593,4.5787,4.701,4.6764,4.7895,4.9192,4.9249,4.9245,4.8884,4.7413,4.6629,4.6112,4.5729,4.6012,4.624,4.6018,4.5825,4.5701,4.566,4.5136,4.4762,4.4919,4.4943,4.4988,4.5099,4.511,4.514,4.518,4.5191,4.5201,4.5201,4.5323,4.5409,4.5409,4.5533,4.5509,4.5211,4.5333,4.5409,4.5409,4.561,4.5715,4.5715,4.5766,4.5807,4.5807,4.5807,4.5807,2.8083,2.9574,0.0,3.2932,3.5866,3.8767,4.0267,0.0,0.0,0.0,0.0,4.2913,4.1999,4.193,0.0,4.1412,4.1723,4.2016,4.2016,4.1757,4.1412,4.0963,4.0636,4.0215,3.975,3.9422,3.9029,3.8443,3.8412,3.8115,3.745,3.755,3.7882,3.8419,3.8553,3.8912,3.9498,3.9543,3.9979,4.0754,4.0831,4.153,4.2777,4.3506,4.3851,4.3883,4.3883,4.3883,4.3883,4.3929,4.3958,4.4005,4.4005,4.4005,4.4042,4.4395,4.4302,4.4058,4.4494,4.4427,4.4237,4.4653,4.4693,4.4616,4.4963,4.6151,4.734,4.7327,4.8321,4.9454,4.9803,4.9417,4.8776,4.8281,4.7517,4.6826,4.6511,4.676,4.6892,4.6354,4.6402,4.6384,4.5883,4.5657,4.5472,4.5282,4.5333,4.5515,4.5916,4.5647,4.5436,4.5436,4.5436,4.5436,4.5436,4.556,4.5618,4.5618,4.573,4.5681,4.5445,4.5541,4.5618,4.5618,4.5737,4.5807,4.5807,4.5807,4.5807,4.5807,4.5807,4.5807,2.8303,0.0,0.0,3.3992,3.7232,0.0,4.1809,4.3258,4.4466,4.4966,0.0,4.3258,4.312,4.2499,4.1999,4.1912,4.1888,4.1878,4.1785,4.1222,4.0774,4.0705,4.0026,3.956,3.9508,3.8888,3.8361,3.8038,3.7935,3.7466,3.6522,3.6684,3.6876,3.703,3.7419,3.7989,3.8781,3.8873,3.9313,4.0107,4.0182,4.0674,4.156,4.3008,4.3722,4.3782,4.3782,4.3819,4.3893,4.3893,4.3931,4.4005,4.4005,4.4002,4.4144,4.5018,4.4792,4.4218,4.5279,4.5115,4.4611,4.5584,4.5476,4.5107,4.5808,4.6711,4.7469,4.7395,4.8029,4.8948,4.968,4.8791,4.7907,4.8617,4.815,4.7481,4.7384,4.7545,4.7446,4.6552,4.7035,4.7136,4.5626,4.5962,4.6262,4.5729,4.5808,4.6194,4.6999,4.6406,4.5884,4.5807,4.5865,4.5884,4.5807,4.5865,4.5884,4.5807,4.5807,4.5814,4.5814,4.5807,4.5807,4.5807,4.5807,4.5807,4.5807,4.5807,4.5807,4.5807,4.5807,4.5814,2.9954,3.1403,0.0,0.0,3.9635,4.2534,4.2861,4.3655,4.4,4.294,4.3448,4.369,4.2482,4.2137,4.1826,4.124,4.1153,4.0929,4.0267,4.0043,3.9733,3.9146,3.8922,3.8617,3.8047,3.784,3.7606,3.7257,3.6661,3.6486,3.6919,3.6433,3.6273,3.6619,3.7302,3.777,3.7968,3.8654,3.9371,4.0182,4.0306,4.0781,4.1579,4.1932,4.2095,4.211,4.211,4.2463,4.3058,4.3058,4.3429,4.4005,4.4005,4.4121,4.443,4.5292,4.519,4.4751,4.5672,4.5464,4.4831,4.506,4.563,4.6115,4.5617,4.6714,4.7961,4.7287,4.8172,4.9384,4.9613,4.9901,5.0045,4.9579,4.8977,4.8209,4.7173,4.7818,4.8277,4.7146,4.6912,4.6866,4.6722,4.6283,4.6136,4.6677,4.6791,4.6883,4.7076,4.6941,4.6561,4.5865,4.6406,4.6542,4.5865,4.6426,4.6549,4.5925,4.5886,4.588,4.5886,4.5834,4.5807,4.5807,4.5807,4.5807,4.5807,4.5807,4.584,4.5886,4.5886,4.588,2.9903,0.0,0.0,3.8185,0.0,4.2723,4.3103,4.35,4.3448,4.2258,4.2654,4.2965,4.2154,4.1388,4.0767,4.0388,4.0032,3.9652,3.9215,3.9163,3.9026,3.8651,3.8333,3.7975,3.7595,3.7429,3.7356,3.7377,3.6791,3.654,3.6853,3.6068,3.5731,3.6012,3.6763,3.7373,3.7803,3.8628,3.9254,3.9662,3.9737,3.9993,4.042,4.1219,4.159,4.159,4.159,4.1832,4.2237,4.2331,4.2613,4.3057,4.3554,4.3869,4.4171,4.5462,4.5483,4.4984,4.5993,4.5789,4.5112,4.5227,4.5965,4.671,4.6285,4.7152,4.821,4.7801,4.8593,4.9605,4.9649,4.9676,4.9695,4.9699,4.9465,4.8923,4.7818,4.8132,4.8469,4.7839,4.7272,4.695,4.7081,4.6709,4.6864,4.814,4.7985,4.7869,4.8295,4.7985,4.7386,4.6523,4.7233,4.724,4.597,4.6661,4.679,4.5938,4.5906,4.5893,4.5911,4.5874,4.5854,4.5854,4.5854,4.5854,4.5854,4.5854,4.5867,4.5906,4.5906,4.5893,2.9506,0.0,3.5632,3.9531,4.1274,0.0,4.2672,4.2896,4.2775,4.1981,4.1912,4.1964,4.1843,4.075,3.9853,3.9715,3.9181,3.8698,3.8439,3.841,3.838,3.8259,3.7823,3.7478,3.7335,3.7191,3.7201,3.7463,3.7003,3.6615,3.6419,3.5732,3.5327,3.5287,3.6152,3.6893,3.7466,3.8414,3.8897,3.8897,3.9027,3.9101,3.9157,4.0531,4.1163,4.1163,4.1163,4.1266,4.1469,4.163,4.1818,4.2058,4.2974,4.3456,4.3889,4.5453,4.5624,4.5199,4.6292,4.6119,4.5417,4.5657,4.631,4.7005,4.6908,4.7554,4.8296,4.821,4.8914,4.9707,4.9707,4.9262,4.8972,4.9571,4.9707,4.9455,4.8585,4.8527,4.8546,4.8237,4.7579,4.7154,4.7289,4.7308,4.785,4.9455,4.8952,4.8701,4.9579,4.8941,4.8135,4.7427,4.8171,4.8011,4.6274,4.692,4.6991,4.5976,4.5917,4.5923,4.5923,4.5923,4.5923,4.5923,4.5917,4.5911,4.5911,4.5911,4.5911,4.5917,4.5917,4.5923,0.0,0.0,3.7357,0.0,4.0457,4.1861,0.0,0.0,4.1964,0.0,4.1567,4.1809,4.117,4.0877,4.0515,3.9802,3.9612,3.9112,3.784,3.7698,3.7503,3.6863,3.7046,3.6986,3.6278,3.6453,3.651,3.6255,3.5549,3.5275,3.5639,3.554,3.5132,3.4401,3.5887,3.6408,3.5826,3.7312,3.8061,3.8061,3.8767,3.9101,3.9101,3.9324,3.9435,3.9435,3.9435,3.9946,4.084,4.0898,4.1455,4.2268,4.2473,4.316,4.4154,4.5083,4.5495,4.572,4.6703,4.6457,4.5739,4.5771,4.6385,4.6946,4.6199,4.7088,4.8229,4.7482,4.845,4.9707,4.9707,5.0132,5.0415,4.9842,4.9707,4.9455,4.8585,4.8991,4.9088,4.756,4.7173,4.7347,4.8101,4.8237,4.8566,4.9552,4.8952,4.8716,4.9584,4.8984,4.8437,4.8335,4.9097,4.8923,4.7178,4.7837,4.7663,4.6083,4.5991,4.5983,4.5986,4.5991,4.5991,4.5991,4.5935,4.5911,4.5911,4.5911,4.5923,4.5991,4.5991,4.5983,3.161,3.3734,3.5873,0.0,3.8698,4.0135,4.0221,0.0,4.1291,4.0981,4.117,4.1291,4.0963,4.0596,4.0107,3.9306,3.8871,3.8257,3.7199,3.7085,3.6967,3.6658,3.7031,3.6982,3.6147,3.6637,3.675,3.6164,3.5965,3.5959,3.6166,3.6179,3.5789,3.4952,3.6086,3.6532,3.6179,3.7318,3.8135,3.8581,3.8934,3.9192,3.932,3.932,3.9326,3.9324,3.9326,3.9677,4.0265,4.0452,4.0785,4.1237,4.1866,4.245,4.3145,4.4925,4.5375,4.5286,4.6634,4.6532,4.5805,4.58,4.6387,4.7018,4.6631,4.7405,4.8314,4.7947,4.874,4.9591,4.9107,4.961,5.0016,4.9165,4.9339,4.961,4.9204,4.8662,4.8024,4.725,4.7482,4.7954,4.8382,4.8834,4.9267,4.9695,4.985,5.0051,5.0433,5.0181,4.9762,4.9278,5.0015,4.964,4.7442,4.8042,4.7827,4.6116,4.6,4.6005,4.6002,4.6002,4.6002,4.6002,4.5975,4.5964,4.5964,4.5964,4.5969,4.6,4.6,4.6005,0.0,0.0,3.4372,3.5473,3.7042,3.8456,0.0,0.0,4.0665,0.0,4.0665,4.0689,4.0689,4.0268,3.9604,3.8695,3.8138,3.7558,3.6806,3.6806,3.6869,3.6869,3.7197,3.7058,3.6217,3.6604,3.6573,3.5745,3.5906,3.6055,3.6055,3.6463,3.6222,3.5213,3.616,3.6593,3.6402,3.7392,3.8338,3.92,3.92,3.9345,3.9603,3.9603,3.9634,3.9694,3.9634,3.9757,4.0023,4.0248,4.037,4.0476,4.1299,4.1903,4.2568,4.4462,4.5044,4.5084,4.6341,4.6348,4.5807,4.5807,4.6252,4.6767,4.6767,4.7386,4.8121,4.8333,4.903,4.961,4.9146,4.9513,4.9842,4.9184,4.9204,4.9494,4.9919,4.8824,4.7833,4.8046,4.8452,4.8834,4.9114,4.9664,5.0065,5.0131,5.05,5.0848,5.1075,5.0901,5.0617,5.0196,5.0746,5.0273,4.8138,4.8355,4.7958,4.6424,4.6118,4.6002,4.6002,4.6002,4.6002,4.6002,4.6002,4.6002,4.6002,4.6002,4.6002,4.6002,4.6002,4.6002,0.0,3.2422,0.0,3.4199,0.0,0.0,0.0,0.0,3.9945,3.9945,4.0053,4.0137,4.0137,3.9995,3.9453,3.8086,3.7812,3.7534,3.6806,3.7069,3.7357,3.7357,3.738,3.7076,3.6256,3.5826,3.5243,3.4358,3.4327,3.4327,3.4327,3.5844,3.5943,3.4309,3.585,3.6328,3.5566,3.7113,3.8438,3.9488,3.9488,3.9615,3.9887,3.9887,4.0015,4.0238,3.9995,4.0024,4.0292,4.0362,4.0512,4.0687,4.081,4.1835,4.324,4.3375,4.4407,4.5749,4.5845,4.5845,4.5807,4.5807,4.5826,4.5865,4.5865,4.6484,4.7347,4.8179,4.903,4.9881,5.0569,5.0801,5.0821,5.0782,4.9591,4.8894,5.0492,5.0162,4.9804,5.0637,5.022,4.9989,5.0822,5.0997,5.1035,5.1042,5.0364,5.0164,5.0992,5.0377,5.0195,5.1035,5.1177,5.0814,4.9843,4.9046,4.8211,4.7298,4.6463,4.6002,4.6002,4.6002,4.6002,4.6002,4.6002,4.6002,4.6002,4.6002,4.6002,4.6002,4.6002,4.6002,0.0,0.0,0.0,3.3666,3.4786,3.585,3.6151,3.7432,3.8547,3.8547,3.8973,3.9225,3.882,3.9099,3.906,3.8091,3.7944,3.7743,3.7011,3.6781,3.6702,3.6702,3.6649,3.6296,3.5439,3.5446,3.5138,3.4271,3.4729,3.5027,3.5027,3.6575,3.6705,3.5101,3.6612,3.7318,3.7052,3.7785,3.8346,3.8717,3.8334,3.8593,3.9397,3.9397,3.9841,4.0619,4.0523,4.0515,4.0564,4.0626,4.0694,4.0778,4.079,4.1487,4.2531,4.3092,4.404,4.5104,4.5633,4.5807,4.5807,4.5807,4.5807,4.5807,4.5807,4.6406,4.7173,4.7482,4.8198,4.8933,4.9223,4.971,5.0274,5.0896,5.0148,4.9614,5.0784,4.9918,4.9187,5.0053,5.0008,5.008,5.0959,5.1095,5.1102,5.116,5.0894,5.0803,5.1126,5.0893,5.0821,5.1163,5.1202,5.0619,4.9182,4.8774,4.7997,4.656,4.6177,4.6002,4.6002,4.6002,4.6013,4.6056,4.6056,4.6046,4.6002,4.6002,4.6002,4.6002,4.6002,4.6002,0.0,0.0,0.0,0.0,0.0,3.4659,3.486,0.0,3.7201,3.7111,3.7704,3.806,3.7391,3.7656,3.7918,3.7691,3.7802,3.7623,3.6864,3.672,3.6565,3.6296,3.6097,3.5749,3.5165,3.5086,3.4822,3.4234,3.4736,3.5064,3.5064,3.6606,3.7145,3.6328,3.7363,3.7824,3.7604,3.8344,3.8675,3.8565,3.8452,3.8842,3.9661,3.9661,4.0079,4.0797,4.0797,4.0759,4.0739,4.0784,4.0797,4.0797,4.0797,4.1467,4.2512,4.3092,4.402,4.5084,4.5606,4.5807,4.5807,4.5807,4.5807,4.5845,4.6155,4.6445,4.6786,4.7366,4.7761,4.8065,4.8336,4.9058,4.9898,5.0539,5.0484,5.0359,5.0653,5.0029,4.9576,5.0159,5.0286,5.049,5.1074,5.1172,5.1176,5.1234,5.1234,5.1234,5.1234,5.1234,5.1234,5.1234,5.1234,5.0767,4.9603,4.9234,4.8576,4.7427,4.7061,4.6906,4.6906,4.6629,4.6497,4.6543,4.627,4.6112,4.606,4.606,4.606,4.606,4.606,4.606,0.0,0.0,0.0,0.0,0.0,0.0,3.3754,0.0,3.5987,3.572,3.6354,3.671,3.5936,3.5795,3.6041,3.6816,3.7229,3.7148,3.6381,3.6882,3.7044,3.6241,3.5742,3.5454,3.5454,3.4711,3.4197,3.4197,3.4197,3.4197,3.4197,3.577,3.7071,3.7907,3.7992,3.7717,3.7081,3.8746,3.9418,3.9111,3.9945,4.0484,4.0758,4.0758,4.0777,4.0797,4.0797,4.0797,4.0797,4.0797,4.0797,4.0797,4.0797,4.1816,4.3305,4.3305,4.4369,4.5807,4.5807,4.5807,4.5807,4.5807,4.5807,4.5962,4.6806,4.6464,4.6155,4.7869,4.7789,4.7359,4.8192,4.9093,4.9826,4.9923,5.0591,5.0989,5.0211,5.0654,5.1207,5.1194,5.1252,5.1297,5.1297,5.1297,5.1297,5.1297,5.1297,5.1297,5.1297,5.1297,5.1297,5.1297,5.1297,5.1297,5.1258,5.0496,4.9991,4.9952,4.9174,4.8688,4.8669,4.7845,4.7395,4.7377,4.6594,4.6206,4.6206,4.6204,4.6202,4.6202,4.6202,4.6204,3.3255,0.0,0.0,0.0,0.0,0.0,0.0,0.0,3.4913,3.4851,3.5444,3.591,3.5695,3.5659,3.5731,3.5946,3.5862,3.5772,3.5794,3.5666,3.5512,3.5292,3.4842,3.455,3.455,3.4327,3.4197,3.4197,3.4197,3.4197,3.4197,3.5287,3.6801,3.8779,3.8483,3.847,3.8886,3.9118,3.9195,3.9092,3.8888,3.9181,3.9868,3.9868,4.0197,4.0797,4.0797,4.0797,4.0797,4.0797,4.0797,4.0797,4.0797,4.1816,4.3305,4.3305,4.4369,4.5807,4.5807,4.5807,4.5807,4.5807,4.5807,4.5845,4.6097,4.6033,4.6093,4.7215,4.6944,4.6688,4.8211,4.924,5.0043,5.0757,5.1095,5.1222,5.1049,5.1184,5.1331,5.1277,5.1295,5.1297,5.1297,5.1297,5.1297,5.1297,5.1297,5.1297,5.1297,5.1297,5.1297,5.1297,5.1297,5.1043,5.042,5.0147,4.9737,4.9096,4.8823,4.8413,4.7787,4.7531,4.7132,4.6541,4.6306,4.6211,4.6264,4.6222,4.6202,4.6202,4.6202,4.6196,0.0,0.0,0.0,0.0,0.0,0.0,3.3578,3.3872,3.4175,0.0,3.4612,3.5049,3.4705,3.4907,3.5077,3.4872,3.4679,3.4726,3.5239,3.5219,3.5021,3.4652,3.4364,3.4197,3.4197,3.4197,3.4197,3.4197,3.4197,3.4506,3.525,3.5832,3.7106,3.9213,3.9086,3.9066,3.9267,3.9533,3.9546,3.9266,3.9271,3.9553,4.0042,4.0042,4.0313,4.0797,4.0797,4.0797,4.0797,4.0797,4.0797,4.0797,4.0797,4.1603,4.2802,4.3169,4.4156,4.5355,4.5691,4.5807,4.5807,4.5807,4.5814,4.5905,4.6273,4.6442,4.6663,4.7536,4.7466,4.7457,4.8903,4.9633,5.0202,5.1131,5.1347,5.1347,5.1383,5.1401,5.1384,5.1347,5.1347,5.1347,5.1347,5.1347,5.1347,5.1347,5.1347,5.1347,5.1347,5.1347,5.1347,5.1347,5.1347,5.1132,5.0624,5.0585,5.037,4.9863,4.9492,4.9218,4.9062,4.8046,4.7422,4.7299,4.6597,4.6259,4.63,4.6268,4.6249,4.6249,4.6249,4.623,0.0,0.0,0.0,0.0,0.0,0.0,3.3931,3.3915,3.3872,0.0,3.3971,3.4261,3.3535,3.3989,3.4331,3.3899,3.3842,3.4067,3.4724,3.5127,3.5083,3.429,3.4197,3.4197,3.4197,3.4197,3.4234,3.4327,3.4432,3.5213,3.6857,3.7013,3.7773,3.9382,3.9701,3.9577,3.8994,4.0013,4.0226,3.9655,4.0429,4.0797,4.0797,4.0797,4.0797,4.0797,4.0797,4.0797,4.0797,4.0797,4.0797,4.0797,4.0797,4.1351,4.2241,4.3015,4.3904,4.4833,4.5555,4.5814,4.5814,4.5814,4.5867,4.6061,4.6836,4.7104,4.7349,4.8234,4.8593,4.8906,4.9746,5.0038,5.0309,5.107,5.1336,5.1394,5.1394,5.1394,5.1394,5.1394,5.1394,5.1394,5.1394,5.1394,5.1394,5.1394,5.1394,5.1394,5.1394,5.1394,5.1394,5.1394,5.1394,5.1394,5.1394,5.1394,5.1394,5.1394,5.067,5.0553,5.1238,4.8993,4.8037,4.8642,4.71,4.63,4.63,4.63,4.63,4.63,4.63,4.63,0.0,0.0,0.0,0.0,0.0,0.0,3.4433,3.4661,3.4945,0.0,3.4147,3.4202,3.4036,3.4147,3.4228,3.413,3.4124,3.4179,3.4315,3.4402,3.4383,3.4216,3.4197,3.4197,3.4197,3.4197,3.4494,3.5194,3.5913,3.6746,3.7791,3.791,3.8495,3.9693,3.9989,4.0147,4.0183,4.0542,4.0675,4.0545,4.0719,4.0797,4.0797,4.0797,4.0797,4.0797,4.0797,4.0797,4.0797,4.0797,4.0797,4.0797,4.0797,4.1719,4.3073,4.3247,4.4253,4.5594,4.5822,4.5886,4.5874,4.588,4.5925,4.6003,4.6178,4.6275,4.6531,4.7447,4.8238,4.8828,4.9012,4.957,5.0133,5.0301,5.0887,5.1394,5.1394,5.1394,5.1394,5.1394,5.1394,5.1394,5.1394,5.1394,5.1394,5.1394,5.1394,5.1394,5.1394,5.1394,5.1394,5.1394,5.1394,5.1394,5.1394,5.1394,5.1394,5.1394,5.1238,5.0906,5.0377,4.9208,4.8349,4.784,4.6827,4.63,4.63,4.63,4.63,4.63,4.63,4.63,0.0,0.0,0.0,3.6197,0.0,0.0,0.0,3.486,3.486,3.486,3.4494,3.4327,3.4767,3.4494,3.4197,3.4197,3.4197,3.4197,3.4197,3.4197,3.4197,3.4197,3.4197,3.4197,3.4197,3.4233,3.4641,3.5522,3.6031,3.6826,3.8078,3.831,3.8848,3.981,4.0167,4.0408,4.0496,4.0706,4.0797,4.0797,4.0797,4.0797,4.0797,4.0797,4.0797,4.0797,4.0797,4.0797,4.0797,4.0797,4.0797,4.0797,4.0797,4.1564,4.2705,4.315,4.4111,4.5266,4.5738,4.5893,4.5918,4.5936,4.6008,4.6041,4.6043,4.6694,4.7632,4.8532,4.9426,4.999,4.9565,5.0106,5.0631,5.0202,5.077,5.1394,5.1394,5.1394,5.1394,5.1394,5.1394,5.1394,5.1394,5.1394,5.1394,5.1394,5.1394,5.1394,5.1394,5.1394,5.1394,5.1394,5.1394,5.1394,5.1394,5.1394,5.1394,5.1394,5.0984,5.0553,5.0124,4.8874,4.7803,4.6963,4.6515,4.63,4.63,4.63,4.63,4.63,4.63,4.63,0.0,0.0,0.0,0.0,0.0,3.5882,0.0,0.0,0.0,3.5138,3.4692,3.4414,0.0,0.0,0.0,3.3824,0.0,0.0,0.0,3.4029,0.0,3.4221,3.4221,3.4221,3.4233,3.443,3.4881,3.5649,3.6063,3.6853,3.8206,3.8636,3.9206,3.9991,4.033,4.0512,4.0561,4.072,4.0797,4.0797,4.0797,4.0797,4.0797,4.0797,4.0797,4.0797,4.0797,4.0797,4.0797,4.0797,4.0797,4.0803,4.0797,4.1396,4.2351,4.306,4.3976,4.4957,4.5692,4.5935,4.5956,4.6024,4.6075,4.6111,4.6124,4.7282,4.8727,4.943,5.0243,5.0692,4.9831,5.0377,5.0926,5.0065,5.0516,5.1199,5.1355,5.1277,5.1199,5.1375,5.1394,5.1394,5.1394,5.1394,5.1394,5.1394,5.1394,5.1394,5.1394,5.1394,5.1394,5.1394,5.1394,5.1394,5.1394,5.1394,5.1394,5.1394,5.0748,5.028,5.0104,4.8484,4.7198,4.6319,4.63,4.63,4.63,4.63,4.63,4.63,4.63,4.63,0.0,0.0,0.0,0.0,3.7689,0.0,0.0,0.0,3.5157,3.4494,0.0,3.4258,0.0,0.0,0.0,0.0,0.0,0.0,3.2459,3.3486,3.4351,3.4293,3.4293,3.4305,3.4363,3.5084,3.5624,3.5776,3.7117,3.811,3.8531,3.9313,3.9946,4.0425,4.0473,4.0583,4.0752,4.079,4.0797,4.0797,4.0797,4.0797,4.0797,4.0797,4.0797,4.0797,4.0797,4.0797,4.0797,4.0797,4.0809,4.0808,4.0803,4.1802,4.3253,4.335,4.4382,4.5788,4.5993,4.6091,4.6088,4.6153,4.6175,4.6191,4.6261,4.6954,4.7767,4.7861,4.8466,4.8915,4.8094,4.905,5.0026,4.915,4.9618,5.0455,5.1238,5.0789,5.0475,5.1258,5.1394,5.1394,5.1394,5.1394,5.1394,5.1394,5.1394,5.1394,5.1394,5.1394,5.1394,5.1394,5.1394,5.1394,5.1394,5.1394,5.1394,5.1394,5.1316,5.0906,5.0124,4.8484,4.7198,4.6319,4.63,4.63,4.63,4.63,4.63,4.63,4.63,4.63,0.0,0.0,0.0,0.0,0.0,0.0,3.7039,0.0,3.6216,0.0,0.0,0.0,0.0,0.0,0.0,0.0,3.3956,3.4162,0.0,0.0,3.4386,3.4351,0.0,0.0,3.445,3.4798,3.527,3.5926,3.7071,3.8029,3.8746,3.9709,4.0321,4.0489,4.0605,4.072,4.0797,4.0797,4.0797,4.0797,4.0797,4.0797,4.0797,4.0797,4.0797,4.0797,4.0797,4.0803,4.0802,4.0802,4.08,4.0804,4.0792,4.1864,4.3399,4.3432,4.4224,4.5264,4.5322,4.5373,4.5489,4.6023,4.623,4.6356,4.6889,4.7647,4.8291,4.8291,4.9267,5.0008,4.8642,4.9579,5.0516,4.913,4.9462,5.0202,5.0573,5.0358,5.0358,5.1238,5.1394,5.1394,5.1394,5.1394,5.1394,5.1394,5.1394,5.1394,5.1394,5.1394,5.1394,5.1394,5.0945,5.0848,5.1355,5.0945,5.0867,5.1375,5.0926,5.0475,5.0124,4.8933,4.79,4.7061,4.7042,4.6807,4.63,4.6807,4.7042,4.7042,4.6534,4.63,3.9101,0.0,0.0,0.0,0.0,0.0,0.0,0.0,0.0,0.0,0.0,0.0,0.0,0.0,0.0,0.0,0.0,3.4293,0.0,3.4181,0.0,0.0,0.0,0.0,3.4517,3.4583,3.4925,3.5712,3.6615,3.7557,3.8567,3.9591,4.0281,4.0576,4.0726,4.0797,4.0797,4.0797,4.0797,4.0797,4.0797,4.0797,4.0797,4.0797,4.0797,4.0809,4.0809,4.0802,4.0792,4.0792,4.0809,4.0823,4.0835,4.1762,4.3097,4.3128,4.3712,4.4468,4.4469,4.4671,4.5073,4.5937,4.6259,4.6456,4.7332,4.8154,4.8798,4.8798,4.9872,5.0692,4.9189,4.9911,5.0711,4.9462,4.9462,4.987,5.0358,5.0085,5.0065,5.118,5.1394,5.1394,5.1394,5.1394,5.1394,5.1394,5.1394,5.1394,5.1394,5.1394,5.1394,5.1394,5.0828,5.0709,5.1355,5.0828,5.0729,5.1355,5.0573,5.0104,5.0104,4.9267,4.8427,4.7625,4.7606,4.7295,4.6651,4.7295,4.7606,4.7586,4.7178,4.6983,0.0,3.9101,3.9101,3.9101,3.8488,3.7894,0.0,0.0,3.6731,0.0,0.0,0.0,0.0,0.0,0.0,0.0,0.0,0.0,0.0,0.0,0.0,0.0,0.0,0.0,0.0,3.4781,3.4898,3.4946,3.5881,3.6862,3.7892,3.8769,3.9728,4.0765,4.079,4.0797,4.0797,4.0797,4.0797,4.0797,4.0797,4.0797,4.0797,4.0797,4.0809,4.0794,4.0794,4.0792,4.0807,4.0807,4.0842,4.0893,4.0894,4.15,4.2328,4.2252,4.2824,4.3642,4.3649,4.4234,4.5132,4.6009,4.6302,4.6456,4.7332,4.8154,4.8798,4.8798,4.9442,4.9928,4.9032,4.9462,5.0124,5.0065,4.9442,4.9306,5.0984,5.0028,4.9345,5.1063,5.1394,5.1394,5.1394,5.1394,5.1394,5.1394,5.1394,5.1394,5.1394,5.1394,5.1394,5.1394,5.1375,5.1375,5.1394,5.1375,5.1375,5.1394,5.0573,5.0104,5.0104,4.9267,4.8427,4.7625,4.7606,4.7586,4.7567,4.7586,4.7606,4.7625,4.8369,4.872,3.9101,3.9101,3.9101,3.9101,3.8897,3.8692,3.8692,3.8469,0.0,0.0,0.0,0.0,0.0,0.0,0.0,0.0,0.0,0.0,0.0,0.0,3.4916,0.0,0.0,0.0,0.0,3.4978,3.5092,3.5212,3.6078,3.7038,3.8029,3.8923,3.9837,4.0777,4.0797,4.0797,4.0797,4.0797,4.0797,4.0797,4.0797,4.0797,4.0797,4.0796,4.0808,4.08,4.0804,4.0826,4.0872,4.0872,4.0888,4.0903,4.0956,4.1151,4.1501,4.2108,4.2529,4.2888,4.3473,4.387,4.4387,4.5831,4.63,4.6456,4.7332,4.8154,4.8798,4.8798,4.9833,5.077,4.9889,5.0301,5.0809,5.0241,4.987,4.9811,5.0416,5.0085,5.0008,5.118,5.1394,5.1394,5.1394,5.1394,5.1394,5.1394,5.1394,5.1394,5.1394,5.1394,5.1394,5.1394,5.0887,5.077,5.1355,5.1394,5.1394,5.1394,5.1121,5.0965,5.0965,5.0124,4.9538,4.9265,4.8172,4.7859,4.8388,4.8388,4.8388,4.8408,4.9267,4.907,3.9101,3.9101,3.9101,3.9101,3.9101,3.9101,3.9101,3.9101,3.9129,0.0,0.0,0.0,0.0,0.0,0.0,0.0,0.0,0.0,0.0,3.5058,0.0,3.5193,0.0,0.0,0.0,3.5162,3.5265,3.5391,3.5984,3.6897,3.8135,3.8721,3.9578,4.0758,4.0797,4.0797,4.0797,4.0797,4.0797,4.0797,4.0797,4.0803,4.079,4.0808,4.0806,4.0848,4.0832,4.0858,4.0903,4.0936,4.0943,4.0949,4.1005,4.1048,4.1105,4.1718,4.2128,4.2574,4.375,4.4153,4.4406,4.5831,4.63,4.6456,4.7332,4.7959,4.8427,4.872,4.9618,5.0418,5.0163,5.0514,5.0867,5.0612,5.0085,4.9811,5.0436,5.0085,4.9989,5.118,5.1394,5.1394,5.1394,5.1394,5.1394,5.1394,5.1394,5.1394,5.1394,5.1394,5.1394,5.1394,5.0906,5.0789,5.1355,5.1394,5.1394,5.1394,5.1394,5.1394,5.1394,5.0863,5.0414,5.0104,4.9046,4.8597,4.8792,4.9105,4.8946,4.8376,4.9547,4.9196]}]]